ECMWFFLT1_850_spd_057.txt.gz
Wind_Speed
30 31 31 32 34 36 39 44 48 48 48 50 51 49 49 48 48 48 47 45 43 42 41 39 38 37 36 36 36 36 36 37 37 37 38 37 37 35 34 32 30 28 27 26 25 22 20 18 18 18 17 17 17 17 16 15 14 14 13 13 14 14 13
29 30 31 31 33 36 40 44 47 48 48 50 50 49 50 50 50 50 48 47 45 43 42 41 40 39 37 35 35 35 36 35 35 35 36 36 36 35 34 32 30 28 27 26 25 23 21 20 19 18 18 17 17 17 17 16 16 15 15 15 15 15 14
29 30 32 33 35 39 42 45 48 49 49 50 50 50 51 52 50 49 48 47 46 45 44 42 41 40 38 36 35 35 35 35 35 35 35 35 35 34 33 32 30 29 27 26 26 25 23 22 20 19 18 18 18 18 17 17 17 17 16 16 16 16 15
30 33 34 36 39 43 45 47 48 49 49 50 52 52 52 51 50 48 47 46 46 46 45 44 42 41 39 38 36 35 34 34 33 33 33 33 34 34 33 31 30 29 28 27 26 26 24 23 21 20 19 19 19 19 19 18 18 18 18 17 17 17 16
30 32 33 35 38 40 43 46 48 49 49 49 51 52 52 51 49 48 48 47 47 46 44 43 42 42 41 39 38 36 34 33 32 31 31 31 32 32 32 31 29 29 28 27 26 26 25 24 23 21 20 19 19 19 19 19 19 20 19 19 19 18 17
28 30 32 34 37 38 42 47 48 50 51 50 50 52 52 50 49 49 49 49 48 47 45 44 43 42 41 40 39 37 35 34 33 32 30 30 30 30 30 30 29 28 27 27 27 26 25 25 24 23 21 20 19 19 20 20 20 21 21 20 20 19 18
28 31 35 39 40 40 43 48 48 49 51 49 47 48 50 49 49 50 49 50 50 48 47 46 44 43 42 41 40 38 36 35 34 32 31 30 29 29 29 29 28 28 27 27 27 27 26 26 25 24 22 21 20 20 20 20 20 21 22 22 21 20 20
30 35 39 42 43 41 43 47 48 47 48 45 42 45 49 49 49 50 51 51 51 50 49 47 45 45 43 42 41 39 36 35 34 34 33 32 30 29 29 29 28 27 27 26 27 27 27 26 26 25 24 23 22 21 20 20 20 21 22 22 22 21 21
32 38 42 44 43 42 42 47 49 47 46 46 47 49 51 50 50 52 52 52 52 51 49 47 46 45 43 42 41 38 37 36 36 35 34 33 32 30 28 28 28 28 27 27 27 27 26 26 26 26 26 25 24 23 22 21 20 21 22 23 22 22 21
31 37 42 43 41 39 41 43 44 43 45 48 51 51 50 51 52 52 52 52 53 51 49 48 47 46 44 42 41 39 38 38 36 36 35 34 33 31 29 28 28 28 28 27 27 27 26 26 26 27 27 27 26 25 24 23 22 22 22 23 23 22 22
28 35 40 41 41 40 39 39 41 44 46 48 49 50 50 52 53 52 53 53 53 52 50 49 48 47 44 43 42 41 41 39 38 37 36 35 34 32 30 29 28 28 27 27 27 27 27 27 27 28 28 28 28 26 25 24 24 23 23 23 23 23 22
20 28 34 38 41 43 42 41 44 46 46 47 48 50 51 52 53 53 53 53 53 52 51 50 48 47 45 44 44 44 42 41 40 39 37 36 34 33 31 30 29 28 27 26 26 26 27 27 28 29 29 29 29 28 27 26 26 26 25 24 24 24 23
18 23 28 32 35 39 39 40 43 45 46 47 49 51 52 53 53 53 53 53 53 52 51 50 49 47 46 45 45 45 44 42 40 39 38 36 35 34 32 31 30 29 27 26 26 27 27 28 29 29 29 29 30 29 28 27 27 27 27 26 25 25 24
18 22 26 29 31 34 36 38 41 44 46 48 49 51 52 52 52 52 53 54 52 52 52 51 50 48 46 46 46 46 44 42 40 39 38 36 35 34 33 32 31 29 27 27 27 28 28 29 29 30 30 30 30 30 29 29 29 29 28 28 27 26 25
15 18 24 29 33 35 38 41 42 44 47 49 50 51 52 52 52 52 52 53 52 52 52 51 50 48 46 46 47 45 42 41 40 38 37 36 35 34 33 33 32 30 29 29 28 28 28 29 29 30 30 30 30 30 30 31 31 31 30 29 28 27 27
16 17 20 26 31 35 39 42 44 46 48 49 50 51 52 52 53 53 53 52 52 52 51 50 49 48 47 47 46 44 42 41 40 38 37 36 35 35 34 34 33 32 31 30 29 29 29 29 29 30 30 30 31 31 31 32 33 32 31 29 29 28 28
20 24 24 26 29 33 37 41 44 46 47 48 50 51 52 53 54 54 53 52 52 52 51 50 48 47 47 47 45 43 41 40 39 38 37 37 36 35 35 34 34 33 33 32 30 30 30 30 30 30 30 31 31 32 32 33 33 32 30 29 29 28 28
22 28 32 34 33 33 37 41 44 46 47 49 50 51 52 53 53 52 52 52 52 51 50 49 47 47 47 47 45 43 41 40 40 39 38 37 36 36 34 34 34 34 33 32 31 31 31 31 31 31 31 31 32 33 33 34 33 32 30 29 29 29 28
23 27 31 35 35 34 37 40 43 45 47 49 51 51 52 52 52 52 52 52 51 51 50 49 47 46 47 47 45 42 41 41 39 38 38 37 36 35 34 34 35 35 34 33 32 32 32 31 31 31 32 32 33 34 34 34 34 32 31 30 30 29 28
22 25 28 30 31 33 36 40 43 44 46 48 50 51 52 51 50 50 50 50 50 50 49 48 47 46 46 45 43 42 41 40 38 37 37 36 35 35 35 35 35 35 34 33 33 34 33 32 31 32 32 32 33 34 35 35 34 33 31 31 30 29 29
21 22 24 25 27 30 34 39 43 44 46 48 47 48 50 49 48 48 48 49 49 48 48 47 46 45 44 44 42 40 39 38 37 36 35 35 35 35 36 36 36 35 34 34 34 34 32 31 31 32 32 32 33 34 35 35 35 33 32 31 30 30 29
20 21 21 22 25 29 32 38 42 44 46 45 45 46 48 48 48 48 48 48 47 46 46 45 44 43 42 42 40 39 38 37 36 35 34 34 35 36 36 36 35 34 34 34 34 33 32 32 32 32 32 31 32 33 34 35 35 34 33 32 31 30 30
19 20 18 20 23 26 30 34 38 41 42 42 43 46 46 46 47 47 46 45 45 45 45 44 43 42 41 40 39 37 36 35 34 34 33 34 35 36 36 35 34 34 34 34 34 34 33 32 32 32 32 32 32 33 34 34 34 34 33 31 31 31 31
15 15 15 17 19 22 27 32 35 38 38 38 40 43 44 45 47 46 45 44 44 44 44 43 42 41 40 39 37 35 34 33 33 32 32 34 35 35 35 34 34 33 33 33 33 33 32 32 32 32 32 32 33 33 33 33 33 33 32 31 31 31 31
12 10 11 13 16 20 24 29 33 34 35 36 39 41 42 44 46 46 45 44 43 42 43 42 41 39 38 37 35 34 33 32 31 31 32 33 34 33 33 33 32 32 32 32 32 32 32 31 32 32 32 32 32 31 32 32 32 32 31 30 30 31 31
10 7 7 11 15 19 21 26 31 32 34 36 37 39 41 43 44 44 44 43 42 41 41 39 36 34 34 33 33 33 32 31 31 31 32 32 31 31 30 30 29 30 31 31 31 31 31 31 31 32 31 31 30 30 30 30 30 31 31 30 30 30 30
8 5 3 10 16 18 20 24 28 29 31 33 34 37 40 42 43 42 41 40 40 39 36 33 31 31 31 32 32 32 31 31 30 30 29 28 27 27 28 28 28 30 30 30 30 30 31 31 31 31 31 30 29 29 29 28 27 26 27 27 28 28 28
7 6 3 9 17 21 21 23 25 26 28 29 31 35 38 39 40 40 39 38 37 34 32 30 29 29 30 30 30 30 30 29 29 28 27 27 26 27 28 27 28 29 29 29 30 30 30 30 30 30 30 29 29 28 28 26 24 23 23 24 24 24 25
10 8 7 8 16 22 24 25 27 27 28 29 31 34 35 36 37 36 36 35 32 30 29 27 27 28 28 28 28 28 27 26 26 26 26 26 26 27 27 26 27 28 28 28 29 30 30 29 29 29 30 30 30 29 27 25 23 22 23 23 22 22 23
14 12 10 8 11 19 24 27 29 30 31 31 32 32 32 33 34 34 33 31 29 27 26 25 25 26 26 26 26 25 25 24 24 25 25 26 25 25 26 26 27 28 28 28 29 30 31 30 30 31 31 31 30 29 26 24 22 21 22 22 21 22 22
18 16 14 12 11 15 19 24 27 30 31 32 31 31 31 32 32 32 32 30 27 26 24 23 24 24 24 24 25 24 24 24 24 25 25 24 24 25 25 26 28 29 29 29 30 31 32 31 31 32 31 30 30 28 25 23 22 21 21 21 21 21 21
21 19 19 18 17 15 16 19 23 26 29 31 31 32 32 31 30 30 30 29 26 25 24 23 23 24 24 24 24 24 24 24 24 25 24 24 24 24 24 25 27 28 29 29 31 31 31 31 32 32 31 31 30 29 25 23 22 22 22 21 21 21 22
22 21 21 21 21 20 20 20 21 23 25 27 28 30 31 30 29 29 29 28 27 27 26 25 24 24 24 23 23 23 23 24 25 25 25 26 26 25 24 26 28 29 30 31 32 32 32 32 32 32 32 31 28 26 24 23 23 23 22 22 21 21 22
21 20 20 20 20 22 23 23 23 22 23 23 24 25 27 28 28 28 28 28 28 28 27 26 25 24 23 23 23 23 23 24 24 25 26 27 27 27 27 27 28 30 31 31 31 31 31 31 30 30 29 27 25 24 23 23 23 23 21 21 20 20 21
21 20 19 19 18 19 20 21 21 21 22 22 22 23 25 26 27 27 27 27 26 26 25 25 24 23 22 21 21 22 22 23 23 24 26 27 28 29 29 29 30 31 31 31 31 30 30 29 28 27 26 24 23 24 24 24 22 19 18 17 18 18 19
21 20 19 18 18 18 19 18 17 18 18 18 18 20 22 24 25 25 25 26 26 26 25 25 24 23 22 22 22 23 23 24 24 25 26 27 29 30 31 31 31 32 32 32 31 30 30 29 28 26 24 23 22 21 21 21 18 15 14 15 17 18 19
19 20 19 19 19 19 19 17 15 15 15 15 14 15 17 19 20 21 22 23 24 25 26 26 26 26 26 25 25 25 25 26 27 27 28 29 30 31 32 32 32 32 32 33 33 31 30 29 27 25 23 22 21 19 18 18 16 15 16 17 18 19 21
18 18 18 19 19 18 18 18 16 15 14 13 12 12 13 15 15 16 18 19 20 22 24 25 25 26 26 26 26 26 26 26 27 27 28 29 30 31 32 33 33 33 33 33 33 32 30 29 27 25 23 21 20 18 17 16 16 17 17 18 19 20 21

ECMWFFLT1_850_spd_060.txt.gz
Wind_Speed
23 25 27 27 28 30 32 35 35 36 36 36 37 37 37 36 36 38 41 43 41 40 40 40 39 38 37 37 38 39 40 40 40 39 38 37 36 35 34 32 30 29 27 26 25 23 22 20 19 19 17 15 14 14 13 13 13 12 11 11 11 10 10
22 23 26 27 28 30 32 33 34 35 36 37 37 38 38 38 40 41 43 44 43 42 41 41 40 39 37 36 36 37 39 39 39 39 38 37 37 36 35 33 31 29 28 27 27 26 24 22 20 20 19 16 15 15 15 14 14 13 13 12 12 11 10
21 22 25 27 29 31 33 34 35 36 36 37 37 39 40 41 42 44 45 45 44 42 41 41 40 39 38 37 36 36 37 37 38 38 38 37 37 36 35 33 31 29 28 28 27 27 25 24 22 21 20 18 17 17 16 15 15 14 14 13 13 12 12
23 23 25 28 30 31 33 35 37 37 37 38 39 40 42 43 43 44 45 46 44 43 42 42 40 39 38 37 36 36 36 36 36 36 36 36 36 36 35 35 32 30 29 28 28 27 26 25 24 22 21 19 19 18 17 16 15 15 14 14 14 13 13
25 25 25 28 30 31 32 34 36 37 37 38 39 39 40 41 42 42 44 46 45 44 43 42 40 39 38 37 36 36 35 35 35 35 35 35 35 35 35 35 33 31 30 29 28 28 27 26 25 24 22 21 20 19 19 18 17 17 16 15 15 15 14
25 26 26 27 29 30 32 34 36 38 39 39 39 39 39 39 41 41 43 44 45 44 43 42 41 40 39 38 37 36 35 34 34 35 35 34 34 34 34 34 32 31 30 29 29 28 28 27 26 25 24 22 21 20 20 20 19 19 18 17 17 17 16
23 24 26 27 29 31 33 35 36 37 38 38 38 38 37 38 39 39 39 41 43 44 44 44 43 42 41 40 38 38 36 35 34 34 34 34 34 34 34 33 32 31 30 29 29 29 28 28 27 26 25 23 22 21 21 21 21 21 20 19 19 18 18
23 24 26 27 29 30 32 34 36 36 36 36 35 36 37 37 38 38 38 39 41 42 43 44 44 44 43 41 41 40 38 36 35 34 34 33 34 34 34 34 32 31 30 30 29 29 28 28 27 27 26 25 24 23 22 22 21 21 21 20 21 20 20
21 23 26 27 29 30 31 33 34 34 35 35 36 37 38 38 38 39 40 39 39 40 42 42 42 44 44 43 42 41 39 37 36 35 34 33 33 33 33 32 31 30 30 30 29 28 28 28 28 28 27 26 26 25 24 23 22 21 21 21 22 21 21
21 24 25 26 27 28 29 29 30 31 33 35 37 38 38 39 39 39 39 39 39 40 41 41 40 41 43 44 43 41 40 39 37 36 35 34 34 33 32 31 30 30 30 29 28 28 28 28 28 28 28 28 28 27 26 25 24 22 22 22 22 22 22
18 22 23 24 24 26 27 27 29 32 34 37 38 37 37 39 39 38 39 40 40 39 40 40 39 39 42 44 43 42 42 40 39 37 36 35 35 34 32 30 29 29 29 29 28 28 28 28 28 28 29 29 29 28 28 27 25 24 23 22 22 22 22
12 15 17 18 20 22 24 26 29 33 36 38 39 37 38 39 38 38 38 40 39 38 38 39 38 38 40 42 43 43 42 41 40 39 37 36 35 33 32 30 29 29 29 29 29 29 29 29 28 29 29 30 30 29 29 28 27 26 25 24 23 23 23
9 11 13 14 15 19 21 24 27 31 35 38 38 37 38 39 39 38 38 39 38 37 37 38 38 38 39 41 41 42 43 42 41 40 38 37 36 34 32 31 30 29 29 30 30 30 30 29 29 29 30 30 29 29 30 29 28 27 26 25 25 25 25
6 8 11 13 15 19 22 25 26 29 34 35 35 35 36 37 38 38 38 39 38 37 37 38 39 39 40 41 41 42 42 42 41 41 40 38 37 35 33 32 30 30 30 30 30 30 29 29 30 30 31 30 30 30 30 30 29 29 28 27 27 27 27
6 8 9 12 16 21 24 26 28 31 34 35 34 34 34 34 35 36 37 37 37 37 37 37 39 39 40 41 43 42 42 41 41 41 40 39 38 37 36 34 33 32 32 32 31 29 29 29 29 30 31 31 30 30 30 30 30 30 29 28 28 28 29
7 7 7 10 15 20 24 27 29 32 36 37 35 35 35 34 34 36 36 36 38 38 37 37 38 40 41 43 44 44 42 42 42 42 41 41 39 38 37 36 35 34 34 34 32 30 30 30 29 29 29 31 31 31 31 31 31 31 31 29 29 29 29
9 8 7 8 10 16 22 25 29 32 35 38 39 38 37 36 36 36 36 36 38 39 38 38 40 42 44 44 44 44 43 42 42 42 42 41 40 39 37 37 36 36 35 35 33 32 32 31 31 30 29 30 31 32 32 32 32 32 31 30 29 29 30
13 12 10 10 9 12 17 22 26 30 34 38 40 40 39 38 37 36 36 37 38 39 38 39 40 43 45 44 43 44 44 43 42 42 42 42 40 39 37 36 36 36 36 35 34 34 34 33 33 33 31 30 31 32 32 33 33 33 32 30 29 30 30
16 16 15 14 13 13 16 19 23 29 34 36 38 40 41 41 40 39 39 39 38 38 38 38 39 41 44 43 43 45 44 43 42 42 42 42 40 39 37 36 37 37 37 36 35 35 35 35 34 34 34 33 32 33 33 33 33 33 31 30 29 30 31
19 19 19 19 17 17 17 19 22 27 32 35 37 39 40 40 41 40 38 37 36 36 37 37 37 39 42 44 44 45 43 42 42 42 42 42 40 39 38 37 37 37 37 36 36 36 36 36 35 35 35 35 35 35 34 33 34 33 31 29 29 30 31
20 20 22 22 21 20 19 19 22 26 30 34 36 36 37 37 37 35 34 34 35 36 37 37 36 36 40 43 44 43 42 41 42 42 42 42 40 39 38 38 38 37 37 36 37 37 36 36 35 36 36 35 35 36 36 35 35 34 32 29 29 30 31
21 22 23 24 24 25 24 23 23 26 30 32 33 33 36 37 36 34 34 34 35 35 36 37 36 35 38 42 43 42 41 41 42 42 42 41 41 40 39 39 38 38 37 37 37 37 36 36 35 35 35 35 35 35 36 36 36 36 33 31 30 30 31
23 24 24 25 26 27 26 24 23 24 27 29 31 33 35 36 35 34 34 33 34 35 35 36 37 38 41 42 42 40 40 40 41 41 41 41 41 41 40 40 39 38 38 38 37 37 37 36 35 34 34 34 35 35 35 35 36 36 35 33 32 32 33
23 23 24 25 26 26 24 22 21 22 25 28 31 34 34 34 34 34 34 34 34 35 35 36 39 42 43 42 40 39 39 39 39 39 40 41 41 41 40 40 40 39 38 37 37 36 36 35 34 34 34 34 35 35 34 34 35 36 35 34 33 33 33
23 23 24 25 24 23 20 18 18 20 24 27 31 33 33 34 35 34 34 35 34 34 35 37 40 43 42 40 38 37 37 37 37 38 39 40 40 40 40 40 38 37 36 36 35 35 34 34 34 34 34 34 35 34 34 34 34 35 35 34 33 32 33
23 23 24 23 21 19 16 15 16 20 24 28 31 32 33 34 35 35 35 35 33 34 36 38 40 40 38 37 37 36 36 35 35 36 37 39 39 39 39 38 36 36 35 35 35 34 34 35 35 35 35 35 34 34 34 33 33 34 35 34 33 33 32
22 21 20 20 19 16 12 13 17 20 23 27 31 32 33 34 34 35 36 35 34 35 36 37 38 37 36 37 36 35 34 34 34 35 35 36 37 37 37 36 35 35 35 34 34 34 34 35 34 34 34 34 34 34 34 33 33 33 34 34 34 33 32
17 16 15 14 14 11 9 12 16 19 21 26 30 32 33 34 35 36 37 37 38 37 34 34 35 36 35 35 35 33 32 32 32 33 33 34 34 34 34 34 34 34 34 33 33 34 34 35 34 33 32 32 32 33 33 34 33 33 33 34 33 32 32
11 12 11 10 8 6 5 9 15 19 21 25 29 31 32 34 37 39 40 40 39 36 33 33 35 35 34 34 33 32 31 31 31 31 32 33 32 32 33 33 33 34 34 32 33 33 32 31 30 30 29 29 28 28 28 30 31 32 33 32 32 31 32
8 8 8 7 6 3 0 5 12 17 20 23 26 28 30 33 38 40 40 40 38 34 33 35 35 34 34 33 33 32 32 31 31 30 31 31 31 31 32 32 32 33 32 31 31 31 30 28 25 24 24 24 24 23 22 22 25 28 31 31 30 30 30
9 8 8 7 5 3 3 3 6 11 16 20 23 25 26 30 36 38 37 37 36 34 33 35 36 34 33 32 32 32 31 30 29 28 29 30 30 30 31 30 31 32 31 30 29 29 29 27 24 23 23 22 21 22 22 21 22 24 27 29 29 28 28
11 12 11 10 9 7 4 4 5 7 11 15 17 19 22 25 30 34 34 34 35 35 34 34 33 31 29 29 29 29 28 27 27 27 27 28 28 28 28 28 29 30 30 29 29 28 28 25 23 24 25 23 21 21 22 22 22 22 23 26 27 27 26
12 13 15 14 12 10 7 5 5 6 12 16 14 12 16 19 22 29 32 32 32 33 33 33 30 27 27 27 26 26 26 26 26 26 26 27 27 26 26 27 27 28 28 29 29 29 29 27 24 23 25 23 22 21 21 22 23 23 22 23 24 25 25
13 13 15 16 15 13 11 9 6 6 10 13 12 11 14 16 18 23 30 32 30 31 32 31 28 26 26 27 27 27 27 27 27 26 25 26 27 26 25 26 26 27 28 28 28 28 28 28 27 25 24 23 22 22 22 23 24 22 20 20 21 22 23
15 16 18 18 17 15 13 12 10 8 7 7 8 12 16 19 20 24 29 30 30 31 31 30 28 27 27 28 28 28 28 27 27 26 25 24 25 26 26 26 26 26 25 25 27 28 27 27 26 25 25 24 23 22 22 22 21 19 17 17 19 20 20
17 20 21 20 18 16 14 13 12 9 8 7 6 8 11 15 19 23 26 28 29 30 30 30 30 29 28 28 28 27 27 27 26 26 26 23 22 25 29 29 28 28 27 25 27 28 28 27 26 24 24 23 22 21 21 20 19 19 17 17 16 15 17
20 22 23 21 19 18 16 14 14 12 10 8 7 7 7 8 11 15 19 23 25 26 27 28 28 27 27 27 27 26 26 27 26 26 27 25 22 23 29 31 30 30 30 29 29 29 28 28 27 27 26 25 22 21 20 20 19 19 18 17 15 14 15
22 22 23 23 21 19 19 17 16 14 12 10 9 8 8 7 7 8 10 12 15 17 18 21 23 24 23 23 25 27 27 27 26 27 28 27 24 23 28 31 30 30 31 31 31 30 30 29 28 27 27 27 25 24 23 21 18 17 17 17 16 15 15

ECMWFFLT1_850_spd_063.txt.gz
Wind_Speed
28 28 32 34 33 33 35 36 39 39 38 38 38 37 36 36 36 35 36 38 38 40 42 40 37 39 42 41 41 41 41 41 40 39 38 37 35 31 29 28 27 26 22 19 18 18 17 17 16 15 15 14 13 13 13 13 13 12 11 11 10 10 9
27 27 30 31 30 31 34 36 37 37 37 37 38 38 37 36 37 36 36 37 38 39 43 41 38 40 42 41 40 41 41 41 41 40 39 38 37 34 31 29 29 28 26 22 19 17 17 18 18 17 16 16 15 14 14 14 14 13 13 12 11 10 10
27 28 30 31 31 33 35 36 36 35 36 37 38 39 39 38 38 37 37 38 38 37 39 42 41 41 41 41 41 41 41 41 41 41 41 40 39 37 34 32 31 30 28 27 23 19 17 19 20 19 18 17 17 16 15 15 15 15 14 13 12 11 11
25 26 29 32 33 34 34 35 36 35 35 37 38 40 41 40 39 38 37 38 38 36 37 41 43 41 41 41 41 41 41 41 41 41 41 40 39 38 35 34 33 32 29 28 27 23 20 18 20 22 21 19 18 17 16 17 16 16 16 14 14 13 12
24 24 26 30 31 29 27 29 32 33 35 36 38 39 41 40 39 38 37 37 38 39 39 41 42 41 42 42 41 42 41 41 41 40 40 39 38 37 36 34 33 33 31 29 27 26 24 21 20 22 22 21 20 18 18 19 17 17 17 15 15 14 13
24 24 25 27 29 27 26 27 29 31 33 36 38 39 39 40 40 39 38 37 37 37 38 40 41 42 43 42 42 42 41 40 40 40 39 39 38 37 36 35 33 33 32 29 27 25 27 26 23 22 23 22 22 20 19 19 19 18 18 17 16 15 14
26 26 26 26 28 27 26 28 31 31 33 34 36 37 38 39 40 39 38 38 37 37 37 39 41 42 43 43 42 42 41 41 40 39 38 38 38 37 37 36 35 33 31 29 27 25 25 28 27 26 25 24 22 21 20 20 20 19 18 19 18 17 16
26 26 27 28 29 26 25 30 32 32 34 33 34 36 37 37 39 39 39 38 38 38 38 38 39 41 44 44 43 43 42 41 40 39 38 37 37 37 36 36 36 35 32 29 27 27 26 27 28 28 27 26 24 23 22 22 22 21 19 20 20 19 18
24 24 26 27 28 29 28 30 31 32 35 35 34 36 37 38 38 39 39 38 38 38 38 38 38 39 43 44 44 44 43 41 40 39 37 36 36 36 35 34 35 35 34 30 27 27 28 27 27 29 29 28 27 26 26 25 25 24 22 21 22 21 20
23 24 25 25 26 27 26 24 26 31 34 35 35 36 37 38 38 38 38 38 38 39 38 38 37 37 40 44 45 44 43 42 41 38 37 35 35 34 32 31 32 33 34 32 28 26 28 28 27 28 29 30 29 29 29 27 27 26 24 24 24 23 22
22 23 23 24 24 25 25 23 24 30 35 37 36 36 36 37 37 37 38 38 38 38 38 37 37 36 38 41 42 42 42 42 40 37 37 36 34 33 32 30 30 31 33 33 30 26 26 28 29 29 30 31 31 31 31 30 28 27 26 25 24 24 24
21 23 23 24 24 23 24 26 28 34 38 39 37 36 36 37 37 36 37 38 38 37 37 37 37 37 37 38 39 40 41 41 40 37 37 37 34 32 32 31 30 30 31 32 31 28 26 27 29 31 32 32 31 31 32 31 29 29 27 25 23 24 23
8 16 20 23 23 22 24 28 31 35 38 38 37 36 36 37 36 36 37 38 36 35 37 37 37 38 38 37 38 40 41 41 40 38 37 37 35 32 31 32 31 30 29 29 30 29 28 27 29 31 33 32 31 31 32 31 30 30 29 27 24 24 24
2 7 12 14 16 20 25 28 29 31 34 35 35 34 34 35 35 35 36 37 37 35 36 38 38 39 38 38 38 40 42 42 41 39 37 36 36 34 32 31 31 30 29 28 28 29 29 28 28 29 32 32 32 32 31 32 31 31 31 30 27 26 26
6 8 10 12 14 17 22 26 28 29 32 33 32 32 32 32 33 33 33 35 36 35 36 38 39 39 39 38 39 41 42 41 40 39 39 37 37 36 34 32 31 31 30 29 28 28 28 28 27 27 29 31 32 32 31 31 32 32 32 31 30 28 28
4 6 7 11 13 14 17 21 25 27 30 31 31 32 32 32 33 33 33 33 34 35 35 37 39 40 39 39 40 41 41 41 40 39 40 39 39 39 37 33 32 31 31 30 29 28 29 29 28 27 27 28 30 32 32 32 32 33 32 31 30 30 29
5 4 5 3 2 5 8 14 19 22 26 29 30 31 31 32 32 33 33 33 34 35 35 37 39 40 41 40 40 40 40 41 42 41 41 41 41 41 40 37 33 32 33 32 30 30 30 29 30 29 27 27 28 30 32 33 33 33 32 31 30 29 29
9 7 8 8 8 7 6 7 13 18 23 26 28 30 31 31 31 32 33 33 34 35 35 36 38 40 41 39 38 40 42 43 43 43 43 43 43 43 43 41 37 34 34 33 32 31 31 30 31 30 28 27 27 28 30 32 33 34 33 31 29 28 28
11 9 9 10 11 12 11 8 9 13 19 23 26 28 30 31 32 32 34 34 34 35 35 36 37 38 39 38 38 41 44 44 45 46 46 45 46 46 45 43 41 38 36 34 33 33 34 33 32 31 31 29 27 27 27 28 31 34 34 32 29 28 27
13 10 11 12 13 13 11 9 10 11 14 19 23 26 28 31 32 32 32 33 33 34 35 36 36 37 38 38 38 41 44 45 45 46 47 47 47 47 46 45 44 42 38 35 35 36 37 36 34 33 34 33 30 27 27 26 28 32 34 33 30 29 28
13 10 10 12 14 14 13 12 13 14 14 15 20 25 27 29 31 31 31 31 33 34 36 36 35 35 37 38 37 40 43 45 45 46 47 47 47 47 47 46 46 45 40 36 37 39 40 38 36 35 36 37 34 30 27 27 27 30 32 33 31 30 29
14 13 13 14 16 16 16 15 15 16 16 17 19 23 26 29 30 31 31 32 33 34 35 36 35 35 37 38 38 40 43 45 45 46 46 47 47 47 47 46 46 46 43 38 35 37 39 39 38 37 37 38 38 35 31 30 30 31 33 33 32 30 29
16 17 17 18 19 19 18 18 18 18 18 19 20 22 26 29 30 31 31 32 33 34 34 36 37 36 37 39 38 39 43 45 45 46 46 46 46 46 46 46 45 45 45 42 38 36 37 39 39 39 38 38 39 39 36 34 34 35 36 36 34 32 30
18 19 20 20 21 22 21 20 20 19 19 19 20 22 25 29 31 32 32 33 33 35 35 37 38 38 39 40 40 40 43 45 45 46 46 46 46 45 45 45 45 45 45 44 42 39 37 37 38 38 38 38 39 40 39 36 36 37 38 37 37 35 32
22 21 20 20 21 23 23 22 22 22 21 19 20 23 25 28 31 33 34 34 34 35 36 38 40 41 42 43 41 40 43 44 44 45 45 45 45 45 45 45 44 44 44 44 44 41 36 34 34 35 36 36 37 38 38 36 35 36 37 37 37 36 34
24 23 20 19 21 23 24 24 24 23 21 20 20 23 25 29 32 34 35 36 35 36 38 39 42 42 42 41 40 40 42 43 43 44 44 44 44 43 43 43 43 43 43 43 42 40 35 32 31 31 33 34 33 33 35 36 36 36 37 37 37 35 33
22 21 18 19 22 23 23 23 22 21 21 20 20 22 25 29 32 35 37 36 36 37 39 39 41 41 39 39 39 39 41 42 41 42 42 41 42 42 42 42 42 42 43 42 39 36 34 32 30 28 29 30 30 30 31 34 35 36 36 37 36 35 33
21 17 14 16 20 21 22 22 21 20 19 19 19 22 26 29 33 36 37 37 38 38 37 37 38 39 39 40 39 38 40 41 39 39 39 38 40 41 41 41 41 41 42 40 37 34 34 34 31 27 26 27 27 28 29 32 34 35 35 36 35 34 33
19 17 14 15 18 19 19 20 20 19 18 17 19 22 25 29 34 37 38 39 39 36 34 35 37 39 39 40 39 37 38 39 38 36 35 35 38 40 40 40 39 39 40 39 36 32 31 32 31 28 25 25 25 26 28 30 33 34 34 34 34 33 32
17 17 14 14 18 18 17 18 18 17 16 17 18 21 25 29 33 37 38 39 37 33 31 34 37 38 39 38 37 37 37 37 36 34 32 33 36 38 38 38 38 37 37 37 35 31 28 28 30 28 25 25 25 24 25 26 29 31 33 33 32 32 32
18 16 14 14 16 15 15 16 14 13 14 16 17 20 23 26 31 36 37 35 34 32 31 34 37 38 37 36 35 36 36 35 34 32 30 30 33 36 35 35 35 35 34 35 34 32 28 27 28 27 26 25 24 23 23 23 23 25 28 28 27 28 30
18 14 13 13 12 12 12 11 9 8 9 11 17 19 21 23 27 32 34 31 30 30 30 32 35 36 35 34 33 33 33 32 31 30 28 27 29 31 33 33 32 33 33 33 33 32 29 27 27 26 25 24 23 23 22 21 21 21 23 24 24 24 26
18 14 13 11 8 9 9 7 2 3 2 3 11 16 19 22 23 25 27 27 27 28 28 30 33 34 32 31 31 30 30 30 29 27 27 26 26 26 28 30 30 30 32 32 31 30 28 27 26 26 25 24 23 22 21 21 21 22 22 25 25 24 23
20 14 12 9 3 5 6 6 2 0 2 3 5 10 15 18 19 21 24 26 27 27 27 28 30 30 29 28 28 27 28 28 28 26 26 26 25 24 24 26 27 27 30 31 30 28 27 27 26 26 25 24 23 21 21 22 23 23 23 25 26 24 23
21 15 12 9 4 1 2 2 1 2 1 2 5 10 12 14 16 20 23 25 27 28 27 26 26 27 26 25 25 25 26 26 27 26 25 25 25 24 24 26 26 25 25 26 27 27 28 26 25 25 24 23 23 22 22 23 23 23 24 26 26 24 22
22 17 12 9 7 6 4 2 1 0 2 3 5 7 8 11 15 19 22 24 26 27 27 25 24 24 24 23 23 23 24 24 25 26 25 24 26 28 28 27 28 27 26 26 27 28 29 28 26 26 25 24 24 24 24 25 25 24 25 26 25 24 23
23 19 14 10 9 9 8 7 5 5 2 5 6 5 5 8 12 15 18 22 24 25 24 23 22 22 21 21 21 22 24 24 24 26 26 24 24 29 31 30 29 29 29 28 28 28 29 29 28 28 26 24 25 26 26 25 24 23 24 25 24 23 22
24 21 17 13 11 11 12 11 10 10 8 6 7 6 6 8 9 9 12 16 20 22 21 20 21 20 19 19 20 21 22 22 22 25 26 24 23 25 29 31 31 31 31 31 30 28 28 28 28 27 26 25 26 27 26 25 24 23 23 24 24 23 22

ECMWFFLT1_850_spd_069.txt.gz
Wind_Speed
40 40 40 41 43 43 44 46 45 44 44 44 44 43 43 43 44 44 44 45 46 46 47 46 45 42 41 40 39 39 38 37 38 37 34 32 30 28 28 28 27 25 23 20 17 15 13 13 13 13 13 13 12 11 11 11 10 10 11 13 13 10 7
39 40 40 41 43 44 45 47 46 44 44 45 45 44 43 44 45 44 45 46 46 47 48 48 47 45 43 41 40 39 39 38 38 38 36 34 32 30 28 28 27 25 23 21 18 16 14 13 13 12 12 13 13 13 12 12 11 10 10 12 14 12 9
40 40 41 42 43 44 45 47 46 44 44 45 46 46 46 46 45 46 46 46 47 47 48 49 48 47 45 43 42 40 40 40 39 39 38 36 34 32 30 28 27 26 24 22 20 18 17 15 15 14 13 12 13 14 13 12 12 12 11 11 13 12 10
40 41 42 42 42 43 45 47 48 45 44 45 47 48 49 47 46 46 46 46 47 47 47 49 49 48 46 45 44 42 41 41 40 40 39 38 37 35 33 31 29 27 26 24 22 21 19 18 17 18 17 15 14 14 14 13 12 12 12 12 12 12 11
40 39 39 40 41 42 44 47 49 48 45 44 46 48 49 47 46 46 47 46 47 46 46 47 48 48 48 47 46 44 43 42 41 41 40 39 38 37 36 34 32 30 28 27 25 23 21 20 19 20 20 19 16 15 15 14 13 13 12 12 12 12 12
37 37 38 39 40 42 44 46 48 50 48 45 44 46 47 46 46 46 47 47 47 46 45 45 47 48 49 48 48 46 44 43 43 42 41 40 40 39 38 36 34 32 31 29 28 26 23 22 21 21 21 22 20 18 16 15 14 14 13 13 12 12 12
38 38 39 41 42 42 43 45 46 48 48 46 44 45 46 47 46 46 47 48 47 47 47 46 47 48 48 49 48 48 47 46 44 44 43 42 41 40 39 38 36 34 33 31 30 28 26 25 24 22 21 22 21 20 18 17 15 15 15 15 14 13 13
42 42 42 42 43 44 43 44 45 46 46 44 42 44 47 48 48 46 47 47 47 47 47 48 47 47 48 48 48 48 48 47 46 45 44 44 43 42 41 39 38 36 34 33 32 31 29 28 27 26 24 23 22 21 20 19 18 17 16 16 16 16 15
44 45 46 46 45 44 44 44 44 44 45 43 42 43 46 48 49 49 48 47 47 47 47 48 47 47 47 46 46 47 48 48 47 47 46 45 45 44 43 41 39 38 37 35 34 33 31 30 29 29 28 27 25 24 22 21 20 19 18 17 17 18 17
44 44 43 46 46 43 43 44 43 43 45 45 43 43 46 48 49 50 49 47 47 48 48 47 47 46 46 46 45 46 47 48 48 48 48 47 46 45 44 43 41 40 39 37 36 35 33 31 30 30 30 30 29 27 25 23 22 21 21 19 18 18 18
43 46 46 45 45 43 41 42 43 43 45 47 47 45 46 47 49 49 50 49 48 48 47 47 46 46 46 45 45 45 46 48 49 49 50 48 47 46 45 44 43 42 40 39 38 37 35 34 32 32 32 32 31 30 28 26 24 23 23 22 21 19 18
46 44 47 47 46 46 44 44 46 47 47 48 49 48 47 48 49 49 49 50 49 48 47 45 44 44 44 43 44 45 46 47 49 50 51 50 48 46 45 45 44 43 42 41 40 38 37 36 35 34 33 33 32 31 30 28 27 25 24 24 23 22 20
51 44 44 48 48 47 46 45 47 48 49 50 50 50 49 49 49 50 50 51 50 49 48 46 44 42 41 41 42 44 46 47 48 50 51 50 49 47 46 46 45 44 43 41 41 40 39 38 37 36 34 34 33 32 31 30 29 28 26 25 25 24 23
35 40 41 44 44 44 45 46 48 48 48 48 49 50 51 50 49 49 50 51 51 50 49 47 45 43 42 41 42 43 45 46 47 49 50 50 48 48 47 46 45 45 43 42 41 41 40 40 38 37 35 34 34 33 32 31 31 30 29 28 27 26 25
26 22 20 17 12 16 26 33 38 43 45 47 47 47 48 49 49 49 49 49 49 49 48 47 46 45 43 42 43 43 43 44 46 48 49 49 48 48 48 47 46 45 44 43 42 41 41 41 40 38 37 35 34 33 33 33 32 32 31 30 29 28 27
35 32 30 32 30 20 9 11 19 26 32 38 43 44 44 45 47 48 48 48 48 47 47 45 45 45 44 44 45 43 41 42 44 47 48 49 48 48 48 47 46 45 45 44 43 41 41 41 41 40 38 37 35 34 34 34 33 33 32 31 30 30 29
33 31 28 29 31 28 23 14 6 10 15 22 30 37 40 41 43 45 44 43 44 44 44 43 43 44 44 44 44 44 42 42 43 46 47 49 49 48 47 47 46 45 45 44 43 41 40 40 41 41 40 38 37 36 35 34 33 32 32 32 31 31 30
32 31 29 27 27 26 27 26 17 6 4 12 19 25 30 33 35 38 39 39 39 40 40 40 41 43 45 44 42 42 43 43 43 45 47 49 50 49 47 47 46 46 45 45 44 42 40 39 40 41 41 39 38 37 35 34 32 30 30 31 31 31 31
31 31 28 27 25 20 18 24 24 17 8 3 11 16 22 29 31 32 35 35 34 34 36 37 37 37 39 42 41 42 44 44 43 45 47 48 50 50 48 47 47 46 46 45 44 43 41 40 39 40 41 40 39 37 35 33 31 29 29 29 29 29 29
30 30 28 26 24 17 13 18 20 17 16 13 9 10 16 25 31 32 33 34 33 34 37 39 37 35 34 34 35 37 42 45 45 45 47 48 48 49 49 49 48 48 47 46 45 44 43 41 39 39 40 41 39 37 36 34 31 29 27 27 26 27 28
29 29 28 26 24 18 13 13 14 11 12 16 15 10 9 17 26 29 30 32 33 35 39 41 41 39 39 38 36 36 40 45 47 47 46 47 48 48 49 49 49 49 48 47 46 45 44 43 41 39 39 40 40 38 36 35 33 29 27 25 24 24 25
28 28 28 27 26 23 18 15 12 7 5 8 10 10 9 7 14 20 24 29 32 33 36 40 41 41 44 46 45 43 43 46 49 48 47 48 48 49 50 51 50 50 49 48 47 46 45 44 43 41 39 39 40 39 37 36 33 31 28 25 23 22 22
27 29 29 28 27 24 21 18 15 11 8 6 4 6 9 7 8 13 20 27 30 31 34 39 42 42 45 48 50 48 44 45 50 50 48 48 49 50 51 52 51 51 50 49 48 47 47 46 44 43 41 39 41 41 39 36 34 32 30 27 25 23 22
27 29 30 30 29 27 23 20 18 14 12 10 7 5 7 9 10 11 16 21 26 30 34 38 41 42 45 48 50 50 47 45 49 51 49 49 50 51 52 52 52 52 51 50 49 48 48 47 45 44 43 41 40 41 41 39 36 33 31 29 27 26 25
28 29 30 30 29 29 27 23 20 17 13 11 9 7 7 10 12 13 15 18 22 28 33 37 39 40 44 49 50 50 48 46 47 51 52 51 51 52 52 52 51 51 51 51 50 48 47 46 45 45 44 43 41 40 41 41 40 36 33 30 29 28 27
28 29 31 32 30 29 29 25 22 19 16 12 10 9 8 11 14 17 18 19 22 28 33 37 39 39 43 47 47 48 48 46 47 51 53 52 52 51 51 51 51 50 51 51 50 47 46 46 46 45 45 44 43 41 40 41 41 40 37 33 31 30 29
26 26 28 30 30 29 29 27 24 21 18 15 13 12 11 12 17 20 20 21 25 31 35 37 38 38 40 42 44 47 47 46 47 52 54 53 51 51 51 51 50 50 50 51 50 48 46 45 45 45 44 44 43 42 41 40 40 40 40 39 36 34 32
27 26 27 29 29 29 29 28 26 23 20 17 16 16 15 16 20 22 22 24 26 30 35 36 37 39 40 40 41 44 47 47 48 52 54 52 51 51 51 51 50 49 49 50 50 49 48 46 44 44 43 43 43 42 42 41 39 38 39 40 40 39 38
26 27 27 28 29 29 29 28 27 25 22 19 18 18 17 18 21 24 26 28 28 28 32 35 37 39 41 42 42 43 45 48 49 52 53 52 51 51 51 50 49 49 48 49 49 50 49 47 45 43 43 42 42 42 41 40 39 38 37 37 38 39 40
24 25 26 28 28 28 29 29 29 28 25 22 18 17 16 18 22 26 29 31 30 28 30 33 37 39 42 44 45 44 45 47 49 51 52 51 50 50 49 49 49 48 48 48 49 50 50 48 47 44 43 42 42 41 40 39 38 37 36 34 34 34 35
22 23 24 26 26 26 27 28 29 29 28 25 20 16 16 19 23 26 30 32 33 32 31 32 35 40 44 46 47 47 47 48 50 51 52 51 50 49 48 48 48 48 49 48 48 49 50 50 48 46 44 43 42 41 40 38 36 35 34 32 31 31 31
22 21 22 23 24 25 25 25 26 28 28 27 23 18 17 20 22 24 29 32 34 34 33 31 34 39 45 49 50 49 48 49 51 52 52 51 50 49 48 48 49 49 48 48 48 49 50 50 49 48 46 45 43 42 40 37 36 35 33 32 31 30 29
21 20 20 22 24 24 23 22 23 24 27 28 25 20 19 21 22 23 27 30 32 35 34 32 33 38 44 49 52 51 50 51 52 52 52 50 48 48 47 47 48 48 48 48 49 50 50 50 49 49 48 47 44 42 40 38 37 36 35 33 33 31 30
21 20 19 21 23 24 22 21 21 22 26 29 28 24 22 24 25 25 26 27 29 32 33 32 33 37 42 48 51 52 52 54 54 52 51 49 47 46 46 46 47 47 49 50 50 50 51 51 51 51 51 50 47 44 42 41 40 40 39 37 35 34 32
21 19 20 21 23 24 23 21 22 24 26 27 28 27 25 26 27 27 26 25 24 25 29 31 33 37 41 47 51 52 53 54 54 52 50 48 46 44 43 44 45 45 46 48 49 50 50 51 52 52 51 51 49 47 46 45 44 43 42 39 37 35 33
20 18 20 23 24 23 22 21 23 26 26 24 23 24 26 28 28 27 27 25 22 20 24 30 33 36 41 48 52 54 54 53 52 51 49 47 45 44 43 43 42 43 44 45 46 47 48 49 49 50 50 49 49 48 47 44 41 40 40 39 37 36 34
19 17 20 24 25 23 22 22 25 27 25 22 20 21 24 27 27 27 27 27 23 17 20 30 36 39 44 51 53 53 54 53 50 49 47 45 43 44 44 43 43 43 43 43 44 45 46 47 46 46 47 47 46 46 45 42 40 39 40 39 37 36 34
18 16 18 23 24 24 24 24 27 27 24 21 18 16 16 20 24 27 29 30 26 18 16 27 37 41 44 48 50 49 49 49 47 45 45 43 42 43 44 43 44 44 43 43 43 44 44 45 45 45 45 45 44 43 43 42 40 39 38 37 35 34 32

ECMWFFLT1_850_spd_072.txt.gz
Wind_Speed
37 39 41 44 45 47 49 51 50 49 50 50 50 50 51 51 51 50 50 48 47 46 45 45 44 41 40 40 41 40 38 37 36 35 34 31 30 28 28 29 27 25 24 24 22 20 19 17 16 16 15 15 14 14 13 13 14 13 12 12 11 10 10
36 38 40 43 45 47 49 50 50 49 50 51 51 51 51 52 52 52 51 49 47 46 46 46 45 44 42 41 41 41 40 39 39 38 36 33 31 29 28 28 27 25 24 23 22 21 19 17 17 16 16 16 15 15 15 15 15 14 14 13 12 11 11
37 38 41 44 46 48 49 50 50 50 50 51 52 52 53 53 53 53 52 51 49 46 46 46 46 46 44 42 42 43 42 41 41 40 39 36 33 31 29 27 26 24 23 22 21 20 19 18 17 17 17 17 17 17 16 15 15 15 14 14 13 12 11
40 41 43 44 45 46 48 49 51 51 50 51 52 53 54 54 53 53 52 51 50 48 47 47 47 47 46 44 43 43 44 43 43 43 41 38 35 33 31 30 27 26 24 23 21 20 20 19 18 17 17 18 18 18 17 16 16 15 15 15 15 14 13
41 42 41 41 43 43 45 48 50 51 51 51 51 52 53 53 53 52 52 51 50 49 47 46 46 46 47 46 45 44 44 44 44 44 44 41 38 36 35 33 31 29 27 25 23 22 21 20 19 18 18 18 18 19 18 16 16 16 16 16 16 16 15
38 40 40 41 43 44 46 49 51 53 53 51 51 51 52 52 52 52 52 52 51 49 47 45 45 46 47 48 47 46 45 45 45 45 45 43 41 39 38 36 34 32 30 27 26 25 23 22 21 20 20 19 19 19 19 18 17 16 16 17 16 17 16
39 40 42 43 43 45 47 49 51 52 53 52 51 50 51 51 52 52 52 51 51 50 49 47 46 46 47 48 48 48 47 46 46 45 45 45 43 42 40 39 37 35 33 31 29 28 26 25 24 23 22 21 21 20 20 20 19 18 18 18 17 17 17
42 44 44 43 43 45 47 49 50 50 51 50 49 50 50 51 51 51 51 52 51 51 50 49 47 46 46 47 48 49 49 47 46 46 46 46 45 44 42 41 39 38 36 35 33 31 30 28 27 26 25 24 23 22 22 21 21 20 19 19 18 17 17
44 46 47 46 44 45 46 48 49 49 49 49 49 50 51 51 51 51 51 52 51 51 51 50 47 46 45 45 47 49 49 49 48 47 47 47 46 45 44 42 41 39 38 37 36 34 33 31 30 29 28 27 25 24 23 23 22 22 22 21 21 20 19
42 45 45 45 44 43 44 46 46 47 48 48 49 50 51 51 51 51 51 51 51 52 51 50 48 47 46 45 44 46 48 50 50 49 49 48 48 47 45 44 42 41 40 39 38 37 35 34 32 31 30 30 29 27 26 25 24 23 23 23 23 22 21
32 37 38 39 40 39 40 42 44 47 49 50 49 49 51 51 50 50 50 51 51 51 51 50 49 48 48 46 44 44 46 48 50 50 50 50 49 48 47 46 44 43 42 40 40 39 37 36 35 34 33 32 31 30 29 27 26 25 24 24 24 23 23
26 28 32 36 39 40 41 43 46 48 50 50 50 48 49 50 50 50 50 50 51 50 50 49 49 48 48 48 47 46 45 47 48 50 51 51 50 49 48 47 47 45 44 42 41 40 39 38 37 36 35 34 33 32 31 30 29 28 26 25 25 25 24
13 12 14 19 24 29 33 37 42 46 49 51 51 50 48 49 50 50 50 49 49 49 49 49 48 48 48 47 48 48 47 46 47 48 49 51 50 50 49 48 48 48 47 45 43 42 41 40 39 38 37 35 34 34 33 32 32 31 29 28 28 27 26
26 23 19 14 10 7 11 18 25 32 38 44 48 49 49 49 49 49 49 49 48 48 48 48 48 47 47 47 47 48 48 47 46 46 46 47 49 50 50 49 49 49 48 47 46 45 43 42 40 39 38 37 36 35 34 34 34 33 32 31 30 30 28
35 35 32 29 28 23 16 8 8 14 21 28 34 40 43 45 47 48 47 47 47 47 46 46 47 46 46 47 47 47 47 46 46 46 45 45 47 48 49 50 49 49 49 49 49 47 45 44 42 41 40 39 38 37 36 36 36 35 34 33 32 31 31
32 35 33 32 31 29 27 23 14 7 10 15 20 27 32 36 40 43 46 46 45 45 45 44 45 46 45 46 47 46 46 46 45 45 45 45 46 47 48 49 49 49 49 49 49 49 47 46 45 44 42 41 39 39 38 38 37 36 35 33 32 32 32
31 33 32 30 29 28 29 29 23 15 8 9 13 17 21 27 31 34 38 42 43 43 44 43 43 44 45 45 46 45 45 45 45 44 44 44 45 45 46 47 48 49 49 49 49 49 48 47 47 45 44 43 42 41 40 40 39 37 35 34 33 32 32
30 32 32 30 28 27 26 26 24 20 14 6 8 12 12 16 24 29 30 33 39 42 42 43 43 43 44 44 44 44 45 45 44 44 44 43 43 43 43 44 47 48 48 49 49 49 49 48 48 47 45 44 43 43 42 41 40 38 36 35 33 33 33
28 29 30 28 26 25 24 22 21 20 18 12 7 8 11 10 16 27 31 30 33 38 40 42 43 43 44 43 43 45 46 45 44 44 43 43 42 40 40 41 45 47 48 49 49 49 49 49 48 47 46 45 45 44 43 42 41 39 38 36 34 33 34
30 30 29 26 24 23 21 19 16 15 14 13 10 4 6 10 11 20 32 33 31 34 38 41 42 42 43 44 45 47 46 44 44 44 44 43 42 40 39 39 41 44 47 48 48 48 49 49 49 48 47 46 45 44 44 43 42 40 39 38 36 34 34
31 31 30 29 26 23 21 18 13 11 10 7 7 14 6 6 9 14 26 32 32 34 37 40 42 43 44 46 47 48 47 46 46 45 45 44 43 42 41 40 39 41 44 47 48 48 49 49 50 49 48 47 45 45 44 43 41 40 40 38 36 34 33
27 29 29 29 28 26 23 20 13 8 7 5 7 14 12 4 6 10 17 24 28 32 35 38 41 43 45 47 48 48 47 47 48 48 47 45 45 45 44 43 41 40 41 44 46 47 48 49 50 50 49 47 46 45 44 42 41 40 40 38 36 34 33
24 26 27 26 27 26 22 20 16 10 8 9 9 11 10 3 5 6 9 18 24 28 31 34 39 42 44 46 47 47 46 46 47 49 49 47 46 46 45 45 43 41 40 42 45 46 48 49 49 50 49 48 47 45 44 42 40 40 39 38 36 34 33
23 24 25 26 27 27 24 21 19 14 9 10 9 10 11 9 9 6 4 11 18 24 28 31 36 40 43 44 45 46 45 45 47 48 49 48 48 47 46 45 44 43 42 42 43 44 46 48 48 49 49 49 48 46 44 42 40 39 38 37 37 36 34
22 22 23 25 25 27 27 25 21 17 14 12 9 8 11 10 9 9 5 4 9 16 23 29 33 37 42 44 44 45 46 46 47 48 48 49 49 48 47 46 45 44 43 42 42 43 44 46 47 48 49 49 48 47 45 43 41 39 38 37 37 37 35
23 20 21 23 24 24 26 26 24 21 20 18 12 10 11 10 10 12 11 8 8 11 17 24 30 33 37 41 43 45 47 48 49 48 47 48 49 48 46 46 46 45 44 43 43 42 43 45 47 48 48 48 48 47 46 44 42 41 39 38 38 38 36
23 19 18 20 22 23 25 26 25 24 23 23 19 13 12 12 13 15 15 13 13 13 14 17 22 25 28 33 38 43 46 49 50 49 47 47 47 46 45 45 45 46 46 45 44 43 43 44 46 47 48 48 48 47 47 46 44 42 40 39 39 39 37
25 20 17 17 19 22 25 26 26 27 27 27 23 17 13 13 15 17 19 19 19 17 16 16 18 20 22 26 32 37 41 45 47 48 47 46 45 45 44 44 44 45 46 45 45 44 44 44 46 47 47 47 47 47 48 47 46 44 42 40 40 40 40
26 24 20 18 18 20 24 26 27 28 30 30 28 21 15 14 16 18 22 24 23 21 20 20 19 20 21 24 27 32 36 41 43 44 44 45 46 46 45 44 44 45 46 46 45 45 44 45 46 46 47 46 47 48 48 48 47 46 44 42 41 41 42
26 26 22 19 17 18 20 23 25 26 28 30 30 25 19 16 18 20 22 24 24 23 22 22 22 23 24 25 27 30 33 37 41 42 42 43 45 46 46 45 44 44 45 46 46 45 45 45 46 47 47 47 47 48 48 48 48 47 46 45 44 43 43
25 27 23 19 18 16 16 20 23 24 25 27 29 29 24 19 20 23 24 24 24 23 23 24 25 26 27 28 29 31 32 34 38 41 42 41 42 44 45 45 45 44 45 46 46 46 46 46 46 47 47 47 48 48 49 48 48 48 48 47 46 45 44
25 26 23 19 18 17 16 17 20 21 23 24 26 29 28 23 21 24 26 26 25 25 25 26 27 29 29 30 31 32 33 33 35 39 41 42 42 43 43 44 46 46 46 47 47 48 48 47 47 47 48 49 49 50 49 48 48 48 49 48 47 47 45
25 25 23 19 18 18 17 18 19 20 22 24 25 28 30 28 23 22 25 27 27 27 27 28 30 31 30 30 31 32 33 33 34 37 41 43 43 43 44 45 46 47 47 48 49 49 49 48 48 48 49 50 50 50 48 47 47 48 49 50 49 48 46
25 24 22 19 18 18 18 19 19 20 22 24 26 27 30 32 29 26 25 27 28 29 30 30 31 32 31 30 31 32 33 34 34 36 41 44 44 44 45 46 46 47 48 49 50 50 50 50 50 49 50 50 50 49 47 47 48 49 51 51 50 48 46
24 22 21 20 18 17 19 19 19 19 21 23 25 27 28 31 33 30 27 27 29 31 32 33 33 34 32 30 30 31 32 33 33 35 41 45 45 45 46 47 47 47 48 49 49 50 51 51 51 50 49 49 49 49 49 50 51 52 52 52 50 48 46
23 20 20 20 19 17 17 18 17 18 19 21 22 24 25 28 30 30 29 29 31 33 35 35 34 34 34 32 30 30 31 32 33 35 40 44 45 45 46 47 47 47 48 48 49 50 51 51 50 47 45 46 48 49 51 52 53 52 51 50 49 48 45
22 20 20 21 20 17 17 17 17 17 18 20 21 21 22 24 26 28 29 30 31 33 35 36 35 35 35 33 31 30 29 30 32 36 40 44 45 45 46 47 48 47 48 48 49 50 50 50 48 46 44 45 46 47 49 51 51 50 50 49 49 48 46
22 20 20 20 20 18 17 18 18 18 18 20 22 22 22 22 23 25 28 30 32 34 36 36 36 36 35 34 32 31 29 27 30 36 41 43 45 46 46 47 48 49 50 50 50 49 49 48 46 44 44 44 44 45 47 48 49 49 50 49 48 47 45

ECMWFFLT1_850_spd_075.txt.gz
Wind_Speed
36 38 40 41 42 44 44 45 46 46 47 49 51 52 52 51 51 50 48 46 43 41 39 39 39 38 37 37 36 36 35 34 33 34 34 34 32 30 27 25 25 24 24 24 23 21 19 18 18 18 17 17 16 14 14 14 14 14 14 13 12 11 9
36 39 40 42 43 45 46 46 46 47 48 49 51 52 52 52 52 52 50 48 45 43 41 40 40 40 39 37 37 37 36 36 35 34 34 35 34 32 29 27 25 25 24 25 24 22 21 20 20 19 18 17 16 15 14 14 14 14 14 13 12 12 11
39 41 42 44 46 46 47 47 47 47 48 49 51 52 53 53 53 53 52 50 47 44 42 41 41 41 40 39 38 37 38 37 37 36 35 35 35 33 31 29 27 26 25 25 25 23 22 21 21 20 19 17 16 15 15 15 15 14 14 13 13 12 12
39 43 45 46 47 46 46 47 48 48 48 49 51 53 53 53 53 53 52 50 48 46 45 43 42 41 41 41 40 39 39 39 39 38 37 36 35 34 33 31 29 27 27 26 25 24 23 22 22 21 20 19 18 17 16 16 16 15 15 15 14 13 12
38 40 41 42 44 46 48 49 49 50 49 50 50 52 53 52 52 52 52 51 49 47 45 44 42 42 42 42 41 40 39 40 40 40 39 38 36 35 34 33 30 28 27 26 25 25 24 23 22 21 20 20 19 19 18 18 17 16 16 16 15 14 13
36 37 39 42 43 46 49 50 50 51 51 50 50 50 51 51 52 52 52 52 51 48 46 45 43 43 43 42 42 41 40 40 41 41 40 39 38 37 35 34 32 30 28 27 26 25 24 23 22 21 20 20 19 19 20 19 19 18 18 18 17 16 15
35 38 40 43 45 46 48 49 50 50 51 49 48 48 49 51 52 52 52 52 51 50 49 48 46 44 44 43 41 41 41 41 40 41 42 41 40 39 37 35 34 32 29 28 27 25 24 24 23 22 21 20 20 19 20 20 19 19 19 19 18 18 18
36 41 43 43 45 45 46 48 49 49 49 48 47 47 48 50 51 51 51 52 51 51 51 50 48 46 45 43 42 41 41 41 40 41 42 42 42 41 40 38 36 34 32 31 29 27 26 25 24 23 23 22 21 20 20 20 20 20 19 19 19 18 18
33 37 43 44 44 45 45 47 48 48 48 49 48 48 48 49 51 51 52 52 51 51 51 50 49 47 45 44 43 41 41 41 41 41 42 43 44 44 42 41 39 37 36 34 32 31 29 27 26 25 24 24 23 22 21 21 20 21 21 20 19 19 18
25 26 29 32 34 37 39 42 44 45 47 48 48 48 48 49 50 51 51 51 51 51 51 51 49 48 46 45 43 41 41 41 41 41 42 43 45 46 44 43 42 41 39 37 36 34 32 30 29 28 27 26 26 25 24 23 22 22 22 21 21 20 20
4 11 15 18 21 25 30 35 39 44 47 49 50 49 49 49 49 50 51 51 52 52 51 50 50 49 48 46 44 42 41 41 41 42 42 43 45 46 46 46 45 44 43 41 40 38 36 34 33 31 30 30 29 28 28 26 25 24 23 22 22 22 22
26 17 9 7 12 17 21 26 32 37 41 44 48 49 48 48 49 49 50 51 51 51 51 50 50 49 48 47 46 44 42 41 41 42 42 43 44 45 46 47 47 47 46 45 43 42 40 38 37 35 34 33 32 31 30 29 28 27 26 25 24 23 23
36 33 27 20 12 9 11 16 22 28 32 34 38 41 42 44 45 46 48 49 50 50 50 50 49 49 48 48 47 46 44 42 41 40 40 41 42 44 45 46 47 47 47 47 46 45 44 42 41 39 38 36 35 34 33 32 32 30 29 27 26 26 25
39 38 35 31 25 18 11 9 13 20 26 30 32 34 36 38 40 42 44 45 47 48 48 49 49 48 48 48 48 47 45 43 41 39 38 38 39 41 43 45 46 46 47 47 48 47 46 45 43 42 40 39 38 37 36 35 35 33 32 30 29 28 27
42 41 38 35 32 27 22 16 10 11 18 25 29 32 35 36 37 38 40 42 44 45 46 47 47 48 48 48 48 47 45 44 42 41 39 37 37 38 40 42 45 46 46 47 47 47 47 46 45 44 43 41 40 39 38 37 37 36 34 32 31 29 29
39 41 38 35 33 31 27 23 17 12 11 16 22 28 32 34 36 37 38 39 40 42 44 45 45 47 48 48 48 47 46 44 43 42 41 40 38 37 37 38 41 43 46 47 47 47 47 47 47 47 46 44 42 41 40 39 38 37 35 34 32 31 30
35 38 38 35 33 32 29 26 21 16 11 9 12 19 25 29 32 34 36 38 39 40 42 43 44 46 47 48 48 47 46 45 44 43 42 41 39 38 37 37 38 39 42 45 46 47 47 48 48 48 48 47 46 44 42 41 39 38 36 35 34 33 32
33 36 36 35 34 33 31 27 23 21 17 12 7 8 16 23 26 28 31 34 36 38 39 42 44 45 46 47 47 47 46 46 45 44 43 41 40 38 38 37 38 38 39 41 43 45 46 48 48 49 48 48 48 47 45 44 41 39 38 36 35 34 34
29 31 32 33 33 33 31 28 23 21 21 17 11 7 7 14 20 24 27 30 33 34 35 37 40 43 45 46 46 47 47 46 45 44 43 42 40 38 38 38 38 39 39 40 41 42 44 46 47 48 48 48 48 48 47 45 42 41 39 38 37 36 36
26 27 27 28 29 30 30 28 23 19 18 18 14 9 5 8 15 20 25 28 30 33 35 34 33 36 41 44 45 46 45 45 45 45 43 42 41 40 39 39 38 38 38 39 39 41 43 44 45 46 46 47 47 47 46 45 42 41 40 39 38 37 37
26 25 25 24 25 26 27 28 26 21 18 18 14 10 7 2 7 14 20 26 28 30 34 36 34 34 36 40 43 44 44 45 45 44 44 42 42 41 40 39 39 38 37 38 38 39 40 41 42 44 44 45 45 46 46 44 42 40 40 39 38 38 38
25 24 24 23 23 23 24 24 25 24 21 18 14 9 8 6 1 5 13 21 25 26 30 33 35 36 36 38 41 43 44 44 45 44 44 43 43 42 41 40 39 38 38 38 38 38 38 38 39 41 42 43 43 45 45 43 41 40 39 38 38 38 39
23 21 21 22 22 22 21 22 23 24 22 20 16 13 11 7 4 2 3 11 18 22 25 28 31 34 34 36 40 43 43 43 44 44 44 44 44 44 42 41 40 39 38 39 39 39 39 37 37 37 39 41 42 43 43 42 40 39 38 37 37 38 39
22 20 19 20 22 22 21 21 22 23 25 23 21 19 15 10 5 4 3 2 10 15 18 21 25 29 31 34 38 42 43 43 44 44 44 45 45 44 43 42 41 40 40 40 40 40 39 38 36 35 36 37 39 41 42 41 39 38 37 37 37 38 40
21 19 17 17 20 21 21 21 21 22 24 25 24 22 19 12 7 6 6 3 4 8 10 12 15 20 27 33 37 40 41 41 42 43 44 45 45 45 44 43 42 42 41 41 41 40 39 39 38 37 36 35 36 37 40 40 39 38 38 37 37 38 39
20 19 17 17 19 21 21 20 21 21 22 25 26 25 22 17 11 10 10 8 6 4 4 5 6 10 16 25 32 37 39 40 41 42 43 45 45 45 44 43 43 42 42 42 42 41 40 40 40 40 39 37 36 36 37 39 39 38 38 37 37 38 38
19 18 17 17 18 20 21 20 20 20 20 24 27 27 24 21 17 14 14 13 11 9 6 5 6 7 9 13 18 25 31 35 38 41 43 44 44 44 44 44 43 43 43 42 42 42 42 41 41 41 40 39 38 37 37 37 37 38 38 38 38 38 38
20 18 18 16 15 17 20 20 19 19 18 21 24 26 26 25 23 19 17 16 15 14 12 11 11 11 11 10 11 14 18 22 27 31 36 40 43 45 45 44 44 44 43 43 43 43 42 42 42 42 42 41 40 40 39 38 37 37 38 38 38 38 38
21 20 20 18 16 16 19 21 19 18 17 19 21 23 24 26 27 25 20 17 16 18 18 17 17 17 16 15 14 14 14 15 17 19 23 29 35 40 44 44 44 44 44 43 43 43 43 43 43 43 43 42 42 41 41 40 39 38 38 38 38 38 38
21 21 20 20 18 17 18 21 21 19 17 17 19 21 21 23 26 27 26 22 19 20 22 22 21 21 20 20 19 19 18 17 16 17 18 21 24 30 37 41 43 44 44 44 44 44 44 44 44 44 44 44 43 42 41 41 40 40 39 38 38 38 39
19 20 20 20 20 18 18 19 21 21 19 17 18 20 21 21 23 26 28 26 23 22 23 24 24 23 24 24 24 23 22 21 19 19 20 20 21 24 29 35 39 42 43 44 44 44 45 45 45 45 45 44 44 43 42 42 41 40 39 39 39 39 39
17 18 20 22 21 19 18 18 19 21 21 18 16 18 20 20 21 23 25 26 25 24 23 23 24 25 25 26 27 26 25 24 23 22 22 23 23 24 26 30 35 39 42 43 44 45 45 46 46 45 45 45 44 44 43 43 42 42 41 40 40 40 40
18 17 19 21 20 19 18 17 17 19 21 20 17 17 18 19 20 21 23 25 27 26 25 24 25 26 27 27 27 27 26 24 23 23 24 24 25 26 27 29 33 38 41 43 44 45 45 46 46 46 47 46 45 44 44 43 43 43 43 42 42 41 41
19 19 19 19 19 18 18 17 16 16 18 19 18 17 18 19 19 20 22 24 27 28 27 26 26 27 28 28 27 27 26 25 24 24 24 25 25 27 29 30 32 37 40 42 43 44 45 46 46 46 47 46 45 44 44 43 44 44 44 43 42 41 41
20 21 21 19 18 18 18 17 16 14 15 16 17 18 18 19 19 20 21 23 26 27 28 28 28 28 29 28 28 28 26 24 23 23 24 25 25 27 30 31 32 35 38 39 40 41 42 43 43 42 43 44 45 44 43 43 41 40 40 40 40 40 41
21 22 23 21 18 18 19 17 16 15 14 14 15 17 18 18 19 20 20 22 24 26 28 29 29 30 30 28 27 27 27 25 23 23 24 25 25 27 29 31 32 33 36 38 38 39 39 40 39 38 38 41 43 42 40 38 35 34 35 38 39 40 40
23 22 23 22 19 19 20 18 17 16 14 13 13 15 17 18 19 20 20 21 22 25 27 29 30 31 31 29 27 26 26 25 23 21 22 23 24 26 27 29 31 33 35 37 38 38 39 40 39 38 39 41 42 41 39 37 36 36 38 40 39 40 40
24 21 22 22 20 20 21 20 18 17 15 13 13 14 16 18 19 20 20 21 21 23 25 26 28 29 29 29 27 25 24 23 21 19 19 20 22 24 25 26 29 32 34 37 39 40 41 41 41 41 41 42 42 42 41 40 39 39 40 40 39 39 39

ECMWFFLT1_850_spd_078.txt.gz
Wind_Speed
34 37 39 42 43 44 45 45 45 45 45 46 46 46 46 46 46 46 45 44 43 40 37 35 34 33 33 32 31 32 32 32 31 30 29 28 27 27 26 24 21 20 20 20 19 18 16 16 15 15 14 14 14 13 13 12 11 11 12 13 12 10 9
31 36 38 41 43 44 45 46 45 46 46 46 47 47 47 47 47 47 46 45 44 42 39 36 35 33 33 32 31 31 32 33 32 31 30 29 28 28 27 25 23 21 20 20 19 18 17 17 17 15 15 14 14 13 13 13 12 11 12 13 13 12 11
33 36 38 41 43 45 46 46 46 47 46 47 47 47 48 48 48 47 46 46 45 43 41 38 36 34 33 32 32 31 32 32 33 32 31 30 29 28 27 26 25 23 21 21 20 19 19 18 18 16 16 15 14 14 14 13 13 12 12 12 12 12 12
32 36 37 40 41 42 44 45 47 47 47 48 48 48 49 49 48 47 46 46 45 44 43 40 38 36 34 33 33 32 32 32 33 33 32 30 29 29 28 27 26 25 24 22 22 21 20 20 19 18 17 16 15 15 15 14 14 13 13 13 13 12 12
24 34 35 38 40 41 43 45 46 48 48 48 48 48 49 48 48 47 47 46 45 44 43 40 38 37 36 35 33 32 32 32 33 33 32 32 30 30 29 28 27 26 26 24 23 22 22 21 21 20 19 18 17 17 16 15 14 14 13 13 13 12 11
18 30 36 38 40 42 44 45 46 47 47 47 47 47 48 48 48 48 47 47 46 45 44 42 40 38 37 36 35 34 33 32 32 32 32 32 32 32 31 29 27 27 26 25 24 23 22 22 22 22 21 19 19 18 17 16 15 15 14 14 14 13 12
15 27 36 38 41 42 43 44 45 45 45 46 46 46 46 47 48 49 48 48 47 46 45 44 43 41 39 37 36 35 34 33 32 32 32 32 33 33 33 31 29 27 26 26 26 24 23 23 23 23 22 20 20 19 18 17 16 16 16 15 15 14 13
16 16 31 35 36 37 38 40 41 42 42 43 44 44 45 47 47 48 49 48 48 47 47 46 44 43 41 39 38 36 35 34 33 32 32 32 33 34 34 33 32 29 28 27 27 25 24 23 24 24 23 22 21 20 19 18 17 17 17 16 16 15 15
28 9 12 24 28 28 30 33 35 36 38 40 42 43 44 46 47 48 49 48 48 48 47 46 45 43 42 40 39 37 35 34 33 33 33 33 33 35 36 35 34 32 30 29 28 27 25 23 23 24 24 23 22 21 20 18 17 17 17 16 16 16 16
36 28 13 4 14 20 23 27 30 32 35 37 39 41 43 44 46 47 48 48 48 48 47 46 45 44 43 42 40 38 37 36 35 34 34 34 34 34 36 36 36 35 33 31 30 29 27 25 24 24 24 24 24 23 21 20 19 18 17 16 16 16 17
38 36 29 19 9 10 15 20 26 29 33 35 36 38 39 41 43 44 46 47 47 48 47 46 46 45 44 43 42 40 39 38 37 36 35 34 34 34 35 36 37 37 35 34 33 31 29 28 27 26 26 26 25 24 23 22 21 20 19 18 17 17 18
39 40 36 30 22 13 9 14 19 24 29 33 35 36 36 38 40 41 43 44 45 46 46 46 45 45 45 44 43 42 41 40 39 38 36 35 34 34 34 35 37 37 37 36 35 33 32 31 30 29 29 28 27 26 26 24 23 23 22 21 20 19 19
37 41 40 35 31 23 16 10 11 16 22 27 32 34 36 37 39 39 41 42 44 44 45 45 45 45 45 44 44 43 42 41 40 39 37 35 34 33 33 34 36 37 38 38 37 36 35 33 33 32 31 31 30 29 29 28 27 26 25 24 23 22 22
39 41 40 38 36 31 26 19 11 9 13 19 24 29 32 34 37 38 40 42 43 43 44 44 44 44 44 44 44 44 43 42 41 39 37 36 34 33 33 33 34 36 38 39 39 39 38 36 35 34 33 33 32 32 32 31 31 30 28 27 26 25 25
39 40 39 38 36 34 32 27 20 12 8 10 16 21 25 28 31 34 37 40 41 42 43 43 43 44 44 44 44 44 43 41 41 40 38 37 36 35 33 33 33 34 36 38 39 40 40 39 38 37 36 35 34 34 34 34 34 33 32 30 29 29 28
34 36 36 36 35 34 33 31 26 19 12 7 8 13 18 21 25 29 34 37 39 40 42 42 43 43 43 44 44 43 42 42 41 40 40 39 38 37 35 34 33 33 34 36 38 39 40 40 40 40 40 39 37 37 37 37 36 35 34 33 32 32 31
32 32 31 33 33 32 32 32 29 24 17 11 7 5 9 15 21 25 29 33 37 40 40 41 42 43 43 44 43 42 42 42 41 41 41 40 39 38 37 36 35 34 33 34 35 36 38 39 40 41 41 41 40 39 39 39 37 36 35 34 33 33 33
30 30 28 28 30 30 30 31 30 28 23 17 11 6 2 8 15 21 26 29 33 37 39 41 42 42 43 43 42 42 42 41 41 41 41 40 40 39 38 37 36 36 35 34 33 33 35 37 38 40 40 41 41 41 41 40 39 38 37 36 35 34 34
27 29 26 25 26 27 27 28 29 29 27 22 16 12 7 0 7 15 23 28 31 34 37 40 41 42 42 42 41 41 41 41 41 42 42 41 40 39 39 39 38 37 36 35 34 34 34 34 35 36 37 39 40 41 41 40 39 38 38 37 36 35 35
27 28 27 25 24 24 24 24 25 26 27 25 21 17 12 6 2 9 17 24 29 33 36 39 41 42 42 41 42 42 41 39 37 37 39 41 41 41 40 39 38 37 36 35 35 35 34 33 33 34 34 35 37 38 39 39 39 38 38 37 36 35 35
27 27 27 27 26 25 24 23 23 23 24 25 23 22 17 10 5 4 10 17 22 27 33 36 38 41 42 41 41 42 42 41 36 31 31 33 38 41 41 39 38 37 36 36 36 35 34 33 33 33 32 33 34 35 37 38 38 38 37 37 35 35 35
26 25 25 26 27 27 26 24 23 23 23 22 21 22 22 16 10 7 7 8 12 18 26 33 34 36 39 42 42 42 42 42 39 35 32 31 33 38 39 39 37 36 35 35 35 35 35 34 34 33 32 32 32 33 35 36 36 36 36 36 35 34 34
23 23 23 23 25 26 25 24 23 22 22 22 19 18 21 20 14 11 12 9 5 11 19 28 31 31 33 37 42 43 42 40 40 40 38 36 35 35 36 37 36 35 34 35 35 34 35 35 34 33 33 32 32 32 32 33 34 34 34 34 33 33 33
22 22 22 22 24 26 25 23 22 22 22 22 20 16 18 21 17 14 15 12 2 10 15 19 23 26 27 29 34 39 41 40 39 39 39 40 39 37 35 35 35 35 34 35 35 34 34 34 34 34 33 33 32 31 30 30 29 30 31 31 31 32 32
21 21 21 21 23 25 25 23 21 20 20 20 20 19 19 19 18 16 16 14 5 6 11 12 14 19 21 20 21 28 35 38 39 39 38 39 39 38 36 35 35 35 35 36 36 35 35 35 35 35 34 33 32 31 30 29 27 26 27 28 29 30 31
22 22 22 21 22 23 24 22 21 19 19 18 19 20 22 21 18 17 16 14 9 5 7 9 10 12 13 13 14 19 26 31 34 36 36 35 36 36 36 35 35 36 37 38 37 37 37 37 37 36 35 34 33 32 31 30 28 26 25 25 26 28 30
22 22 22 22 21 22 23 22 21 20 19 17 17 19 21 22 20 17 16 15 12 9 6 8 11 11 11 13 14 16 18 23 28 30 31 31 31 33 35 36 37 38 38 39 39 39 38 38 38 37 36 35 34 33 32 31 29 27 26 25 25 26 28
21 22 21 21 21 22 24 24 22 20 19 17 17 18 19 21 21 19 18 17 16 12 9 7 8 10 11 14 15 13 12 14 20 25 26 27 26 28 30 32 35 38 39 39 40 40 39 39 39 39 38 37 36 35 33 32 31 29 27 26 26 26 27
20 21 22 23 23 23 24 25 24 22 20 18 18 19 20 19 20 20 21 20 18 15 12 9 7 7 10 15 17 16 14 12 12 15 19 21 23 25 26 27 29 33 37 40 41 42 42 41 40 40 39 38 38 36 34 32 31 30 29 28 27 27 27
19 21 22 23 25 24 25 26 26 24 22 19 18 19 20 20 19 18 21 23 21 17 14 12 9 6 8 12 15 15 17 18 16 14 13 15 18 22 25 26 26 28 34 39 42 43 44 43 41 41 41 39 38 37 35 34 33 32 30 29 28 28 28
23 22 23 24 25 25 25 26 27 26 24 21 18 17 18 19 20 18 19 22 22 20 17 14 12 10 8 10 13 14 15 17 18 18 16 14 15 17 20 22 24 26 31 37 42 44 44 43 42 41 40 40 38 37 35 34 34 33 32 30 29 29 28
27 25 25 25 25 25 25 25 26 27 25 22 20 18 16 16 19 19 19 19 20 21 19 16 14 13 11 11 13 15 17 16 15 15 16 16 17 19 19 20 21 24 28 34 41 45 43 42 41 40 39 39 38 37 36 36 36 35 34 32 31 30 29
31 29 27 26 25 25 25 25 26 27 26 24 21 20 18 16 16 19 21 20 20 20 20 18 16 15 14 14 14 16 18 18 17 15 15 15 16 19 22 23 25 27 27 33 42 45 42 40 40 39 38 37 36 37 38 37 37 36 35 34 33 31 29
33 31 29 27 26 25 24 25 25 26 27 26 22 21 21 18 16 18 21 21 21 21 21 20 18 17 16 15 15 17 17 17 16 15 15 14 15 18 22 24 26 28 29 33 40 41 38 37 38 38 36 35 35 36 37 37 36 35 34 33 31 29 27
33 33 32 29 27 26 25 25 25 26 28 27 23 21 22 21 18 18 19 21 22 22 22 21 20 19 18 17 16 17 18 17 15 14 14 15 16 19 22 24 24 26 28 31 34 35 34 34 35 35 34 34 34 34 34 35 33 28 26 27 27 25 25
32 33 33 31 30 29 28 27 25 25 27 27 25 22 22 22 21 19 19 19 21 21 22 22 21 21 20 19 18 18 18 17 16 16 15 15 16 19 22 24 24 25 27 29 30 32 33 34 33 33 34 35 35 34 33 32 28 24 24 26 26 25 25
32 33 33 32 31 31 30 29 26 25 26 27 26 24 23 22 21 20 20 19 19 20 20 21 21 21 20 20 19 18 18 18 17 17 17 16 17 18 21 23 24 25 26 28 28 28 31 34 34 34 35 37 37 36 35 34 31 28 30 31 29 27 27
32 32 33 32 32 32 32 31 28 26 25 26 26 25 25 23 21 20 21 20 19 19 19 20 21 21 20 20 20 19 20 20 19 18 18 17 17 18 20 22 24 25 25 25 25 26 28 31 33 33 34 35 35 35 36 35 33 32 32 32 31 29 28

ECMWFFLT1_850_spd_084.txt.gz
Wind_Speed
10 16 18 19 21 23 25 27 27 28 28 28 28 29 28 28 27 27 29 29 27 26 25 24 23 23 22 23 23 24 25 25 24 22 21 20 20 21 20 19 18 17 15 12 12 12 12 11 10 10 9 9 9 9 8 8 7 6 6 6 6 6 6
3 8 14 18 20 22 23 26 27 27 28 29 29 29 29 28 28 29 30 30 28 27 26 25 24 24 23 23 23 24 24 25 25 24 23 22 21 21 21 20 19 19 17 14 13 13 13 11 11 11 10 10 9 9 9 8 8 7 7 7 6 7 7
12 8 5 10 17 21 22 24 26 27 28 28 29 30 30 29 29 30 31 30 29 28 27 26 25 24 24 24 24 23 23 24 25 25 24 23 22 20 20 21 21 20 19 17 16 15 13 13 13 12 11 11 11 10 10 9 9 9 8 8 7 7 8
15 15 13 9 9 17 21 22 24 25 26 27 28 28 29 30 30 30 31 29 28 29 28 27 26 24 24 25 25 24 23 23 24 25 25 24 23 21 20 21 20 20 19 18 18 16 14 14 14 13 12 12 12 11 11 11 10 10 9 9 8 8 8
17 16 14 13 10 11 17 21 23 24 24 25 26 27 27 29 30 30 30 29 28 28 27 27 26 25 25 25 26 25 24 23 23 24 24 25 25 23 23 22 20 19 19 19 18 18 17 16 15 14 14 13 13 12 12 12 12 11 10 10 10 9 9
18 16 15 13 9 11 14 17 20 22 23 23 24 26 26 27 28 28 28 29 28 27 27 27 27 27 27 26 26 26 25 23 22 22 23 24 25 26 25 23 21 19 19 19 19 19 19 18 16 16 16 15 13 13 13 13 13 12 12 11 11 10 9
18 17 15 16 9 5 10 14 17 18 21 22 23 24 25 26 27 27 26 26 26 27 27 27 28 29 29 27 27 27 26 25 23 22 22 23 24 26 26 25 23 21 20 20 20 20 20 19 18 18 17 15 14 13 14 14 14 13 13 13 12 11 11
19 18 16 18 18 10 3 5 11 14 18 21 21 21 23 25 25 26 26 25 25 26 26 26 27 29 30 29 28 27 27 26 25 23 22 22 23 24 25 25 25 24 22 21 21 21 21 21 20 19 19 17 16 16 16 15 15 14 15 15 14 13 12
20 21 20 20 21 19 14 8 5 7 11 16 20 21 21 22 24 24 25 25 25 26 26 26 25 27 30 30 29 28 27 27 27 26 23 22 23 23 23 24 25 25 24 22 21 21 21 22 21 21 21 19 18 19 18 18 17 16 16 17 16 15 14
21 22 23 23 23 21 17 11 8 7 5 5 14 20 19 19 21 22 23 24 25 25 26 26 25 25 27 29 29 28 27 27 27 27 26 24 24 23 22 23 24 25 25 24 23 22 22 22 22 22 23 21 21 20 20 20 20 19 18 19 18 17 16
21 23 25 25 24 23 19 14 10 7 7 6 4 10 15 18 19 19 21 23 23 24 24 24 24 25 26 27 28 28 29 28 27 28 27 26 25 24 23 22 22 23 25 25 24 23 23 23 23 23 24 23 22 22 21 21 21 21 21 20 20 20 18
21 22 24 26 26 24 22 19 14 10 7 6 5 2 7 14 18 19 20 21 21 22 23 24 23 24 25 26 26 27 29 29 28 28 28 27 26 25 23 23 22 22 23 25 25 24 24 24 24 24 24 23 23 23 22 22 22 22 22 22 21 21 20
20 22 24 27 28 26 24 22 18 14 9 5 3 3 2 5 12 15 17 20 21 21 22 23 24 24 25 24 24 25 27 28 29 29 28 28 27 26 24 23 23 23 23 23 24 24 24 24 25 25 24 24 23 24 23 23 23 23 24 23 23 23 22
19 22 25 28 29 28 27 25 23 18 13 9 5 3 3 3 7 11 14 16 18 19 20 22 23 24 25 24 23 24 26 26 27 28 28 28 28 27 26 25 24 24 24 24 24 24 24 23 24 25 25 25 24 25 25 25 24 24 24 25 25 25 24
19 21 23 27 29 29 28 27 25 23 20 14 8 3 2 3 4 8 12 15 16 17 18 20 22 23 24 24 24 25 26 26 25 26 28 29 29 28 28 27 26 25 25 26 25 24 24 23 23 24 25 26 26 26 26 27 27 26 26 26 26 26 25
18 19 20 23 25 27 27 26 25 24 24 21 15 8 2 1 4 4 4 10 16 17 16 17 20 22 23 24 26 27 27 27 26 27 29 30 29 28 27 28 28 27 27 28 27 26 25 25 24 24 24 26 27 28 28 29 29 30 29 28 27 27 27
16 17 18 19 22 24 25 25 24 23 23 23 22 17 10 3 2 3 1 3 10 16 18 18 19 22 23 23 24 24 25 27 27 28 29 30 30 28 27 27 28 29 30 29 29 28 27 27 27 26 25 25 26 28 30 31 32 32 32 31 30 29 29
15 16 17 18 19 21 23 24 24 22 21 21 21 20 18 13 7 0 3 3 5 11 16 18 18 20 22 22 22 22 25 27 27 27 27 28 29 28 28 28 29 30 31 31 30 30 29 28 28 28 27 26 26 27 29 30 32 35 34 33 32 32 31
15 15 16 17 18 19 21 23 23 22 21 19 18 18 18 18 16 10 2 3 4 8 13 17 19 20 21 21 21 22 24 25 26 27 26 25 26 27 28 29 29 29 30 30 30 30 31 29 28 28 28 28 28 28 29 30 32 35 35 34 34 34 33
14 15 15 16 17 18 18 20 22 22 20 19 18 15 14 14 16 15 10 4 2 7 11 15 19 22 22 22 21 21 23 23 23 25 25 25 26 27 28 28 27 27 29 29 28 30 31 31 30 30 29 29 29 30 30 30 32 35 36 35 34 35 35
13 14 14 15 16 17 18 18 20 22 20 19 19 17 14 12 12 14 14 9 6 4 8 11 15 19 23 24 21 20 22 21 19 20 21 23 25 26 27 27 25 25 27 27 26 26 27 29 29 30 30 30 29 29 30 30 30 32 34 34 35 35 36
12 13 14 15 15 15 17 17 18 20 20 19 19 18 16 12 10 11 13 12 9 5 5 8 11 15 20 23 22 20 19 18 18 18 19 20 22 25 26 26 25 25 25 25 24 24 24 24 24 25 27 29 29 29 30 30 30 30 31 32 33 34 35
11 12 12 13 13 13 15 16 16 16 18 19 19 17 17 15 11 9 11 12 11 8 6 7 10 12 16 21 23 21 18 17 17 17 17 18 20 23 25 26 25 25 25 25 25 25 25 24 22 21 22 24 26 29 30 30 30 31 30 30 31 31 32
10 12 12 13 13 13 14 16 15 15 15 17 19 18 16 16 14 10 10 11 11 11 8 6 6 8 13 20 25 24 22 19 17 16 16 17 19 20 22 24 25 25 25 25 25 25 26 25 24 24 23 22 22 25 28 29 30 30 30 30 30 30 31
11 12 13 13 13 13 16 16 15 15 15 14 17 18 16 16 14 12 10 10 10 10 9 6 4 3 6 14 21 25 26 25 23 20 18 17 19 20 20 22 24 25 26 27 26 24 24 24 25 27 27 26 24 24 26 28 29 29 30 30 30 30 31
12 13 14 14 14 15 16 16 14 15 15 15 16 17 16 16 15 13 11 10 9 10 10 9 6 3 3 5 10 17 22 24 24 23 23 21 20 20 20 21 23 24 25 27 25 23 23 24 25 27 29 29 28 27 27 27 28 30 30 30 30 31 31
14 14 14 14 15 17 16 14 15 16 15 15 16 16 15 16 16 15 13 11 10 9 10 11 9 6 4 3 4 7 12 15 16 17 20 21 21 21 20 21 22 24 24 25 25 24 25 25 26 27 28 30 31 31 31 30 28 28 30 31 31 31 31
16 16 16 16 17 17 15 14 16 17 16 15 15 16 15 15 16 15 13 12 11 8 8 10 11 10 7 4 4 5 7 10 11 11 14 16 17 19 19 19 20 22 23 23 24 27 29 28 28 28 28 29 30 31 31 31 29 28 30 32 32 31 31
18 19 19 19 18 16 15 16 17 17 17 17 17 18 18 17 17 16 14 13 12 10 8 7 9 9 8 6 5 6 8 10 11 11 12 12 13 16 17 17 18 19 21 22 24 27 29 28 25 25 26 27 29 30 31 31 30 28 30 32 33 33 33
19 20 20 20 20 18 19 19 19 18 19 19 20 22 21 20 19 18 17 15 14 14 12 8 7 8 6 6 7 7 9 11 11 11 11 10 10 12 13 13 13 15 18 22 22 23 25 24 22 23 25 27 28 30 31 31 30 29 29 30 33 35 35
19 21 22 21 22 22 22 22 22 22 21 19 21 25 25 23 21 20 19 19 17 17 16 13 11 9 6 6 9 10 9 10 10 11 12 11 11 11 11 12 12 13 15 18 20 20 21 21 21 22 24 26 28 28 29 30 31 31 29 28 30 33 36
18 21 23 23 23 24 24 24 24 24 23 22 23 25 26 25 23 22 22 22 20 19 19 18 16 14 10 7 8 9 10 10 10 10 12 13 14 14 12 12 12 12 13 15 17 19 20 21 23 23 23 26 29 30 29 30 31 31 30 29 29 32 35
18 21 24 25 26 26 27 26 26 25 25 25 25 25 26 26 25 24 23 22 21 20 21 21 20 18 16 12 10 9 10 12 11 10 10 12 15 16 16 15 14 13 14 16 17 18 18 20 23 24 24 26 29 30 31 31 31 31 31 31 31 32 34
18 21 24 26 27 27 27 26 26 26 26 27 26 26 27 29 29 27 24 23 23 22 22 22 21 21 19 17 14 13 13 13 13 12 9 9 12 16 18 18 17 16 17 18 18 18 18 19 20 22 23 25 26 28 30 31 31 31 30 29 29 30 32
18 21 23 25 26 26 25 25 25 26 27 28 27 27 28 29 30 30 27 25 25 24 23 23 22 22 21 19 17 16 15 15 15 14 13 11 11 15 18 20 19 19 20 21 21 20 20 20 21 20 20 21 23 24 27 29 29 28 27 26 27 30 33
20 21 21 22 23 23 22 23 23 25 27 28 28 28 28 28 30 31 30 27 25 24 24 23 22 22 22 21 18 18 18 17 15 16 17 16 15 17 21 23 22 21 23 24 25 25 25 24 25 25 24 24 25 25 26 27 28 28 28 27 28 31 35
21 21 21 21 21 22 23 23 23 24 27 27 27 28 27 26 26 28 29 28 25 24 23 19 18 20 22 21 20 19 19 19 18 17 17 17 17 19 22 23 24 24 25 26 27 29 30 29 29 28 29 31 32 31 31 31 31 31 32 31 30 30 31
23 23 22 22 22 22 23 24 24 25 26 27 27 26 25 25 24 23 23 23 22 23 22 17 14 17 20 21 21 20 19 19 20 19 17 16 18 21 23 22 23 25 27 28 27 28 30 31 32 32 31 32 34 36 36 36 36 36 37 36 36 36 36

ECMWFFLT1_850_spd_087.txt.gz
Wind_Speed
16 24 29 29 30 29 27 29 30 31 32 31 32 32 30 29 29 27 27 29 29 27 25 24 24 23 23 23 23 22 22 22 21 20 19 18 16 14 14 13 13 12 12 11 10 10 10 10 10 10 9 8 8 8 7 7 6 6 7 7 6 5 4
8 12 20 25 27 27 26 27 28 29 30 31 31 31 30 30 31 28 28 30 29 28 27 25 24 23 22 22 23 22 22 22 21 21 20 19 18 16 15 14 13 13 13 11 10 10 10 11 11 11 10 8 8 8 7 7 7 6 6 6 6 6 5
10 9 7 12 17 21 23 25 27 29 30 30 29 29 29 30 29 27 28 30 30 28 27 26 24 23 22 22 22 22 21 22 22 22 21 19 18 17 16 16 15 14 13 13 12 10 11 11 12 11 11 10 9 8 8 8 7 7 6 5 5 5 4
9 7 4 4 10 17 21 23 26 29 30 30 28 27 27 27 26 27 28 29 30 29 28 27 25 24 23 22 22 21 21 21 21 22 21 19 18 17 17 17 16 15 14 14 13 12 11 12 12 12 12 11 11 10 10 9 8 8 7 6 6 5 5
10 9 8 5 2 12 20 23 26 29 29 29 29 28 28 26 26 28 27 26 28 29 29 28 27 26 25 23 23 22 21 20 21 21 21 20 19 18 18 17 17 17 16 15 14 14 13 12 12 13 13 12 12 11 11 10 10 9 9 8 7 7 6
14 13 11 11 10 2 12 21 26 28 27 29 32 30 27 26 26 27 27 26 28 29 29 31 29 28 28 25 24 24 22 21 20 21 21 21 21 20 19 18 18 17 17 16 16 15 15 15 14 14 13 13 12 11 11 11 10 10 10 9 9 8 8
15 14 12 11 14 13 5 9 17 24 25 26 31 31 27 24 24 26 26 26 28 29 30 32 31 30 30 28 26 25 24 22 21 21 21 21 22 21 20 20 19 18 17 17 17 16 16 16 16 15 15 14 13 12 11 12 12 11 11 11 10 9 9
14 14 13 12 13 15 16 16 9 13 21 23 26 28 26 26 27 28 28 26 27 28 32 34 33 32 31 29 28 27 25 23 22 21 21 21 22 22 22 21 20 20 19 18 18 18 17 17 17 16 16 15 15 14 14 14 14 13 12 12 12 11 10
14 15 14 15 16 17 18 22 20 11 8 15 21 22 21 25 28 29 29 28 28 30 33 34 33 32 31 29 29 28 26 24 23 23 22 22 22 22 22 22 22 21 21 20 19 19 19 18 17 17 17 17 17 17 16 16 16 15 14 14 14 13 12
15 17 17 17 19 19 19 19 22 22 17 8 8 16 19 22 24 25 26 27 28 30 32 31 29 29 30 29 28 27 26 25 25 24 23 23 23 23 23 23 22 22 22 21 20 19 19 19 18 18 19 19 19 19 18 18 18 16 16 15 15 15 14
15 18 19 20 20 20 20 19 20 21 22 20 12 4 12 18 21 21 22 25 28 30 29 26 26 27 28 28 26 26 26 26 25 25 25 24 24 23 23 23 22 22 22 22 21 20 20 20 20 20 21 21 21 21 20 19 19 18 17 16 16 16 16
16 18 19 20 21 21 21 20 19 18 18 18 16 12 5 6 13 16 17 20 24 27 25 20 21 25 25 25 25 25 26 26 26 26 26 25 25 24 24 23 23 23 23 23 22 22 21 21 21 21 22 23 23 22 22 21 21 20 20 19 17 17 17
16 17 19 20 21 22 22 21 20 18 15 13 11 13 14 9 3 6 12 15 17 22 23 19 19 22 22 22 23 23 25 26 26 26 26 26 26 25 24 24 24 23 23 23 23 23 23 22 21 22 22 24 24 23 23 23 23 22 22 21 20 19 18
16 18 19 21 22 23 23 22 21 20 17 13 8 7 11 11 8 4 3 7 10 18 22 20 19 20 19 19 21 21 22 24 25 26 26 26 27 26 25 24 24 24 23 23 23 23 23 23 22 22 22 23 24 24 23 23 24 24 24 24 23 21 20
16 18 19 20 21 23 23 21 21 20 19 16 11 5 3 6 7 6 6 5 1 12 17 16 17 18 17 19 21 20 20 22 23 25 25 26 27 28 27 26 25 25 24 23 23 22 22 23 23 23 23 22 23 23 23 23 24 25 25 25 24 23 22
15 17 18 19 19 20 20 20 20 19 19 18 15 11 6 1 4 4 6 10 7 4 11 10 13 17 19 21 22 20 19 20 23 23 24 27 28 28 28 28 26 26 26 25 25 24 23 23 23 23 23 23 23 23 23 23 23 24 26 26 26 25 23
15 16 16 18 18 18 18 19 20 19 19 18 17 15 11 7 3 2 1 6 7 4 8 7 8 14 18 20 22 23 21 21 24 24 24 26 29 30 30 29 27 26 26 26 26 26 25 24 24 24 23 23 23 23 23 23 23 25 27 28 27 26 25
14 15 16 16 17 17 17 18 19 19 19 18 17 15 13 11 8 5 3 1 2 6 9 9 11 15 18 18 21 24 24 25 27 28 26 26 28 30 32 31 28 27 27 27 27 27 27 26 25 25 25 24 24 24 24 24 24 25 27 29 29 28 26
13 14 15 15 16 17 17 17 18 18 19 18 17 16 15 13 12 9 7 5 3 2 7 9 12 17 18 18 20 23 24 26 29 30 29 28 28 29 30 30 28 29 29 28 27 27 27 27 27 26 26 26 26 25 25 24 25 26 28 30 31 30 28
13 13 14 14 15 16 16 16 16 17 18 18 17 16 15 15 14 13 12 8 6 2 5 9 11 17 19 17 19 23 24 25 27 28 29 29 29 29 29 28 28 28 27 27 27 28 28 28 27 27 28 28 28 28 27 26 26 27 29 31 32 31 30
12 12 12 13 14 14 15 15 16 16 17 17 17 16 15 15 14 15 15 12 9 5 3 8 9 13 18 17 18 22 23 21 21 25 28 29 28 29 28 27 28 27 25 25 26 27 28 28 27 27 28 29 29 29 29 29 28 29 30 31 33 33 32
11 11 12 12 12 13 14 14 15 16 15 15 16 16 15 15 14 15 16 14 12 10 4 5 8 9 13 16 19 22 24 21 19 19 22 24 23 24 25 25 26 25 24 24 24 25 27 27 27 27 27 28 29 30 30 29 29 31 33 34 34 34 33
10 10 11 11 11 11 12 13 13 14 14 14 15 16 16 16 15 14 15 15 15 13 11 8 8 9 10 12 16 19 22 22 20 18 18 19 20 21 22 22 22 22 22 22 22 23 24 24 24 25 26 26 28 29 30 29 29 31 33 35 35 34 33
8 9 10 10 10 10 12 13 12 12 13 13 13 15 16 16 17 15 15 15 15 14 14 14 13 11 11 11 12 16 19 20 19 18 18 18 18 20 21 21 21 21 22 20 19 20 21 21 21 22 23 24 26 28 29 29 30 31 33 34 34 33 33
8 8 9 10 10 10 12 13 12 12 13 13 13 14 14 15 16 16 15 15 14 14 14 14 14 14 13 12 10 13 18 20 19 17 16 15 15 17 20 21 21 21 21 20 19 20 19 19 21 22 22 22 24 26 28 28 28 30 33 34 33 32 32
8 9 9 10 10 11 13 12 11 12 13 13 14 14 13 14 15 16 16 15 13 13 13 12 12 13 13 13 11 9 10 13 16 18 18 18 18 18 18 19 19 20 20 21 22 22 19 18 20 21 22 22 22 24 26 27 27 29 31 33 34 34 32
8 9 9 10 11 12 12 11 11 12 13 14 14 14 13 14 15 17 18 17 15 14 14 13 12 12 13 14 12 10 9 9 10 13 16 19 21 22 22 21 19 18 18 20 23 22 20 20 20 21 22 23 23 23 25 26 27 29 31 33 34 35 33
9 10 10 11 12 12 11 11 11 12 13 13 13 14 14 14 15 19 20 18 17 17 16 16 16 13 12 12 11 11 12 12 11 11 12 13 15 17 20 22 21 19 19 20 22 23 23 23 23 22 22 23 23 24 25 27 29 30 30 31 33 35 35
9 10 11 12 12 12 12 12 12 12 13 13 14 14 15 15 17 21 21 19 20 21 20 19 19 16 13 12 11 12 13 13 13 13 13 13 12 12 13 16 18 20 21 22 23 24 24 24 22 21 20 20 21 22 24 27 29 32 34 35 35 35 36
9 10 11 12 12 13 13 13 13 13 14 13 14 14 14 16 20 22 22 20 22 24 23 23 21 19 16 14 12 12 13 13 13 12 12 13 14 13 13 13 14 16 19 21 23 23 22 21 21 21 20 20 20 22 23 24 25 28 33 38 39 37 36
11 10 10 11 12 13 14 15 16 16 15 14 13 13 14 16 19 21 21 21 23 25 25 24 22 21 19 17 15 15 13 12 12 12 13 15 15 13 14 14 13 12 13 16 19 22 21 19 18 19 20 21 21 21 22 23 23 23 26 30 33 34 35
14 13 12 12 12 13 15 17 17 17 17 16 15 14 14 14 15 17 20 23 24 24 21 19 20 24 25 22 19 18 17 15 14 12 12 15 16 14 13 13 14 14 13 14 16 19 20 20 18 18 19 21 21 20 21 21 22 22 22 23 24 26 29
15 16 15 15 14 13 14 15 17 18 19 19 19 18 17 16 16 17 19 21 22 20 18 18 22 26 28 26 23 21 19 18 18 16 13 11 12 13 14 14 15 14 13 14 16 17 18 18 18 18 19 20 20 20 21 21 22 22 22 22 21 22 24
16 17 18 18 18 16 14 14 15 17 19 21 21 21 21 20 20 19 19 20 21 22 24 26 27 27 28 28 28 26 23 21 21 20 17 13 12 13 14 15 17 15 13 13 15 17 18 17 17 17 18 18 19 20 21 22 22 20 18 17 17 19 22
16 18 20 20 20 19 17 15 15 16 18 20 21 21 22 23 23 22 21 22 23 24 26 27 28 30 30 29 27 25 23 20 19 18 17 16 16 15 15 15 16 17 16 16 16 16 18 19 19 19 18 18 19 20 20 20 20 17 15 15 16 17 18
16 18 19 20 21 20 19 18 17 17 18 19 19 20 21 23 24 24 23 22 21 22 23 24 25 28 28 26 22 19 17 16 16 16 17 18 18 18 19 19 20 20 21 22 20 19 18 19 21 21 22 24 24 23 22 21 19 17 17 18 19 18 17
16 17 18 20 21 21 21 20 19 19 19 19 19 19 20 21 22 23 23 21 20 20 21 21 22 23 23 22 20 18 18 20 20 20 20 20 21 22 23 24 26 27 26 24 23 23 22 22 22 21 21 24 26 27 27 27 25 23 23 23 23 23 22
16 17 18 18 19 20 21 21 21 21 20 20 19 19 19 20 21 21 22 21 20 19 20 21 21 22 22 22 20 21 22 22 22 22 22 23 24 24 24 24 26 28 28 26 24 24 25 26 26 24 23 23 25 27 29 30 29 30 30 29 30 30 29

ECMWFFLT1_850_spd_093.txt.gz
Wind_Speed
23 25 27 27 28 28 28 28 26 26 31 32 28 28 32 32 31 32 30 27 26 25 27 27 26 25 25 25 25 25 25 23 22 21 19 19 20 18 18 18 16 16 15 13 13 13 10 10 12 12 11 11 12 11 11 10 11 11 11 11 11 11 12
24 25 26 28 28 28 28 29 29 29 31 34 30 25 28 33 33 33 31 27 24 24 26 28 26 24 25 25 25 25 25 24 22 21 20 19 19 17 17 17 16 15 15 13 13 13 11 10 11 11 10 11 11 11 11 10 11 10 10 11 11 11 12
21 23 23 25 28 29 29 28 30 31 31 34 33 26 24 28 30 32 31 28 24 23 24 27 27 24 23 23 24 24 25 24 23 22 22 20 18 17 16 16 15 14 15 14 13 14 13 12 13 12 12 12 11 12 11 11 11 10 11 11 10 10 11
15 17 18 19 23 27 27 25 25 28 29 30 31 28 24 23 26 30 31 28 24 22 23 26 27 25 24 23 23 23 23 24 24 22 22 21 19 17 16 16 16 15 15 14 13 13 14 15 16 15 13 13 12 12 12 11 11 11 12 11 10 10 11
12 9 11 14 18 21 22 23 24 26 27 27 29 30 29 25 24 26 29 28 26 24 24 25 26 25 24 24 23 23 23 23 23 22 22 21 20 19 17 17 16 15 16 15 14 14 13 15 17 17 15 13 13 13 13 12 12 12 11 11 10 10 11
14 10 6 6 12 18 20 19 21 25 27 28 29 30 31 30 26 24 26 28 29 28 25 26 28 26 25 24 23 23 22 22 22 22 22 21 21 20 19 18 17 16 16 17 16 15 13 13 15 16 15 14 14 14 13 13 13 12 12 11 11 10 11
15 16 14 11 6 9 16 15 16 20 22 24 25 25 28 31 28 25 26 29 31 31 27 25 26 26 25 24 23 23 23 23 23 23 22 21 21 21 20 19 18 17 17 16 16 15 16 16 16 16 16 16 16 15 14 14 14 14 12 12 12 11 11
16 18 18 16 15 9 9 12 13 15 16 18 21 21 22 25 22 21 25 27 27 27 26 25 25 25 25 24 23 23 22 22 22 23 23 22 21 21 20 20 20 19 18 17 16 16 18 19 19 18 17 17 17 17 16 15 14 15 14 13 13 13 13
18 19 19 18 16 12 10 11 10 11 13 16 19 18 18 20 19 18 21 23 23 23 22 24 26 26 25 24 24 23 22 22 21 21 23 23 23 22 21 21 20 20 19 19 18 18 18 20 20 20 18 17 17 18 18 17 15 15 15 15 15 15 14
18 18 18 18 19 16 12 11 9 9 11 13 17 18 16 17 18 18 19 21 22 23 22 24 26 26 25 25 25 24 23 23 22 21 22 23 24 23 23 22 21 21 21 20 20 21 20 20 20 20 20 19 18 18 19 18 17 17 17 16 17 16 16
18 19 18 19 20 20 18 14 12 10 10 10 13 15 15 15 15 15 16 17 19 22 24 26 26 25 26 25 24 24 24 24 24 23 22 22 23 23 22 22 22 22 22 22 23 23 22 22 22 21 21 21 21 20 19 19 19 19 19 18 18 17 16
17 18 18 19 20 21 20 18 16 13 11 10 10 10 11 13 14 13 12 14 18 21 23 25 25 23 24 25 25 26 26 26 26 24 24 24 24 24 24 23 23 22 23 23 24 24 23 23 23 23 23 22 22 22 21 21 22 22 22 21 20 19 18
16 16 17 20 22 22 20 18 17 15 14 13 12 11 10 10 11 12 11 11 14 17 18 20 21 21 21 22 23 25 26 28 27 25 26 27 26 27 27 26 26 24 23 23 23 25 25 24 24 24 24 24 23 24 23 23 24 24 23 23 21 21 21
15 17 19 20 22 24 22 20 17 15 15 15 14 12 11 12 12 12 11 9 9 12 15 18 19 19 20 19 20 22 24 27 27 25 27 29 28 28 29 28 28 27 25 24 24 25 24 24 26 25 24 25 25 24 24 25 26 26 25 25 24 22 22
16 17 19 20 21 22 22 22 20 18 17 15 13 12 11 12 13 12 12 11 10 10 13 16 17 18 20 20 20 21 22 23 25 27 29 30 31 30 29 30 29 28 27 25 24 27 25 23 25 27 26 25 25 25 25 26 27 27 27 27 26 25 24
16 17 18 19 20 20 20 20 21 21 19 17 15 14 11 10 11 11 11 12 12 10 10 11 12 12 14 16 17 18 19 20 23 27 31 33 34 32 29 29 28 27 27 25 24 26 28 24 23 26 27 27 26 25 25 26 26 26 26 27 27 27 26
16 17 17 19 19 19 19 18 18 19 18 18 18 18 15 11 8 7 7 8 9 10 9 8 8 7 6 8 11 14 16 18 20 24 28 31 33 32 30 28 26 24 26 27 25 25 27 28 26 25 27 29 29 27 27 26 25 24 24 25 26 27 27
17 16 17 18 18 18 18 18 18 19 19 18 18 17 17 14 10 8 6 5 5 7 7 7 7 8 7 5 6 9 12 15 16 18 22 26 29 31 29 27 25 23 23 26 27 26 26 29 30 28 26 28 31 30 29 28 26 25 24 24 25 26 27
17 16 15 16 17 17 17 17 18 18 19 19 17 17 17 16 15 14 12 8 5 3 4 4 5 8 8 7 6 7 7 10 13 14 17 21 25 27 26 25 25 25 23 23 26 27 27 28 31 31 29 29 30 31 30 29 28 26 25 24 23 24 25
17 16 16 16 16 17 17 16 16 16 17 17 16 16 16 17 19 17 14 12 10 6 3 2 2 4 5 5 5 6 7 8 9 11 13 16 19 21 22 21 22 24 24 23 24 27 29 28 28 30 32 32 32 31 29 27 27 27 28 27 25 23 23
18 17 16 15 15 16 16 15 13 14 15 15 14 15 16 16 18 17 14 14 14 13 9 5 4 2 1 2 3 5 7 7 8 10 12 13 16 19 20 19 19 20 21 23 25 27 30 31 29 28 29 31 32 32 30 28 25 25 26 27 28 27 26
17 17 16 14 13 14 14 14 12 12 14 14 13 15 16 15 16 17 15 15 16 17 16 12 9 7 4 1 1 3 5 7 8 11 12 12 15 18 20 20 20 19 20 23 25 27 30 33 32 31 30 29 30 31 32 32 30 29 27 26 26 28 29
16 16 16 14 12 12 13 14 12 11 12 13 12 12 14 13 13 15 15 13 14 16 17 16 14 13 10 6 4 2 2 4 7 9 11 12 14 17 19 20 20 21 22 24 26 28 30 32 34 34 34 33 33 32 32 33 34 35 35 33 30 28 29
16 14 14 13 11 10 11 12 12 10 9 12 13 11 11 10 10 13 14 12 12 14 15 15 15 14 13 12 10 8 6 3 3 6 9 11 14 15 16 17 18 20 22 24 27 28 30 31 32 33 35 35 36 37 36 36 36 36 37 38 37 34 31
15 14 11 10 10 10 7 8 12 11 7 9 11 10 8 7 7 10 13 12 11 12 13 14 14 13 13 12 12 12 11 9 7 5 6 9 12 15 16 17 17 18 19 22 25 26 28 29 30 31 32 33 35 36 37 37 37 37 36 36 36 36 34
11 13 12 9 8 8 6 6 9 10 7 6 7 6 5 6 7 9 11 10 10 11 12 13 14 12 11 11 10 12 12 11 9 9 8 8 9 13 15 17 17 18 18 19 21 23 25 27 29 30 30 31 32 33 33 34 35 34 34 35 34 35 34
10 12 12 9 5 5 5 5 6 7 7 6 5 4 3 6 8 9 10 9 9 9 10 12 13 11 10 9 8 11 12 11 10 11 11 10 8 9 13 16 18 19 19 19 19 20 21 22 25 28 29 30 30 30 29 29 30 31 32 32 32 32 31
9 9 9 8 5 3 3 3 3 3 5 5 6 5 6 7 9 9 9 8 8 9 10 12 11 11 11 9 7 10 12 10 10 11 11 12 12 10 9 12 15 17 20 20 20 20 20 20 20 22 24 27 27 27 25 24 25 29 31 30 29 29 29
8 7 6 6 5 2 1 1 2 3 4 4 5 7 8 9 9 8 7 5 7 9 10 10 9 8 9 9 9 12 13 11 11 12 12 12 13 13 11 9 10 12 15 18 20 20 21 21 20 20 21 22 23 23 23 23 25 29 30 30 29 28 28
5 4 3 4 4 4 4 5 3 2 2 4 5 6 7 7 7 7 6 6 8 8 8 8 8 7 8 10 12 14 15 13 12 12 11 10 13 15 13 9 8 8 9 12 15 17 17 17 18 19 19 18 18 18 20 22 26 28 29 29 30 30 29
4 3 2 3 6 8 9 7 4 2 3 5 5 5 5 5 5 6 7 8 8 7 7 8 10 10 11 12 14 15 15 14 14 13 11 11 12 12 10 8 8 8 9 11 11 11 12 11 11 12 12 12 12 13 15 19 21 23 24 26 28 30 31
4 3 2 4 6 8 8 7 4 4 5 5 5 5 4 4 5 5 6 8 8 8 10 11 11 11 12 13 14 14 15 15 15 15 13 11 8 7 7 8 9 10 11 12 11 8 8 8 7 7 7 8 8 10 12 14 16 17 18 20 22 23 24
2 3 4 5 5 7 8 8 6 6 6 6 6 6 5 5 5 5 5 8 9 10 11 11 11 12 12 12 13 13 14 14 14 13 11 8 6 5 6 7 9 11 11 11 10 9 9 9 9 8 8 8 8 8 9 10 12 14 15 17 17 17 19
2 2 3 4 5 6 8 8 8 7 7 7 8 8 8 8 8 6 6 7 9 10 11 11 11 12 11 11 11 11 11 11 11 10 9 6 4 4 6 6 7 8 8 8 9 11 12 14 14 14 14 14 13 12 11 11 12 14 15 15 15 16 17
2 2 3 4 4 6 7 8 9 8 8 8 8 7 6 7 7 7 8 8 9 10 11 11 12 13 12 11 10 9 8 7 8 8 9 9 9 10 11 10 9 10 12 12 12 14 17 18 18 17 17 18 18 18 18 18 19 20 20 18 17 16 18
2 3 5 5 6 9 10 9 8 7 7 7 8 7 6 6 6 7 8 9 9 10 12 12 13 15 15 14 12 10 8 9 10 11 11 13 14 16 17 17 16 16 16 16 16 16 15 15 16 16 17 17 17 18 20 21 22 23 23 23 21 19 20
4 5 7 9 11 11 9 7 6 7 7 9 9 9 9 8 9 9 9 9 9 11 13 13 13 14 16 16 16 14 13 13 13 13 13 13 15 17 19 19 18 16 14 13 13 12 11 12 14 17 19 19 18 16 17 18 20 21 22 23 23 22 22
7 8 10 11 10 9 8 9 10 10 10 10 10 10 10 10 10 10 10 10 9 10 11 13 13 13 14 16 17 18 18 16 15 16 16 14 14 15 17 19 20 20 19 16 14 13 15 17 17 18 18 18 18 18 18 18 18 18 18 19 21 22 23

ECMWFFLT1_850_spd_096.txt.gz
Wind_Speed
30 31 33 34 33 34 31 28 30 34 35 35 36 36 34 33 29 27 26 26 26 25 26 27 28 28 28 27 27 28 26 24 24 23 21 21 20 19 18 17 16 15 15 15 13 13 12 12 13 13 13 13 13 13 13 13 12 12 11 10 10 10 11
27 30 31 32 32 33 33 31 30 33 36 34 35 36 36 34 31 28 27 25 25 25 25 27 28 28 28 27 27 28 28 25 25 24 22 21 22 20 18 17 17 16 15 14 13 13 14 13 13 14 14 13 12 13 13 12 12 11 11 11 10 10 10
25 28 29 30 31 32 33 34 33 34 36 35 35 36 36 36 34 31 28 26 25 25 24 26 27 28 27 27 27 28 28 27 26 25 24 22 22 22 19 17 17 16 16 15 13 14 15 14 13 13 14 13 12 12 12 12 12 11 12 12 11 10 10
22 25 27 28 31 32 33 35 36 36 36 35 35 35 33 31 33 34 30 27 27 25 25 26 27 28 28 27 28 29 29 29 27 26 25 22 21 21 20 19 18 17 17 16 14 14 14 14 13 13 13 12 11 11 12 12 12 11 12 12 11 10 10
15 17 21 26 29 31 31 33 35 34 33 32 33 34 29 20 23 33 34 30 29 26 23 24 27 29 28 27 28 29 30 29 28 27 26 24 21 20 20 20 19 19 18 16 16 15 14 14 14 14 14 13 11 12 13 13 13 12 12 12 11 10 11
15 14 15 20 24 25 26 28 30 29 28 28 29 31 30 21 18 28 36 35 34 32 26 24 26 28 29 28 28 28 29 29 28 27 26 25 23 21 20 20 20 19 18 18 18 17 16 16 16 16 15 14 14 14 14 14 14 12 12 12 12 11 11
17 14 12 10 14 16 18 21 25 26 26 27 28 30 34 31 24 26 35 38 36 34 31 28 27 28 29 28 27 27 28 28 28 28 27 26 25 23 21 20 20 20 19 19 19 19 18 18 17 17 16 15 15 15 15 16 15 14 13 13 13 13 12
19 16 13 9 8 11 14 18 23 24 22 24 28 31 35 35 28 25 31 37 37 35 32 29 27 27 28 28 27 27 27 27 27 27 28 27 26 25 23 21 20 20 19 19 20 20 19 18 18 18 17 16 15 16 16 16 16 15 15 14 14 14 13
19 15 12 10 9 10 12 14 16 17 17 20 24 27 31 33 29 25 27 32 36 37 33 29 27 26 27 29 29 28 27 26 26 26 26 27 27 26 24 23 21 20 21 21 21 21 20 19 19 19 18 17 17 16 16 16 16 15 16 15 15 15 14
20 17 13 11 10 11 12 13 13 12 15 20 23 23 24 26 27 27 28 30 33 36 34 30 30 29 28 28 29 27 26 26 25 24 24 24 25 26 25 24 23 21 22 22 21 22 21 20 20 20 20 20 18 17 17 18 17 16 16 16 15 15 15
20 18 16 14 11 12 15 17 16 14 15 20 23 23 20 20 24 27 29 29 29 32 34 33 33 31 30 29 29 27 26 26 26 25 24 24 23 24 24 24 24 22 22 22 22 22 22 21 21 21 21 21 20 19 18 19 19 18 17 17 16 16 16
20 19 18 17 14 12 14 18 16 13 13 16 19 22 22 20 21 23 26 27 27 30 34 35 35 34 33 31 30 28 26 26 28 27 25 25 24 24 24 24 24 23 22 23 23 23 23 23 23 23 23 22 21 20 19 19 20 19 19 18 16 16 16
21 20 19 18 18 16 15 16 15 11 9 10 13 18 20 18 18 19 22 24 25 28 30 32 34 34 34 33 31 29 28 28 29 28 26 25 25 25 25 24 25 25 24 23 23 24 24 24 25 26 26 24 22 21 20 19 19 20 20 19 18 17 17
22 21 20 19 20 20 19 19 18 16 13 12 13 15 14 13 14 16 18 20 24 27 29 31 32 32 32 32 31 30 29 29 30 30 28 27 26 25 25 24 25 26 26 25 24 24 24 25 26 27 28 28 26 23 21 20 20 20 20 20 20 19 19
20 20 20 20 21 22 22 21 20 18 18 16 14 14 15 16 15 15 16 18 22 25 27 28 29 28 27 28 28 28 28 29 30 31 30 30 29 27 26 26 25 26 27 27 27 26 26 25 26 27 28 29 28 25 23 21 21 20 20 21 21 21 21
19 19 19 19 21 22 21 21 21 20 18 17 15 13 14 16 16 15 18 19 19 20 20 20 21 22 23 24 25 25 25 26 28 30 32 32 32 30 29 28 27 27 28 29 29 29 28 27 27 28 29 29 28 27 25 24 22 21 20 20 20 21 22
19 19 19 19 21 22 22 21 20 19 19 17 15 14 13 12 10 9 13 16 16 15 15 15 16 16 17 18 19 21 22 23 24 26 29 30 31 31 30 29 28 28 28 29 30 30 30 29 28 29 30 31 30 28 27 25 23 21 20 19 18 18 20
22 21 21 21 21 22 22 22 20 18 18 17 16 14 14 12 8 6 6 7 10 12 14 14 15 14 14 14 15 16 19 21 21 22 23 24 25 27 27 28 29 29 29 30 30 30 30 30 31 30 30 31 33 32 30 27 24 22 21 20 19 19 19
23 22 21 21 21 21 20 20 20 19 18 18 17 15 14 13 11 9 7 5 3 5 10 13 13 14 14 14 13 14 15 16 16 17 18 18 19 20 22 25 27 29 31 32 31 31 31 30 31 31 31 32 33 34 33 31 28 26 24 22 21 21 21
22 22 21 20 19 19 18 18 19 19 18 18 18 16 15 15 15 15 12 9 6 4 4 7 10 12 14 13 13 13 13 12 12 13 14 15 15 16 18 21 25 28 31 32 32 32 31 30 30 31 31 32 34 35 34 33 31 29 28 26 24 21 22
21 21 21 20 19 18 17 16 16 18 19 18 16 16 16 16 17 18 17 14 12 10 7 4 3 6 9 9 10 11 11 11 11 11 11 13 15 16 18 21 23 26 28 31 33 33 32 30 30 32 32 31 33 35 35 34 32 31 29 29 27 25 24
20 19 19 19 19 19 18 16 13 14 17 18 16 15 15 14 15 17 18 17 16 15 14 12 9 7 5 5 6 7 7 7 8 9 10 12 14 16 18 20 22 23 25 27 29 31 31 30 30 33 33 31 30 31 33 32 32 31 30 29 29 29 28
20 18 16 17 19 19 19 18 15 14 15 16 15 14 14 12 12 13 15 16 16 16 15 15 14 13 10 6 2 1 3 4 4 6 8 11 13 14 15 16 17 18 21 22 23 25 26 28 29 31 33 33 31 30 29 28 29 29 29 29 29 29 29
20 17 15 15 17 18 19 19 19 17 14 14 14 13 11 10 10 10 11 12 13 14 14 14 14 14 13 12 9 5 2 3 5 5 6 9 11 11 12 14 15 15 16 17 19 20 22 25 27 28 30 33 34 33 31 29 28 28 28 29 29 28 28
18 17 14 13 13 15 17 16 16 16 13 11 11 9 8 8 9 9 8 9 10 11 12 13 12 12 12 12 11 9 7 4 2 1 2 4 6 6 7 12 14 14 14 14 14 15 18 21 23 25 27 29 32 34 34 33 32 31 30 30 29 29 28
16 15 13 12 10 10 12 10 10 11 11 10 8 6 6 7 8 8 7 7 7 9 10 10 9 9 9 10 10 9 7 7 6 5 4 4 4 5 4 7 10 11 12 13 12 13 14 16 18 21 23 25 28 31 33 35 36 36 35 35 34 33 33
14 13 11 10 8 6 6 6 6 7 8 7 5 4 5 6 8 8 7 6 7 7 7 7 6 5 5 5 7 7 6 5 5 5 5 6 7 8 8 6 6 8 10 11 12 13 14 14 15 17 19 21 24 27 30 32 35 36 36 36 36 36 36
13 10 8 7 4 3 2 1 2 3 4 4 4 5 5 6 7 6 6 6 6 7 6 5 5 4 4 2 2 5 5 3 4 5 5 5 6 7 8 8 7 6 7 9 10 12 14 14 15 15 16 17 19 22 25 27 29 30 31 31 32 33 34
10 8 6 5 3 4 4 4 5 6 6 5 5 6 7 6 5 5 6 6 7 7 7 6 6 6 6 7 7 7 8 6 5 5 5 5 6 6 6 6 6 5 6 7 8 9 10 11 13 15 15 16 17 19 21 22 23 24 24 25 26 29 31
8 6 5 4 5 7 9 9 10 10 10 9 8 8 8 8 7 6 6 7 8 9 9 8 8 7 8 9 9 10 10 9 8 6 4 4 6 5 4 4 4 5 6 7 9 8 6 6 9 11 13 14 16 18 19 20 21 21 21 22 23 25 28
7 5 4 4 6 8 10 11 12 13 12 12 11 9 9 10 9 9 9 9 9 11 11 11 10 9 9 9 9 10 10 9 7 5 2 2 3 3 3 3 4 4 5 6 7 7 5 5 6 8 8 10 12 15 17 18 18 18 18 19 21 23 25
6 4 3 3 5 8 10 10 11 12 12 12 11 9 8 8 8 9 10 11 11 12 13 13 12 12 11 10 9 9 9 9 7 4 2 2 1 1 1 2 3 3 3 3 3 4 5 6 7 9 9 9 8 9 12 14 15 14 13 14 17 18 20
7 4 2 2 4 6 9 10 11 12 12 11 9 7 6 5 5 6 8 10 12 12 13 13 13 13 12 11 9 8 8 9 9 7 6 5 4 4 3 2 2 4 3 3 3 4 6 7 9 11 13 14 13 11 11 13 14 14 12 9 11 14 16
7 4 2 1 3 5 7 9 11 11 9 7 5 5 5 5 5 6 8 9 10 11 12 12 13 13 13 12 11 10 9 9 9 9 9 9 8 7 6 5 5 6 5 4 6 8 9 11 12 14 16 16 15 13 12 14 15 13 11 10 12 14 16
6 4 2 2 3 5 6 8 9 8 5 5 6 7 7 8 8 8 10 10 10 11 12 13 13 14 14 13 13 12 11 11 11 11 12 11 11 10 9 9 9 10 10 9 10 12 14 15 16 17 17 15 13 11 12 12 12 12 14 15 15 14 15
7 5 3 3 3 4 6 7 8 6 5 7 9 10 11 12 12 12 12 12 12 11 12 13 13 13 13 13 14 14 14 14 13 13 13 14 14 14 13 13 13 13 13 14 14 15 15 15 15 14 14 14 13 13 14 13 11 11 13 14 14 13 13
6 5 3 3 4 5 5 6 6 7 7 9 12 13 13 12 10 9 9 9 9 10 10 12 13 13 12 13 14 15 16 16 16 15 15 15 16 17 17 17 17 16 15 14 14 14 13 14 14 13 14 15 17 17 15 13 12 12 12 11 12 13 14
6 5 3 3 5 4 4 5 6 7 9 11 11 10 8 7 7 7 7 7 8 9 9 10 12 13 13 14 15 16 16 17 18 18 17 17 16 16 17 18 19 19 18 15 14 13 13 14 14 14 15 16 17 17 16 15 14 14 13 12 14 15 16

ECMWFFLT1_850_spd_102.txt.gz
Wind_Speed
30 29 30 27 25 29 34 37 39 39 39 38 37 35 34 32 30 28 26 24 23 21 20 20 19 19 19 20 21 21 21 21 21 19 17 15 13 11 11 11 11 11 11 11 10 9 9 9 10 10 10 10 10 10 9 9 8 8 8 8 7 6 6
31 30 31 28 24 25 29 33 36 38 39 38 37 35 35 33 31 29 26 24 23 21 20 20 19 19 19 20 20 21 21 21 20 19 18 16 15 13 11 12 11 11 11 11 10 9 9 9 10 10 11 11 10 10 10 9 9 9 9 8 7 7 6
31 33 33 29 26 24 24 28 32 36 38 38 37 36 36 34 32 29 27 25 23 22 21 20 19 19 19 20 21 21 21 21 21 20 18 17 16 14 12 12 12 11 11 11 10 9 9 9 10 11 11 11 11 10 9 9 9 9 9 9 8 8 7
29 33 33 30 27 24 22 23 28 32 35 37 37 37 36 35 33 30 28 26 24 23 21 20 19 19 20 21 22 22 22 21 21 20 19 17 16 15 14 13 13 12 11 11 10 10 9 9 10 11 12 12 11 10 9 9 9 9 8 9 9 8 8
22 25 26 27 28 26 23 21 23 28 32 34 36 37 37 36 35 33 30 28 26 23 21 19 19 20 21 21 21 22 22 21 21 20 19 18 17 16 16 15 14 13 12 11 11 10 10 10 11 12 12 12 11 11 10 9 9 9 9 9 9 8 8
16 18 21 26 26 24 22 21 20 22 27 32 35 36 37 37 36 34 32 30 27 25 23 22 21 20 20 21 21 22 22 21 21 21 20 19 18 18 17 16 15 14 13 12 11 11 11 12 12 12 13 12 12 11 11 10 9 9 9 9 9 9 8
15 16 18 23 24 22 23 24 22 19 20 25 30 34 36 38 38 36 33 31 29 27 26 25 23 21 20 20 21 21 21 21 21 21 21 20 20 19 18 16 15 14 13 13 12 12 13 13 12 12 12 12 12 12 11 11 10 9 10 9 9 9 9
15 15 16 17 20 21 25 29 29 25 22 22 26 31 35 36 37 36 33 31 30 29 28 27 25 22 20 19 20 20 20 21 21 21 21 21 21 21 19 18 16 14 13 13 13 13 13 13 13 13 13 13 12 12 12 11 10 10 10 10 10 10 10
16 15 15 15 16 17 19 24 28 29 28 27 25 27 31 34 36 36 35 34 32 30 29 29 28 25 22 21 20 19 19 20 21 21 22 22 22 22 21 19 17 16 14 13 13 13 14 14 14 14 13 14 13 13 12 12 11 10 10 11 11 11 11
17 15 14 14 14 15 15 17 22 25 27 29 29 27 27 28 30 33 35 35 34 32 31 31 30 28 26 24 22 21 20 20 21 21 22 23 23 23 22 21 19 18 16 15 14 14 13 14 15 15 15 15 14 13 13 12 11 10 10 11 11 12 12
17 16 14 13 12 13 13 13 15 19 24 29 30 28 25 25 26 30 33 35 35 33 32 31 31 29 28 27 26 25 23 21 21 21 22 23 24 24 23 22 22 20 19 18 17 16 15 14 15 16 16 16 15 14 13 13 12 12 11 11 11 11 12
16 15 13 11 11 13 13 12 12 16 21 25 25 25 26 27 29 31 32 32 31 31 31 30 30 29 28 27 27 27 26 24 22 21 22 23 24 24 25 24 24 23 21 20 19 18 17 16 16 17 17 17 17 16 15 14 13 13 13 12 12 11 12
16 15 15 13 11 12 14 14 13 15 17 19 20 23 27 28 28 29 29 27 25 26 27 27 28 29 28 28 28 28 28 27 24 23 22 23 23 24 25 26 25 25 23 23 22 21 20 19 19 19 19 19 18 17 16 15 14 14 13 12 11 11 12
17 16 15 14 11 10 12 14 13 10 10 11 13 18 23 24 23 24 26 27 27 27 27 26 27 28 30 31 30 28 29 28 26 24 23 22 23 24 25 26 26 25 25 24 24 23 23 22 21 20 20 20 19 18 18 17 17 16 15 13 12 12 12
17 15 15 14 13 11 12 13 11 8 5 6 7 9 12 15 18 20 21 23 24 25 27 27 26 26 27 29 29 28 28 28 26 24 23 22 23 23 24 25 25 25 25 24 24 23 23 23 22 22 22 21 20 19 19 19 19 19 18 17 15 14 13
18 17 15 14 14 14 14 13 11 9 8 7 7 7 8 8 10 13 15 16 17 19 23 27 28 26 24 25 26 25 27 28 26 25 24 23 23 23 22 23 24 24 25 24 23 22 21 21 22 22 23 22 21 20 20 20 20 20 19 19 18 17 15
21 19 18 17 17 18 18 16 14 12 12 11 10 8 6 4 2 2 5 9 11 12 15 21 26 26 23 22 22 24 26 27 25 25 24 23 23 22 22 23 23 23 23 24 24 23 22 22 22 22 23 23 22 21 20 20 20 20 20 20 20 19 18
23 21 21 20 22 22 22 21 19 16 15 14 12 11 9 8 7 7 7 4 1 3 8 14 18 19 18 18 19 21 24 27 27 27 26 25 24 23 23 24 24 23 23 23 24 24 23 23 23 22 22 22 23 22 21 20 19 19 19 20 20 21 21
24 23 23 23 25 26 26 25 24 21 19 17 15 15 14 12 11 11 11 9 7 5 6 8 9 10 11 11 12 15 18 22 24 24 24 24 24 24 25 25 25 24 24 23 24 24 24 24 24 23 22 22 23 23 22 21 20 19 20 20 21 22 23
25 24 24 24 25 26 26 27 26 24 22 20 18 17 17 16 16 16 13 11 10 10 10 11 11 9 7 7 8 10 13 16 16 17 18 19 20 22 22 23 24 24 24 24 24 24 24 24 25 24 23 22 23 24 24 23 21 21 21 21 21 22 24
25 25 24 23 24 24 24 23 24 23 23 21 19 18 18 18 18 18 17 15 14 14 13 11 10 10 11 11 11 11 11 13 14 14 15 15 16 17 17 17 20 22 23 24 24 24 25 26 25 24 24 24 25 27 27 25 24 23 23 23 22 23 24
26 25 24 23 22 22 21 20 21 20 20 20 19 18 18 16 15 17 18 18 18 18 17 14 11 10 9 9 9 9 9 10 10 11 12 13 13 13 13 14 16 18 18 19 21 22 24 25 25 24 25 26 28 30 29 28 26 25 25 24 24 24 25
24 25 24 23 22 21 20 19 19 18 17 18 19 18 17 15 13 14 16 17 18 18 17 17 15 12 11 10 9 9 9 8 7 7 9 11 11 12 13 14 15 15 14 15 17 20 21 22 23 24 25 27 30 31 30 29 27 26 26 25 25 25 26
23 23 23 22 21 21 20 18 17 16 15 16 17 17 15 13 11 12 14 15 15 16 17 17 17 15 13 12 12 11 11 10 8 6 4 4 6 9 12 11 11 12 13 13 14 15 17 18 19 20 23 25 27 28 28 28 26 25 25 25 26 26 26
23 22 21 20 19 18 17 15 14 13 12 13 14 14 13 12 11 11 12 12 11 12 14 15 15 14 13 12 11 10 11 11 11 11 8 5 1 5 9 10 9 11 12 13 12 12 13 15 16 17 20 21 22 23 23 23 23 23 23 23 24 24 25
22 21 19 18 16 15 14 12 10 9 9 10 11 10 10 10 10 10 10 10 8 8 10 12 11 10 10 10 9 8 8 8 9 10 10 8 7 4 5 7 8 10 11 12 12 11 12 13 14 14 15 16 17 17 17 17 17 18 19 20 20 21 22
21 19 18 16 15 13 11 9 6 6 6 7 8 7 7 8 8 8 8 7 6 7 8 8 7 6 6 6 6 6 6 6 6 7 7 6 5 5 4 4 3 4 7 8 8 9 10 12 11 10 11 12 12 12 12 13 13 14 15 16 17 19 19
20 18 16 15 13 10 8 6 4 4 5 6 6 6 7 7 7 7 6 5 5 5 5 4 3 3 2 2 3 4 4 4 4 4 4 3 3 2 2 4 4 3 3 4 5 7 8 8 7 8 9 10 10 10 11 12 14 14 13 13 14 16 18
19 17 16 14 12 8 5 3 3 4 5 7 8 9 9 9 8 7 6 5 4 2 2 3 3 3 3 3 3 3 3 2 2 2 1 2 2 1 1 1 3 3 4 5 5 4 5 5 5 6 7 7 7 8 9 11 13 14 14 14 15 16 17
17 16 15 13 11 8 4 1 2 5 7 9 10 10 11 11 10 9 8 7 6 4 4 4 4 4 4 4 5 4 4 3 2 2 1 0 2 3 4 4 4 4 5 5 4 4 4 5 5 4 4 3 4 4 5 7 10 11 13 15 15 14 15
18 16 13 11 9 7 4 1 4 6 8 9 10 10 10 9 9 9 8 8 7 7 6 5 5 5 5 5 5 5 5 5 4 4 4 3 3 3 5 5 5 4 4 4 4 4 4 5 5 4 2 2 2 3 5 7 8 9 11 12 13 13 14
19 17 13 10 7 4 2 3 5 6 7 8 8 8 8 8 7 7 7 7 8 8 8 7 6 5 5 5 5 5 6 6 7 7 7 7 7 6 6 6 6 6 6 5 5 5 5 6 6 5 4 3 3 3 4 6 7 8 9 10 11 11 12
19 15 11 8 4 2 2 3 5 7 8 8 7 8 8 7 7 7 7 7 8 8 8 8 8 7 6 5 5 5 6 7 7 8 9 9 10 10 10 9 9 8 9 9 9 8 8 8 8 8 7 7 6 5 5 6 6 7 8 8 9 10 10
17 12 9 6 3 1 1 3 6 7 8 7 7 8 9 8 8 8 8 8 9 9 9 8 8 8 7 6 6 6 6 7 7 8 9 10 11 12 12 13 12 12 12 12 12 12 11 11 11 11 11 10 10 11 10 10 9 9 9 9 9 9 9
13 11 10 8 5 3 2 5 6 7 8 8 8 8 9 9 9 9 8 8 8 8 8 8 7 7 7 7 7 7 7 7 7 8 9 9 9 10 11 13 14 14 13 13 14 14 14 14 14 14 13 13 13 15 15 14 13 12 12 11 11 11 10
15 14 12 10 7 4 2 5 6 7 8 8 8 8 9 9 9 7 6 6 6 6 7 7 7 7 7 7 7 8 8 8 8 9 9 10 10 10 10 11 13 14 15 15 15 15 16 16 16 16 16 15 15 16 17 17 17 16 15 14 14 14 14
14 12 10 8 6 3 2 4 5 6 7 8 8 8 9 8 7 6 5 5 5 6 6 7 7 7 7 7 7 8 8 8 8 9 9 10 11 11 10 10 11 12 14 16 17 17 18 17 18 18 19 19 18 18 17 18 18 18 18 18 18 18 17
12 10 8 7 5 3 2 3 4 5 7 8 8 8 8 7 6 5 5 5 5 5 6 7 8 8 9 10 9 9 10 10 9 9 9 10 10 10 11 11 10 10 11 13 15 16 18 19 19 19 20 20 21 21 20 19 19 19 20 20 20 20 19

ECMWFFLT1_850_spd_105.txt.gz
Wind_Speed
29 36 35 31 31 31 32 33 32 33 32 30 29 29 29 29 28 26 25 23 23 22 22 21 20 19 19 18 18 18 18 18 18 18 17 16 14 12 10 9 8 8 8 8 8 8 8 8 9 8 7 7 7 8 8 8 7 7 6 6 6 5 5
25 32 34 32 30 31 32 33 32 31 31 30 31 30 30 29 28 27 25 24 23 22 21 22 21 20 19 19 18 18 18 18 18 18 18 17 15 13 11 9 8 8 8 8 8 8 8 8 8 8 8 7 8 8 8 8 8 7 7 7 7 7 6
22 28 34 32 30 30 29 30 31 31 31 31 31 31 31 29 28 26 25 23 23 22 21 22 21 20 20 19 18 18 18 19 19 19 19 18 16 14 12 11 9 8 9 9 9 8 8 8 8 8 8 8 8 8 8 8 8 7 7 7 7 7 6
22 27 33 32 30 29 26 26 27 29 31 32 32 32 31 29 28 27 25 24 23 22 21 21 21 20 20 19 19 19 18 19 20 20 19 19 17 15 14 12 10 10 10 10 10 10 9 8 9 9 9 9 9 9 8 8 7 7 7 7 7 7 7
20 23 28 30 29 29 28 27 26 26 28 30 31 32 31 30 30 29 27 25 24 23 21 20 20 20 19 19 19 19 18 19 20 20 20 19 18 17 16 14 12 10 10 10 11 10 10 9 9 9 9 9 9 9 9 8 7 7 7 7 7 7 7
18 21 25 29 29 29 29 28 26 25 26 27 29 30 31 31 31 30 29 27 26 24 23 22 21 20 19 18 19 19 19 18 19 20 20 20 19 18 17 16 13 12 11 11 11 10 10 9 9 9 8 9 9 9 9 9 8 7 7 7 7 7 7
16 20 25 27 28 28 27 25 24 23 24 25 26 26 27 28 29 30 30 29 27 26 25 24 23 21 20 19 19 18 18 18 18 19 20 20 20 19 18 16 15 13 12 11 11 10 10 9 9 9 9 9 9 9 9 9 8 8 6 6 6 6 7
16 20 25 27 27 27 25 22 20 19 21 23 24 24 25 25 27 29 29 29 29 28 27 26 24 23 21 19 18 17 17 18 18 18 20 20 20 20 19 18 16 14 13 12 11 11 10 9 9 9 9 9 9 9 9 9 9 9 8 7 6 6 6
17 20 23 26 27 28 27 25 21 19 18 19 21 23 24 25 26 27 28 28 28 28 28 28 27 25 23 21 19 18 17 17 17 17 18 20 21 20 19 19 17 16 15 13 12 11 10 10 10 10 10 10 10 9 9 9 9 9 9 8 7 6 7
14 16 19 22 25 28 31 33 30 25 22 21 22 23 23 24 26 27 28 28 27 26 26 27 28 26 24 23 21 20 18 17 17 17 17 18 20 20 20 20 19 17 16 15 13 11 10 10 10 10 10 10 10 10 10 9 9 10 10 9 8 7 7
12 12 13 16 19 22 28 33 34 33 31 29 28 28 26 24 24 24 25 26 27 27 27 27 27 25 24 23 22 21 20 19 19 18 17 17 18 19 20 20 20 19 18 16 15 13 11 11 10 10 10 10 10 10 10 10 10 10 10 9 8 8 7
11 11 10 11 13 15 17 20 23 27 30 30 30 31 30 28 26 25 26 26 26 28 29 29 29 27 26 25 23 22 21 21 21 20 19 17 17 17 19 20 21 21 20 18 17 15 13 13 12 11 11 11 11 11 11 11 11 11 10 10 9 8 8
8 7 8 10 11 10 9 10 12 18 22 21 21 25 27 27 26 25 26 26 26 27 29 30 30 29 28 27 25 24 22 22 22 21 20 20 18 17 18 19 20 21 21 20 18 17 16 15 15 14 13 13 13 13 13 12 12 12 11 11 10 10 9
9 8 7 8 9 7 6 6 8 14 17 16 16 20 22 23 23 22 22 23 23 26 27 28 28 29 29 28 28 26 25 24 22 21 21 21 20 18 18 18 19 20 21 21 21 20 19 17 16 16 16 16 15 15 15 14 14 14 13 12 11 11 10
10 10 10 10 9 8 8 8 8 10 12 13 15 16 17 19 21 20 20 20 21 23 24 25 25 27 28 28 28 29 28 26 24 23 23 22 20 19 18 18 19 20 21 21 22 22 21 19 18 18 18 18 18 17 17 17 16 15 14 13 13 13 12
11 11 12 13 12 13 14 14 14 12 11 11 12 12 12 13 15 18 19 20 21 22 23 24 25 26 27 27 27 28 28 27 26 26 25 23 22 20 19 18 19 20 21 21 22 22 21 20 19 19 20 19 19 19 19 19 18 16 15 14 14 14 14
12 13 14 16 17 18 18 18 17 15 15 15 14 13 12 10 9 11 14 16 18 19 20 22 24 26 27 27 26 25 25 25 25 27 25 24 24 23 21 20 19 20 21 21 21 21 20 19 19 19 19 20 20 20 20 20 19 17 16 15 15 15 15
14 14 16 20 22 22 21 19 18 18 17 17 17 16 15 13 12 10 10 11 12 13 14 16 18 20 22 24 25 25 25 24 24 25 25 24 26 26 24 22 20 20 21 22 21 20 19 19 18 18 19 20 20 21 21 21 20 18 16 16 15 15 15
15 16 18 22 23 23 22 20 18 18 18 17 16 16 16 16 15 13 11 11 10 11 13 14 14 15 16 17 19 21 23 23 24 25 25 25 26 26 24 22 21 20 20 20 20 19 19 19 19 19 19 20 20 20 20 21 21 19 17 16 15 15 15
20 20 22 24 23 23 23 22 21 20 20 19 18 17 17 17 17 16 14 12 11 12 14 14 13 14 16 17 17 17 18 20 22 24 25 26 27 26 25 23 22 20 20 20 20 20 19 19 20 20 20 20 20 20 20 20 20 20 19 18 17 16 16
26 26 27 27 25 24 24 24 23 22 21 21 19 18 18 17 17 17 15 14 13 14 14 13 13 12 13 14 15 16 16 17 18 20 21 23 25 26 25 24 23 22 21 21 22 21 20 21 21 21 20 20 21 21 20 20 20 19 20 20 19 18 18
27 27 28 28 27 26 25 24 24 22 22 21 19 19 19 18 16 16 15 14 14 14 14 13 12 11 10 10 10 11 12 13 14 14 15 16 18 21 23 23 23 23 22 22 22 21 20 21 22 22 21 22 22 22 22 22 22 20 20 21 21 21 21
27 28 28 27 26 25 24 23 23 22 21 21 20 19 18 17 16 16 16 15 14 15 14 13 13 12 10 9 8 7 6 5 6 8 10 14 18 19 19 20 20 20 20 21 21 20 20 21 21 21 21 21 21 22 22 23 23 23 22 22 23 23 23
26 26 26 26 25 24 23 23 22 21 21 21 20 18 16 15 15 15 15 15 14 14 14 15 15 14 13 11 10 8 7 6 4 3 6 10 15 16 16 16 15 16 16 17 18 18 18 18 18 18 18 18 17 17 19 19 21 23 24 24 25 26 26
24 24 24 24 23 22 22 21 19 19 19 20 20 18 14 12 12 14 14 14 14 14 15 16 15 14 13 12 11 10 10 9 8 6 5 5 7 10 12 12 12 12 13 13 13 14 15 15 15 15 16 15 13 13 14 14 16 20 22 24 26 27 28
22 22 23 22 21 20 19 17 16 16 16 17 17 15 12 10 10 11 12 11 11 12 14 14 13 12 11 11 10 9 9 8 9 9 9 8 6 5 8 9 9 10 10 9 9 10 11 13 13 13 14 14 14 14 13 11 11 14 17 20 22 24 25
21 21 21 20 18 17 15 14 13 14 14 14 13 12 11 9 7 9 9 8 7 9 11 11 10 9 8 8 7 7 7 7 8 9 9 10 10 7 4 2 3 7 8 7 6 5 6 7 9 11 12 13 12 13 13 12 10 11 14 16 17 19 21
22 21 19 17 15 13 12 11 11 12 12 12 11 10 9 8 7 7 6 4 5 7 8 7 7 6 5 5 5 5 5 5 6 6 6 7 7 7 7 5 3 3 5 4 3 3 3 4 5 6 7 8 8 9 11 13 13 14 15 16 15 16 16
21 19 18 16 14 11 9 9 10 11 11 11 11 9 8 7 6 5 5 4 4 4 4 5 4 4 4 3 3 3 3 3 3 3 3 3 3 3 4 3 3 4 4 2 2 1 2 2 2 2 4 4 5 6 7 9 11 13 14 15 14 13 13
19 17 15 13 12 10 8 8 9 10 11 11 10 9 7 6 5 4 3 3 3 3 2 2 2 2 2 1 2 2 2 2 2 2 2 2 2 1 1 2 2 2 2 2 2 2 2 2 1 1 2 3 3 3 2 3 5 7 8 10 10 10 12
19 17 14 12 10 8 7 7 9 10 10 9 9 8 6 5 4 4 3 2 2 1 2 2 2 1 1 0 0 1 2 2 3 3 3 3 3 3 3 3 2 3 3 3 3 3 3 3 2 2 1 1 1 1 1 2 3 5 5 7 8 8 9
19 15 13 11 8 6 5 5 7 9 9 9 8 8 7 6 4 4 4 3 2 2 1 2 2 2 2 2 1 1 2 2 3 3 4 4 4 5 5 5 5 5 5 5 5 5 5 6 6 5 4 4 3 3 3 4 4 5 6 6 6 6 7
18 14 10 8 7 5 4 4 5 7 8 8 8 8 8 6 5 4 3 3 4 4 3 3 2 2 3 3 2 2 2 3 3 4 4 5 5 5 6 7 7 7 7 7 7 8 8 8 8 7 6 6 6 6 6 7 7 7 8 8 8 7 8
17 13 10 8 6 5 4 4 5 6 7 7 8 8 8 7 6 4 3 3 2 3 3 3 3 3 3 3 4 4 4 4 4 4 5 6 6 7 7 7 8 8 9 9 9 9 9 10 9 9 8 8 8 8 8 9 9 9 9 10 10 11 10
16 14 12 10 8 5 3 4 5 7 7 7 8 8 7 7 6 5 4 3 2 2 2 3 3 3 3 3 3 4 4 5 5 5 6 6 7 8 9 9 10 10 10 11 12 12 12 12 11 11 11 11 11 11 11 11 12 12 12 12 12 12 13
15 14 12 10 8 5 3 3 4 7 8 8 8 8 7 6 5 4 4 4 3 3 3 2 3 3 3 3 3 3 4 4 5 5 6 6 7 7 9 10 11 11 11 12 13 14 14 14 14 14 13 12 12 13 13 14 15 15 16 16 15 15 15
17 13 12 11 8 4 2 1 4 6 7 8 8 7 6 5 4 4 4 3 4 4 4 4 4 4 3 3 3 4 4 4 5 5 5 6 6 6 6 7 9 11 12 12 13 14 14 15 16 17 17 16 15 14 14 15 17 17 18 18 18 18 18
18 14 13 12 9 6 5 2 3 4 6 7 7 7 6 5 4 4 4 4 4 4 5 5 6 5 5 5 5 5 5 4 5 5 5 5 6 6 5 5 5 7 9 10 11 12 13 14 15 16 17 18 18 17 17 17 18 18 19 19 19 19 19

ECMWFFLT1_850_spd_108.txt.gz
Wind_Speed
28 35 33 25 23 25 25 24 23 23 22 22 22 21 19 18 19 20 20 21 21 20 19 18 17 16 16 15 15 14 15 15 15 15 14 13 12 11 10 9 9 8 8 7 7 8 9 9 9 9 9 9 8 8 8 8 8 7 6 7 6 6 6
24 29 31 27 24 25 25 25 23 23 23 23 22 20 18 18 20 22 22 22 21 20 20 19 17 16 15 15 16 16 16 16 16 16 15 14 15 14 12 10 9 10 9 8 7 8 9 9 10 9 9 8 8 8 7 7 7 6 6 7 6 7 7
22 26 29 28 26 26 25 24 24 23 23 22 21 19 19 19 20 22 23 22 22 21 20 19 18 17 16 15 16 16 16 16 17 17 16 15 15 14 12 12 11 10 9 9 8 8 8 9 9 9 9 8 7 7 7 6 6 6 7 7 6 7 7
23 24 25 25 24 24 24 24 23 22 22 21 20 19 19 20 21 21 22 22 22 22 21 20 19 18 17 16 16 16 16 17 17 17 16 14 14 13 13 13 12 10 10 10 9 9 9 9 9 9 10 9 9 8 7 7 6 7 7 7 6 7 7
22 22 23 24 23 22 21 21 22 20 18 18 19 19 18 19 20 21 22 23 22 21 21 20 18 18 18 17 17 17 16 17 17 17 17 15 14 14 14 13 12 11 11 10 10 11 11 10 9 9 10 9 9 9 8 7 7 7 7 6 6 6 6
21 22 23 25 26 25 22 21 23 22 18 18 19 20 18 19 20 19 21 22 22 22 21 20 19 18 19 18 17 17 16 17 17 17 18 17 15 15 14 14 13 12 12 11 11 11 11 11 10 10 10 9 9 8 8 8 7 7 7 7 6 6 5
18 20 21 22 23 26 27 26 27 25 21 18 18 19 18 19 20 20 21 22 23 23 23 22 20 19 19 18 17 17 17 16 16 16 17 18 17 16 15 14 13 12 12 11 12 11 11 11 11 11 11 10 10 9 9 9 9 8 8 7 7 7 7
15 17 18 18 20 25 31 31 26 24 22 19 17 17 18 20 21 21 22 22 23 24 24 23 21 21 20 19 18 17 17 16 15 15 16 17 18 17 16 15 14 14 13 12 12 12 12 12 11 12 11 10 11 11 11 11 9 8 8 8 7 6 6
12 14 16 17 18 22 31 31 26 24 23 21 19 18 18 20 20 20 21 21 22 23 23 22 22 22 23 21 20 18 17 16 16 15 15 16 17 17 17 16 15 15 14 13 13 12 13 12 12 12 12 11 12 12 11 11 9 9 10 9 8 7 7
11 13 15 17 16 18 25 28 26 24 23 22 21 19 19 20 18 18 19 20 22 22 21 21 21 22 23 23 22 20 17 16 16 16 15 15 16 17 17 16 15 15 15 14 13 13 13 13 12 13 13 12 12 12 11 11 10 10 10 10 9 8 8
10 12 14 16 16 18 22 25 26 25 24 24 23 21 21 20 19 19 19 19 20 20 20 20 20 20 21 21 21 21 19 17 15 15 15 15 15 15 16 16 16 15 15 15 14 13 13 13 13 13 13 12 12 11 11 11 11 11 11 10 9 9 8
7 9 12 14 15 17 20 22 24 24 24 24 25 24 23 23 23 24 23 22 21 20 19 19 19 20 19 19 20 20 20 18 16 15 15 15 15 14 15 16 16 16 15 15 15 15 14 13 13 13 13 13 12 11 11 11 11 11 11 11 10 10 10
6 7 9 12 13 16 18 19 21 24 25 25 26 26 26 25 25 25 26 26 25 24 23 21 20 21 20 19 19 20 20 18 17 16 15 14 15 14 14 15 16 16 15 15 15 16 15 14 13 13 13 13 12 12 12 12 12 12 12 12 12 12 11
8 8 8 9 11 12 13 14 15 20 24 26 27 28 29 28 27 25 26 27 26 25 25 25 24 23 23 22 22 22 21 18 17 17 17 16 16 15 15 15 15 16 15 15 16 16 16 15 14 14 13 13 13 12 13 13 13 13 13 13 13 12 12
9 9 10 9 9 9 9 10 12 14 17 19 22 25 26 27 28 27 28 28 27 27 27 28 26 25 25 26 26 26 25 23 21 20 19 19 19 18 17 16 16 17 16 17 17 16 16 15 15 15 14 13 14 14 14 14 13 13 14 14 13 11 11
11 11 11 10 10 10 10 9 10 11 11 12 14 15 17 19 21 22 23 23 23 23 24 26 25 25 26 28 29 29 28 26 26 24 22 21 19 19 20 19 19 18 18 19 20 18 18 17 17 16 15 15 15 15 16 15 14 16 17 16 14 13 12
12 12 11 11 11 11 11 10 11 11 11 11 11 12 13 14 15 16 18 19 18 18 20 21 21 22 23 25 27 28 28 28 29 28 27 25 23 22 21 21 22 21 20 20 21 20 21 20 20 18 17 16 16 16 16 15 15 18 19 17 16 17 17
13 13 12 12 12 11 11 11 11 11 11 11 12 13 14 16 15 15 15 17 17 17 17 18 18 19 20 21 22 24 26 27 27 27 27 27 26 25 24 24 24 24 22 21 21 21 22 22 22 21 19 17 15 15 15 14 16 19 20 17 16 18 18
13 13 13 13 13 13 12 12 12 12 11 11 10 11 13 16 16 16 16 17 19 18 18 19 19 20 20 20 19 20 21 23 23 23 23 23 24 25 26 27 26 25 24 22 21 21 22 22 22 22 21 19 18 17 16 14 16 20 20 17 17 17 18
14 14 15 14 13 13 13 13 13 13 13 12 11 11 13 15 15 15 14 16 18 19 21 21 20 20 21 20 19 18 19 20 22 22 21 21 22 23 25 27 27 26 25 23 21 21 22 22 22 22 22 22 21 20 18 16 17 21 20 17 17 18 18
15 15 16 15 13 14 15 15 15 14 13 13 13 14 14 13 13 13 12 12 13 16 18 19 18 17 17 18 18 18 17 18 19 20 19 20 21 21 23 25 25 24 24 23 23 22 21 20 20 20 21 21 21 21 19 17 18 21 21 18 19 20 19
16 16 17 17 17 17 17 17 18 18 17 16 14 14 15 14 12 11 10 9 9 10 11 12 12 12 12 13 15 17 17 18 18 18 18 19 19 19 21 23 25 24 23 23 23 22 20 19 18 18 18 19 19 19 18 16 18 22 22 20 20 21 21
19 19 19 18 20 21 20 19 20 20 19 18 16 15 14 14 13 12 12 12 10 9 9 9 8 7 7 8 8 9 11 12 14 14 15 17 18 19 19 20 24 26 24 22 23 23 23 20 18 17 17 17 18 19 18 17 20 23 23 22 21 22 22
24 24 23 22 22 22 21 20 19 18 17 17 16 16 15 14 13 13 13 14 13 12 12 12 12 11 10 9 9 8 7 7 7 8 9 11 14 18 17 17 21 26 25 21 21 21 21 21 19 17 17 17 18 18 18 18 21 24 23 22 22 23 23
24 22 23 23 22 22 21 20 19 17 16 15 15 14 12 12 12 13 14 15 15 14 14 14 14 13 13 12 11 10 9 7 6 5 6 6 8 11 12 11 13 18 21 21 20 18 18 18 17 17 17 17 17 16 15 16 20 22 22 20 20 21 22
21 18 19 21 21 21 20 19 18 17 15 15 14 12 10 9 10 11 13 14 14 14 14 14 14 13 12 12 12 11 10 9 8 7 6 5 5 6 6 6 6 8 15 19 18 17 18 16 15 15 15 14 14 14 15 17 18 17 17 17 17 18 19
17 17 18 20 21 20 18 18 17 16 15 13 12 11 9 8 7 9 10 11 11 12 12 11 11 11 10 10 10 10 10 10 10 11 11 9 7 5 3 4 3 4 8 12 12 12 14 15 15 14 13 13 13 14 15 15 13 10 11 14 15 15 15
17 18 19 19 18 17 16 16 15 14 14 12 10 9 8 7 6 7 7 8 8 9 9 9 8 8 8 8 8 8 8 8 8 9 11 11 10 9 9 7 6 5 5 4 4 5 6 7 8 8 8 9 9 9 10 11 12 11 12 14 15 14 13
16 17 16 15 14 13 12 14 14 13 12 10 8 8 7 5 5 5 5 6 8 7 7 6 6 6 6 5 5 5 5 6 6 6 8 9 8 8 9 10 9 9 8 6 5 5 5 4 3 2 4 4 3 3 5 7 9 11 12 14 14 14 12
16 15 14 11 10 10 10 11 13 12 11 10 8 7 6 4 4 4 3 4 6 6 5 5 5 5 4 3 3 3 3 3 4 4 5 6 6 6 7 7 7 7 7 7 6 6 5 4 4 3 2 3 4 3 3 4 6 7 7 8 9 10 9
17 15 13 11 11 11 10 10 12 11 10 9 8 6 5 4 3 2 2 2 3 4 4 4 4 4 4 3 3 3 2 2 2 2 3 4 4 5 5 5 6 6 5 5 4 4 4 3 3 3 2 3 4 3 3 3 3 3 3 4 5 5 6
18 16 15 13 12 12 9 8 9 10 9 8 7 6 5 4 2 2 2 2 2 2 2 3 3 3 3 3 2 3 3 3 2 1 2 3 3 3 4 4 4 5 4 4 4 4 3 3 4 4 3 2 2 2 2 2 2 3 3 4 5 5 6
16 15 13 10 8 6 3 3 5 7 7 6 6 5 4 4 4 3 4 5 4 2 1 3 3 3 3 3 3 2 2 3 3 2 1 3 3 3 4 5 5 5 6 6 6 5 5 5 6 6 5 3 2 2 2 2 4 6 6 6 7 8 9
13 12 10 9 6 5 3 2 4 6 7 6 4 3 3 4 4 3 4 5 4 3 3 4 3 3 2 2 2 1 1 1 1 2 1 1 3 4 4 5 5 6 8 8 8 8 8 8 8 8 8 7 6 6 6 4 6 9 10 9 10 10 10
14 12 10 8 7 6 4 3 4 4 4 3 3 2 2 3 3 3 4 4 4 4 4 4 4 3 3 2 2 2 2 2 1 1 2 3 3 4 5 6 6 7 9 9 10 10 11 11 12 12 11 11 11 11 10 8 10 12 13 13 13 13 12
17 15 10 9 8 5 3 2 3 4 4 3 3 3 3 3 4 5 5 4 4 4 4 4 4 4 3 4 3 2 3 4 3 1 2 3 1 2 5 6 6 7 8 9 9 10 11 12 12 13 13 12 12 13 13 13 14 15 14 15 16 15 15
20 16 11 9 9 6 4 3 2 3 3 4 5 5 5 5 6 7 6 5 5 5 5 5 6 4 3 3 2 1 2 2 2 1 1 2 2 1 1 4 6 7 8 8 9 9 9 10 10 11 11 11 12 13 14 14 15 15 15 16 16 16 16
22 17 13 12 10 9 7 5 3 1 2 3 6 6 6 6 7 8 8 7 6 6 6 7 7 5 4 3 2 3 3 2 1 1 1 1 0 2 3 1 2 7 9 8 8 8 9 10 9 10 10 10 11 12 13 13 14 14 14 14 15 15 15

ECMWFFLT1_850_spd_111.txt.gz
Wind_Speed
30 33 28 22 24 25 25 25 24 24 24 23 23 21 21 20 18 18 18 19 20 20 20 19 18 17 17 16 15 15 16 15 14 13 12 11 10 9 9 9 10 10 9 8 9 9 9 9 10 10 10 10 9 9 9 8 8 7 6 8 9 7 7
27 33 30 23 23 24 24 25 24 23 24 23 23 22 21 20 19 18 18 18 19 19 19 19 19 18 17 16 15 15 16 16 15 14 12 12 12 12 10 9 9 10 10 8 7 8 10 11 11 11 11 9 8 9 8 8 9 8 7 9 9 9 8
25 31 31 26 25 24 23 24 23 23 24 23 23 22 21 20 19 19 18 18 19 19 19 19 19 18 17 17 16 16 16 16 16 15 13 13 13 12 11 10 10 10 10 9 8 8 9 11 11 12 12 10 9 10 9 9 9 9 10 9 7 8 8
24 27 30 28 26 26 24 24 23 23 23 23 23 22 21 20 19 19 19 19 19 19 19 19 18 17 17 17 17 16 16 16 16 15 14 13 12 11 11 12 12 10 9 9 9 9 9 9 11 12 12 12 12 11 10 10 9 9 10 7 6 8 8
22 24 28 29 27 26 26 26 25 24 23 23 23 22 21 20 19 19 20 19 19 19 19 19 18 18 17 17 16 16 16 16 16 15 14 13 12 12 13 13 13 12 12 13 12 11 10 9 10 11 11 12 13 12 11 10 10 10 9 7 7 8 7
21 23 27 30 29 27 27 27 26 26 24 23 22 20 20 19 19 19 20 20 19 19 19 18 18 18 18 17 16 16 15 16 16 16 16 15 14 14 13 13 13 12 13 14 13 11 11 11 11 11 11 11 11 11 11 10 10 10 9 8 8 8 7
21 22 24 29 31 30 30 28 26 25 24 23 22 20 19 19 19 19 19 20 20 19 19 19 18 17 17 17 16 16 16 16 16 17 16 16 16 15 14 14 14 13 14 14 13 12 13 13 12 12 12 11 11 11 11 11 10 10 10 9 9 9 10
23 23 24 28 29 28 30 29 27 27 26 24 22 20 18 18 18 17 17 18 18 19 19 19 18 17 17 16 16 16 16 16 16 16 17 17 17 16 15 15 15 16 16 15 14 15 15 14 13 13 13 12 12 12 11 12 12 11 11 11 9 9 11
22 23 25 27 26 25 27 28 28 28 27 23 21 20 18 17 16 16 15 15 16 18 20 19 18 17 16 15 16 16 16 16 16 16 17 17 17 17 17 16 16 16 17 15 15 15 14 14 14 14 13 14 14 13 12 13 14 12 12 12 11 10 10
19 23 23 24 25 26 25 25 26 28 27 23 21 20 18 17 16 15 14 14 15 17 19 19 18 17 17 16 15 15 15 16 16 16 17 17 18 18 18 18 17 17 17 16 16 16 15 15 15 15 15 15 15 14 14 15 14 13 13 13 13 11 10
16 20 21 23 27 28 25 24 26 28 28 26 23 21 19 18 16 14 14 14 15 15 17 18 18 18 19 19 18 17 16 16 16 16 17 17 17 18 18 19 18 19 19 17 16 17 16 15 14 14 16 16 15 15 15 15 14 14 13 13 13 12 11
13 18 19 20 25 26 23 24 28 29 28 25 23 21 21 19 16 15 15 15 15 16 17 17 18 19 20 21 21 21 19 17 16 16 17 17 17 17 18 19 19 20 21 19 18 17 15 14 15 15 16 16 16 16 15 15 14 14 14 13 13 12 12
9 14 17 19 20 21 20 22 26 29 28 25 22 20 21 20 17 16 16 15 16 17 17 17 18 18 18 20 21 22 23 21 18 17 17 17 18 17 17 18 19 19 19 18 17 17 17 17 17 17 17 17 17 16 15 15 15 15 16 14 13 13 12
7 9 13 15 17 18 18 18 20 22 24 25 24 22 22 22 21 19 19 19 19 18 16 16 17 18 18 20 20 21 22 21 20 19 18 17 17 18 17 17 18 18 18 18 17 18 18 18 17 18 18 18 17 17 16 17 16 16 17 15 14 14 13
7 8 9 10 12 14 15 15 16 17 18 21 22 22 23 23 23 24 25 25 24 22 19 18 18 18 19 21 21 21 21 19 18 19 19 19 19 20 19 17 17 18 18 18 19 18 19 19 18 18 18 18 18 18 17 17 16 16 17 16 15 14 14
8 9 10 10 10 11 11 13 14 14 15 16 17 20 22 22 22 23 23 23 23 23 23 22 20 20 20 21 21 22 22 22 21 21 22 22 22 23 23 19 17 17 18 19 19 18 19 20 20 20 19 18 18 18 17 17 16 16 17 16 15 14 13
11 12 12 12 12 11 10 10 11 12 14 15 15 17 19 20 22 23 23 23 24 24 24 25 25 26 26 26 25 25 24 25 25 26 25 24 25 26 25 23 20 18 18 19 19 20 20 21 21 22 21 20 20 20 19 17 16 16 18 18 16 14 14
11 11 12 11 11 11 10 9 9 10 11 13 13 14 15 16 17 18 19 21 23 23 24 24 25 27 27 28 28 29 29 29 29 29 28 27 27 26 25 25 24 23 22 21 20 22 23 24 24 23 22 21 20 19 17 16 16 17 18 19 19 17 15
9 9 10 10 11 11 10 10 9 8 8 9 10 12 14 14 13 14 15 16 16 17 18 19 19 20 21 22 23 24 26 28 29 31 31 30 29 28 26 26 25 25 24 23 22 23 25 25 25 24 23 22 20 18 17 16 17 18 19 20 21 20 18
10 10 10 11 10 10 9 9 9 10 9 9 9 11 13 12 11 14 16 16 16 16 17 17 17 17 17 18 19 19 20 22 23 25 28 30 30 30 30 30 28 26 24 23 24 25 24 22 21 23 24 24 22 20 18 17 17 18 19 21 22 22 20
11 11 11 11 10 9 9 10 10 10 9 8 7 6 8 8 9 14 16 15 15 16 16 15 16 17 18 16 16 17 18 19 19 19 21 24 26 27 29 29 29 29 28 27 26 25 24 23 22 22 21 22 23 22 20 18 18 18 18 20 23 23 21
11 12 12 12 11 11 11 11 11 11 11 10 10 9 7 7 6 8 11 11 12 13 14 14 15 17 18 17 16 16 18 18 17 16 16 18 20 21 22 23 25 27 29 28 27 26 26 25 25 22 20 19 21 20 19 20 21 20 19 20 22 22 21
12 12 13 13 13 13 13 12 12 11 11 11 11 11 10 9 9 8 7 6 7 8 10 11 11 11 11 10 10 12 14 15 15 16 15 16 18 19 19 20 22 24 25 26 27 28 28 27 25 23 21 19 16 16 19 22 22 20 20 21 22 22 21
14 14 14 14 14 15 14 14 14 12 13 13 13 13 13 11 10 11 10 9 7 6 6 7 7 8 8 6 5 4 5 6 8 9 10 11 15 18 19 20 20 20 20 23 25 27 29 28 25 23 22 20 16 14 15 19 19 19 20 22 23 23 21
14 14 14 14 14 16 16 15 14 13 14 13 13 13 13 12 12 11 10 10 9 8 8 9 9 7 7 7 7 5 3 2 2 3 4 7 9 12 13 15 16 15 16 20 22 24 26 26 23 21 21 21 19 17 13 12 14 16 18 20 21 22 21
15 14 14 15 15 15 14 14 13 13 14 14 13 12 11 11 12 12 10 9 10 10 9 9 10 8 7 6 6 6 6 5 3 3 2 3 4 5 6 7 8 9 11 14 17 20 22 22 20 20 21 21 21 18 13 12 15 15 15 17 19 20 19
17 15 15 15 15 15 14 13 12 12 13 12 11 10 8 8 10 12 11 10 11 10 9 9 10 8 6 6 6 7 8 7 6 5 5 3 2 2 3 3 2 2 5 9 12 15 18 17 17 20 21 19 17 16 12 13 16 15 14 15 17 17 16
17 16 14 14 15 15 14 13 12 12 11 10 9 9 7 4 7 10 10 9 10 9 8 8 8 7 6 6 6 6 8 8 7 7 6 6 5 4 4 4 4 1 1 3 5 8 12 12 12 14 15 13 12 13 12 12 15 15 13 15 16 15 13
20 16 13 13 13 13 13 12 12 12 11 8 7 8 7 3 4 6 5 6 7 7 7 7 6 6 6 5 4 5 6 7 7 7 7 7 6 6 7 7 6 4 4 4 3 3 4 4 3 5 8 8 8 9 9 10 12 14 15 16 17 15 13
21 18 16 13 13 14 14 13 11 11 10 9 7 7 7 5 4 4 3 3 3 3 5 6 6 6 6 4 4 5 5 5 6 7 7 7 6 6 7 7 6 6 6 6 6 5 6 6 6 6 5 5 4 3 4 6 8 10 12 13 13 11 10
16 16 15 14 14 14 14 13 11 11 11 12 11 10 8 7 5 5 4 4 3 0 1 3 5 6 6 5 4 6 7 6 5 5 6 7 7 6 6 6 5 5 6 6 6 6 7 7 6 6 6 6 4 1 2 2 3 4 5 5 5 5 5
13 11 10 10 11 10 8 7 7 8 10 11 11 10 9 8 7 7 8 7 6 4 2 2 3 5 6 6 5 5 5 5 6 6 5 6 6 5 5 5 4 4 5 5 4 5 6 7 6 5 5 4 3 1 1 1 1 2 2 1 2 3 4
12 10 8 8 6 4 2 3 3 4 6 8 7 7 7 8 8 7 7 6 3 2 4 4 4 4 6 6 5 4 4 5 6 6 5 5 5 5 5 5 3 3 4 3 3 4 4 3 4 4 4 3 2 1 2 2 2 3 3 3 3 5 6
11 10 9 7 4 1 1 2 4 5 7 7 6 4 3 5 6 3 3 2 2 2 1 3 3 3 4 4 4 4 4 4 5 5 5 3 3 3 4 6 5 3 3 6 6 5 4 3 2 2 3 2 1 2 2 1 6 8 8 7 6 7 8
11 10 9 7 5 2 1 1 4 6 6 5 5 3 1 1 3 3 2 2 3 3 3 3 4 4 5 5 5 5 6 5 4 4 5 4 3 2 2 4 4 2 4 6 7 7 7 7 5 5 5 3 5 7 6 6 10 12 11 11 10 10 11
14 13 11 9 8 7 4 1 2 4 4 4 4 3 3 4 3 3 4 3 4 4 3 4 5 4 4 5 4 4 6 6 4 2 4 4 3 4 4 3 3 4 4 5 6 7 9 9 9 10 8 6 9 11 10 10 13 14 14 15 14 14 14
17 18 17 14 10 8 6 3 1 1 2 3 3 2 1 2 2 3 4 5 6 5 3 4 4 4 5 5 2 3 5 5 4 2 2 1 2 2 3 4 5 5 4 4 4 6 7 9 10 11 10 10 12 14 12 12 13 14 15 15 15 15 14
17 19 18 15 12 10 8 5 3 1 0 1 3 2 2 4 3 4 4 5 7 7 5 4 5 5 5 4 3 4 4 3 3 3 3 2 1 2 1 2 6 10 9 6 4 3 4 6 7 8 9 10 11 13 12 11 12 12 12 13 12 12 12

ECMWFFLT1_850_spd_114.txt.gz
Wind_Speed
30 28 25 24 27 26 26 29 28 27 27 26 25 23 22 22 23 24 23 23 23 22 21 20 19 19 19 19 19 18 18 17 17 16 14 12 10 11 12 11 11 10 10 11 10 11 11 9 10 10 9 9 10 10 9 8 9 9 9 10 10 10 8
29 27 24 22 25 26 25 28 28 28 28 27 25 24 23 23 23 24 23 23 24 23 23 21 20 20 19 19 19 19 19 18 17 16 14 13 12 12 12 10 10 10 10 11 10 11 11 10 10 9 9 9 9 10 9 9 10 9 9 10 10 10 9
28 27 25 23 24 25 25 28 28 28 28 27 25 24 24 24 23 24 23 23 23 23 23 22 21 21 20 19 19 19 20 19 17 16 15 14 14 13 12 11 11 12 12 11 10 9 11 10 10 11 10 10 10 10 10 10 10 10 10 9 10 10 9
27 27 25 26 26 23 24 29 28 27 28 27 27 25 25 25 23 23 23 23 23 23 24 23 22 21 20 20 19 18 19 19 18 17 15 13 14 13 13 13 13 13 13 12 10 9 11 10 10 12 12 11 11 10 10 11 10 10 11 9 9 10 9
24 25 24 27 28 23 24 30 28 27 28 27 27 26 24 25 23 22 22 22 23 23 23 22 21 20 20 20 20 18 19 19 19 18 16 14 14 14 14 14 13 13 13 12 11 10 11 10 10 12 11 11 11 11 11 11 11 11 11 9 9 10 9
21 24 25 28 30 24 25 30 28 26 28 27 28 27 25 25 23 22 22 22 22 22 22 21 20 20 20 19 19 18 18 18 19 19 17 17 16 14 14 14 13 12 12 12 12 12 11 11 12 11 10 11 11 11 11 11 10 11 10 9 10 9 8
22 25 25 29 35 30 27 31 30 26 26 27 28 27 25 25 24 22 23 23 22 21 21 21 20 20 19 18 18 18 18 18 18 18 17 17 16 13 12 12 13 13 13 13 14 14 13 13 11 10 9 10 10 12 12 11 10 10 10 9 10 10 8
20 24 24 27 35 33 29 32 32 28 25 26 29 28 25 25 25 24 23 22 22 22 21 21 21 20 19 18 18 18 17 17 17 17 17 16 16 14 13 13 14 14 15 15 15 15 15 13 11 11 11 11 11 13 13 12 11 11 11 10 10 9 10
18 21 24 26 30 32 30 31 30 27 23 23 27 27 26 26 25 25 26 25 24 22 21 21 20 19 19 18 18 18 17 17 17 17 17 16 16 16 15 15 14 14 15 14 14 15 16 15 14 14 13 13 14 14 14 13 12 12 12 11 11 10 11
18 20 22 23 25 28 29 27 26 27 24 23 25 26 26 27 27 26 26 27 26 23 22 21 20 19 19 19 18 17 17 17 17 16 16 17 16 16 16 15 14 15 16 15 13 15 16 15 16 16 15 16 16 15 15 15 14 13 13 13 12 11 10
18 19 20 20 21 23 25 22 21 24 25 25 25 25 25 25 26 26 25 25 26 26 24 22 20 19 20 20 19 18 17 16 16 16 16 16 16 16 16 16 15 16 17 16 15 16 16 15 16 16 15 16 16 15 16 16 15 15 15 15 14 11 11
15 16 19 23 23 24 26 24 22 22 23 22 23 23 23 23 23 25 24 24 25 26 26 24 22 22 22 22 21 20 19 17 16 16 16 16 16 16 16 16 16 16 17 18 17 17 16 15 15 15 15 16 16 15 16 16 16 16 16 15 15 14 13
11 13 17 24 26 25 26 26 25 25 24 23 22 22 23 23 21 21 22 22 23 24 25 24 23 25 25 23 22 20 20 19 17 16 16 16 16 16 15 16 16 16 17 18 19 18 17 17 16 15 15 16 16 16 16 17 17 17 17 16 15 15 14
9 11 13 17 22 25 25 25 26 27 28 28 26 24 24 24 22 21 21 22 22 22 24 24 23 24 23 22 22 20 19 19 18 16 16 16 16 16 15 16 16 17 18 19 19 18 18 18 18 17 15 15 16 16 16 17 17 17 17 17 15 15 15
8 9 11 12 17 24 26 25 26 27 28 28 27 25 25 25 24 23 23 24 23 22 22 22 21 21 20 20 21 21 20 20 19 18 18 17 17 17 17 17 16 15 17 19 19 18 19 19 18 18 17 16 17 17 17 17 17 17 17 17 16 16 15
5 6 10 11 13 21 25 24 24 26 27 27 26 25 23 21 21 22 22 23 23 21 21 21 19 19 18 19 20 20 19 20 21 22 22 21 20 19 20 20 17 15 15 17 17 16 17 18 19 20 20 20 20 20 18 17 17 17 16 17 17 16 15
6 5 9 11 11 17 23 22 21 23 25 25 24 23 22 21 20 20 21 21 21 20 20 20 20 19 17 17 19 20 20 20 21 23 23 24 23 22 23 23 22 19 18 18 19 16 15 17 18 19 20 19 19 19 17 17 17 17 16 16 17 16 15
11 12 13 12 10 12 16 19 20 21 23 22 21 19 19 21 24 24 23 23 22 21 21 20 20 18 17 17 18 18 20 20 20 22 24 25 25 24 23 24 25 24 21 20 20 19 17 16 16 16 16 16 16 17 16 15 18 18 15 14 16 17 16
12 14 17 17 15 13 12 11 12 16 19 19 17 18 19 18 20 21 19 19 18 18 19 21 21 21 21 21 21 20 20 21 21 22 24 25 25 26 25 24 24 25 24 22 21 20 18 17 17 18 18 16 15 15 15 17 19 19 17 15 17 18 17
14 16 17 16 15 14 15 14 9 8 14 14 10 12 16 16 18 19 17 15 14 13 14 15 17 18 19 20 21 22 23 23 23 24 24 24 25 27 28 27 25 24 24 24 23 23 22 20 19 21 22 21 19 16 17 19 19 17 17 17 18 20 19
15 16 15 14 14 13 15 15 11 7 8 9 5 5 9 10 12 15 15 14 14 14 14 14 14 14 15 16 17 18 21 22 23 25 26 26 27 28 30 29 27 26 25 25 25 25 26 25 23 23 23 24 24 23 23 23 19 16 16 15 17 21 21
16 17 16 16 15 15 16 17 15 13 11 8 7 5 4 4 4 6 8 11 13 13 13 14 13 11 13 16 15 15 17 19 20 22 22 22 24 26 29 31 31 31 31 30 29 28 28 27 26 26 25 25 25 25 25 25 21 18 18 15 14 18 20
16 17 18 18 17 16 17 18 17 15 15 14 13 11 8 5 2 2 2 5 7 6 6 8 8 7 8 13 15 15 16 17 18 18 19 19 20 22 24 26 28 29 31 32 32 31 31 29 28 28 27 27 27 26 25 24 21 18 19 18 17 18 19
17 16 17 19 20 20 19 20 19 18 16 16 16 15 15 13 9 7 7 6 4 3 2 2 4 4 4 6 8 9 10 12 13 14 16 17 18 18 19 19 20 21 24 26 26 27 28 29 29 29 28 28 29 28 25 23 21 18 19 22 23 22 22
19 17 16 16 19 22 23 22 21 20 18 17 15 13 13 14 13 12 13 13 11 10 9 9 9 9 9 9 8 5 3 3 5 7 10 13 13 14 15 16 17 17 18 19 20 21 23 25 26 28 29 30 31 29 24 21 19 18 20 23 25 25 24
20 19 18 16 17 19 20 20 21 22 21 19 16 12 11 13 14 15 14 14 13 13 12 11 10 10 10 11 10 8 6 4 4 5 5 5 5 5 7 10 12 13 14 16 16 17 18 20 23 26 29 32 33 30 25 22 18 17 20 23 23 23 23
18 19 19 17 17 17 18 19 20 20 20 20 18 14 11 11 14 15 15 15 15 13 11 9 10 9 10 12 12 10 9 7 5 5 4 3 3 2 3 4 4 4 6 8 10 11 13 14 16 17 18 24 29 28 24 22 19 17 19 21 20 20 20
17 18 18 18 17 17 19 20 20 18 17 17 17 16 13 11 12 13 13 14 16 13 9 7 8 9 10 12 12 13 13 11 8 6 5 5 6 4 4 4 3 2 1 2 3 5 7 8 9 7 6 12 20 23 21 20 19 19 20 20 18 18 19
18 19 19 20 20 19 19 21 21 20 19 17 16 15 14 13 12 11 12 13 14 12 9 7 6 7 9 10 11 12 12 10 8 6 5 7 8 7 6 5 5 5 5 5 5 4 3 2 4 4 4 7 12 16 18 18 18 18 19 18 16 15 15
17 18 18 19 19 18 18 19 20 19 19 19 17 15 14 13 12 12 13 14 13 11 10 10 8 7 7 8 11 12 11 9 9 9 9 9 9 10 9 8 8 9 10 10 10 10 8 7 7 5 5 5 6 7 9 11 12 11 12 13 12 10 9
13 14 14 14 14 13 13 14 15 15 16 17 17 17 17 15 13 12 12 11 10 9 10 11 9 8 7 7 9 11 10 9 9 10 11 10 9 9 9 8 8 10 9 8 11 12 11 9 8 8 8 7 5 5 5 4 6 6 6 7 7 6 6
10 11 10 10 10 9 9 10 10 11 12 14 14 14 15 13 11 9 8 8 6 6 8 9 8 8 9 8 8 8 7 7 8 8 9 9 8 7 7 7 8 9 8 7 10 11 10 9 8 6 8 9 8 7 5 4 5 6 5 5 4 4 4
10 10 9 8 7 6 8 8 8 8 9 9 10 10 11 12 11 8 7 8 7 5 7 7 6 6 7 7 7 7 6 7 9 7 5 8 8 6 8 7 4 3 5 8 9 9 8 8 7 6 7 7 6 5 5 4 3 3 3 2 2 2 1
10 9 8 6 4 4 5 7 9 10 9 8 8 7 7 9 11 9 8 7 6 5 6 7 6 6 6 6 7 7 6 5 7 6 4 3 4 4 6 6 4 4 5 7 8 8 8 9 9 7 7 7 6 6 6 5 5 4 3 2 2 2 3
11 10 8 5 3 2 3 4 7 9 9 7 7 7 6 5 5 5 6 7 5 4 5 7 7 5 5 6 6 7 6 3 3 6 6 5 2 2 4 5 4 2 3 7 8 6 6 8 10 9 9 8 7 7 7 6 6 6 6 6 7 8 8
11 10 8 6 5 4 4 2 3 5 6 5 5 5 5 4 2 1 2 3 4 3 4 7 5 5 3 2 5 7 9 5 1 5 9 8 3 3 1 2 2 3 1 4 7 7 8 8 8 8 9 9 8 9 10 10 9 10 11 11 12 13 12
12 10 9 9 9 8 5 3 1 2 4 4 4 4 4 2 0 2 2 2 2 1 2 6 7 2 5 3 4 8 7 5 2 2 5 8 6 3 3 4 5 6 5 2 1 5 8 10 10 10 12 13 12 11 11 12 13 13 13 13 13 13 13
11 12 12 12 12 11 7 5 3 2 1 1 2 3 4 2 1 2 3 3 3 2 2 5 9 7 2 2 3 6 5 3 3 3 2 4 5 4 3 4 7 7 6 6 5 3 2 4 6 8 9 11 11 10 10 11 12 12 12 12 12 11 11

ECMWFFLT1_850_spd_117.txt.gz
Wind_Speed
29 28 23 24 31 33 31 31 31 31 30 30 30 30 29 29 29 28 25 24 27 26 24 23 23 23 23 22 22 22 22 21 18 17 18 17 16 16 16 14 12 12 13 12 12 11 10 11 10 10 10 10 9 8 8 7 8 8 8 8 8 8 7
29 31 27 23 28 33 32 31 32 32 31 30 29 29 31 31 30 29 27 24 25 27 25 24 24 24 23 23 22 21 23 23 19 17 18 18 16 15 15 14 12 12 12 12 12 12 10 11 10 10 11 11 10 9 8 8 9 9 9 9 9 10 9
33 34 32 27 27 30 32 33 33 33 32 32 30 30 31 31 30 30 28 25 24 26 26 24 24 24 23 23 22 21 22 24 22 19 17 16 15 14 14 13 12 12 12 12 13 13 11 11 11 10 11 11 10 9 9 9 9 9 9 10 10 9 9
35 37 35 31 28 26 30 34 36 34 33 34 33 32 30 28 28 29 27 25 23 25 27 25 24 24 23 23 23 22 22 23 23 21 18 17 16 15 14 13 12 13 13 13 13 13 12 12 12 12 12 11 9 9 9 10 10 10 10 9 9 9 8
34 35 35 34 30 26 25 31 37 36 34 35 35 33 30 28 28 29 27 24 22 24 26 26 25 24 23 23 22 22 22 22 21 20 18 17 16 15 15 14 14 14 14 14 14 13 12 12 12 13 12 10 10 9 9 10 10 10 10 9 8 8 7
31 34 35 34 32 29 24 28 36 37 35 36 35 32 29 29 30 29 27 25 23 23 26 26 25 25 24 23 22 21 22 22 21 20 19 17 15 15 16 16 15 14 14 14 14 13 12 11 12 12 11 11 11 10 9 10 10 10 10 9 9 8 8
28 31 34 32 31 29 24 25 34 37 35 35 34 30 29 29 30 30 27 25 23 24 26 27 26 25 24 23 22 21 21 22 22 21 20 19 17 16 16 16 16 15 14 14 14 14 13 12 12 11 11 12 12 11 10 10 9 9 10 9 9 9 9
26 28 30 31 30 29 24 23 29 34 34 34 33 31 30 30 30 29 27 24 23 23 26 27 26 25 24 23 23 22 20 20 21 21 21 20 19 19 17 16 16 15 14 14 15 15 14 13 12 11 11 12 12 11 11 11 10 9 10 10 9 9 9
21 25 24 24 25 26 25 22 24 30 31 32 34 33 31 31 30 28 26 24 23 23 24 25 26 24 23 22 22 22 19 19 20 21 22 22 20 20 18 16 16 16 15 14 13 14 14 14 13 13 13 14 12 12 12 12 11 11 10 10 9 9 9
7 16 19 21 22 25 28 27 27 29 28 27 32 33 32 32 30 27 26 25 24 25 23 23 25 25 22 21 21 21 19 18 19 19 21 23 21 20 18 16 15 16 16 15 14 14 14 15 15 15 15 14 13 14 14 13 12 12 12 11 10 10 9
4 13 19 23 23 22 26 31 32 32 29 28 32 33 32 33 31 28 28 27 26 26 23 22 25 26 23 20 21 22 20 19 18 17 18 20 20 19 17 16 15 15 15 15 15 14 14 16 16 17 16 14 14 15 15 14 14 14 13 12 11 10 10
10 13 17 21 21 19 22 29 33 32 29 30 33 33 32 32 31 30 30 29 28 27 24 23 24 25 23 21 21 22 21 19 18 18 17 17 19 19 18 18 17 17 16 16 14 13 14 14 15 16 16 15 15 16 16 15 15 14 13 12 11 11 11
10 10 12 17 20 20 22 26 31 32 29 30 33 34 33 32 32 31 30 29 30 29 27 26 25 22 21 22 22 21 21 19 18 18 17 16 17 17 17 17 18 19 19 17 16 15 14 13 13 15 16 15 15 16 16 16 16 15 14 14 13 13 13
6 8 9 12 15 20 22 22 24 26 27 29 31 31 31 32 32 30 29 30 32 32 29 28 27 24 21 22 22 21 21 21 20 19 18 17 17 17 17 17 17 19 20 19 18 17 15 14 13 14 15 15 15 15 15 15 15 15 15 15 15 14 14
6 7 6 9 14 20 21 18 17 17 20 26 30 30 31 33 32 31 29 29 31 32 30 29 29 28 24 22 22 23 23 23 23 21 19 18 18 18 19 19 18 19 20 20 19 18 17 15 14 14 15 15 15 14 15 15 15 15 16 15 15 14 14
8 5 2 5 10 19 21 17 14 13 15 19 24 27 28 28 30 30 30 29 28 30 31 29 28 29 27 24 24 25 23 21 22 22 21 19 19 20 22 22 20 19 20 19 17 17 18 16 14 14 15 15 15 14 14 16 16 15 15 15 15 15 14
6 4 1 1 1 8 15 14 13 14 14 14 18 22 23 22 22 22 24 26 26 27 29 29 28 28 27 25 25 24 22 18 19 23 24 22 20 20 22 23 22 20 21 19 17 17 19 17 17 17 17 17 17 17 17 18 16 14 14 14 14 15 14
5 6 7 6 5 4 3 10 12 11 11 14 17 21 23 21 18 15 17 21 22 23 25 27 27 26 26 26 25 23 23 22 22 26 27 26 24 23 23 24 24 23 22 20 18 19 20 20 20 20 20 20 20 20 20 21 18 16 15 14 14 15 15
15 15 16 14 11 11 8 7 10 6 6 10 13 16 18 18 14 10 11 15 17 18 20 20 19 18 18 20 20 21 23 26 26 28 28 27 27 26 26 27 28 27 25 23 21 19 19 20 22 22 21 22 23 23 22 22 20 17 17 16 16 15 16
16 15 17 18 17 17 16 10 5 5 5 6 8 9 12 14 14 11 10 11 14 16 17 17 15 14 14 16 17 18 21 24 26 27 25 25 26 27 27 29 29 29 29 28 26 23 19 19 20 21 21 22 23 23 22 21 20 18 17 18 18 17 16
14 13 15 17 17 17 19 16 9 6 6 5 4 6 8 11 13 13 11 11 13 14 16 18 19 19 20 21 21 21 22 24 25 25 24 23 25 26 27 28 29 29 30 30 29 27 24 20 19 19 19 21 21 21 20 20 19 18 19 19 20 20 19
17 16 17 19 19 18 19 19 16 13 12 11 8 6 4 3 4 6 6 6 6 6 9 14 18 20 21 22 22 22 23 24 25 25 25 25 26 26 27 28 29 29 29 29 29 28 27 25 23 21 20 19 20 21 21 21 20 21 22 21 20 20 20
20 20 19 19 20 20 19 19 20 19 19 19 17 16 14 11 8 6 6 5 3 3 5 10 14 16 17 17 19 19 19 20 21 22 24 26 26 26 27 29 30 30 30 29 28 28 28 28 27 26 25 23 23 23 23 23 23 25 25 24 22 21 19
22 22 19 17 16 16 16 16 16 16 17 20 20 18 17 17 16 15 14 14 12 11 10 8 8 9 9 10 12 15 15 16 18 19 19 20 21 22 22 24 26 28 28 29 29 29 30 30 30 30 29 28 27 27 27 27 27 27 27 25 23 22 21
24 22 20 19 17 15 14 15 15 14 14 17 18 18 18 20 20 19 18 17 15 15 14 11 8 8 7 5 3 5 8 8 10 12 14 15 16 18 19 20 21 22 23 24 25 26 27 29 30 31 31 30 31 31 31 31 31 30 29 26 23 22 22
22 20 18 17 17 16 16 16 16 16 16 17 17 18 18 18 19 19 18 15 13 14 13 12 10 10 10 9 9 6 4 2 1 3 6 9 10 12 15 17 18 18 18 19 20 21 21 22 24 26 27 28 29 31 31 31 31 30 30 28 25 23 23
18 17 15 14 14 15 15 16 15 15 15 14 14 15 15 14 15 18 18 16 14 13 12 11 9 9 9 10 11 11 10 8 6 3 1 3 4 5 6 8 9 11 12 13 14 15 15 16 18 19 20 22 25 26 28 29 30 30 29 28 26 24 23
17 16 14 13 12 11 12 13 12 11 10 9 8 10 12 12 14 18 19 19 17 15 12 10 9 8 8 9 11 13 13 13 11 8 5 3 2 4 4 3 3 4 5 6 7 8 8 9 11 10 11 14 18 21 23 26 29 30 28 25 24 23 22
17 17 15 13 12 10 9 10 11 12 11 9 7 7 7 7 9 12 14 17 17 15 13 12 10 9 9 9 11 11 12 14 13 11 10 11 9 6 6 6 5 5 5 5 5 5 4 5 6 5 4 6 10 14 17 19 22 25 24 21 19 19 19
16 16 16 15 14 12 11 10 11 13 13 12 10 8 6 4 5 6 9 11 13 13 14 14 13 12 10 9 9 9 9 11 12 10 9 10 11 11 11 11 11 12 12 11 10 9 8 6 6 6 5 5 5 5 7 9 12 15 17 16 15 14 15
16 16 15 15 14 13 12 12 12 12 13 13 11 9 8 6 5 5 6 8 8 9 11 13 14 14 12 9 8 9 9 8 8 7 7 8 8 9 10 11 10 12 13 13 12 11 10 8 7 6 5 4 5 5 6 8 9 10 12 12 11 12 12
15 14 13 12 10 9 9 8 8 8 10 12 12 12 11 8 6 5 5 6 6 5 5 6 9 10 11 10 10 9 8 6 5 5 5 5 6 6 7 9 8 8 10 11 11 12 12 12 11 10 8 9 10 11 10 9 9 8 8 8 7 8 8
12 9 9 8 7 6 5 4 3 5 6 7 9 9 10 10 9 8 7 5 4 4 4 3 4 6 8 9 10 9 8 7 5 4 3 3 2 2 4 5 5 6 7 8 9 8 10 12 12 10 10 11 11 10 10 9 9 8 8 8 7 6 6
11 10 8 7 5 4 4 3 2 3 4 5 5 5 5 6 6 7 7 5 3 3 3 3 4 4 5 7 9 9 7 6 4 3 5 4 1 1 1 1 1 3 5 5 7 7 7 9 10 10 10 9 6 5 5 4 4 4 5 6 6 5 5
11 10 8 5 3 2 2 2 2 3 3 3 3 3 3 3 2 3 4 5 4 4 4 3 4 4 4 6 9 9 6 3 2 1 4 5 3 3 4 6 3 2 5 3 3 5 5 6 7 8 8 6 4 3 2 2 2 1 1 2 2 2 2
11 10 9 6 4 4 4 3 2 2 2 2 3 3 3 2 1 2 3 2 3 5 6 6 5 5 6 8 9 9 8 5 3 1 2 3 4 6 3 1 2 1 5 8 7 4 1 2 6 6 6 6 4 4 4 5 6 6 6 5 5 6 6
9 9 9 7 6 6 6 5 3 2 2 1 1 2 2 2 1 2 2 3 4 6 6 6 5 5 8 11 11 10 8 6 6 4 3 3 2 5 7 6 7 6 2 4 8 8 6 6 7 8 8 8 8 9 10 10 10 10 10 9 9 9 7
9 9 8 8 8 8 8 7 5 3 2 2 1 1 1 1 2 3 3 4 6 8 8 8 5 3 7 12 14 13 9 7 7 7 7 5 3 2 3 3 4 5 6 5 2 3 3 4 6 8 9 10 12 12 12 12 11 11 10 9 8 7 6

ECMWFFLT1_850_spd_123.txt.gz
Wind_Speed
29 28 28 32 37 40 41 44 44 44 43 42 40 37 35 33 31 28 26 23 24 26 28 28 28 29 29 28 27 26 26 25 24 24 23 22 21 19 19 18 19 19 18 17 18 17 14 14 14 13 13 14 14 13 12 12 11 11 11 11 10 9 8
28 28 26 28 35 40 42 44 45 44 44 43 40 38 36 35 32 30 27 24 24 27 28 28 28 29 29 28 27 27 27 26 25 25 24 22 21 20 19 18 18 18 17 16 16 16 14 13 13 13 13 14 14 13 12 11 11 11 11 11 10 10 9
29 29 27 26 30 38 42 43 45 46 45 44 42 39 38 36 33 31 28 25 25 26 27 27 28 28 29 28 27 27 27 27 26 25 24 23 21 21 20 19 18 18 17 16 15 15 15 13 13 13 14 14 14 14 13 12 11 11 11 11 10 10 10
30 31 31 27 27 34 41 43 45 46 46 45 43 41 39 36 34 31 28 25 24 25 26 26 26 27 28 28 28 28 28 27 27 26 25 23 22 21 21 21 20 18 18 17 16 16 15 14 14 14 14 14 14 14 13 12 12 11 11 11 11 10 10
30 32 34 32 27 28 35 42 44 46 47 45 44 41 38 36 34 32 30 27 25 25 25 25 25 26 27 28 29 29 28 27 27 26 25 25 23 22 23 22 21 19 19 18 17 17 17 16 16 15 15 15 14 14 14 13 12 12 12 12 11 11 10
31 33 36 37 33 26 28 37 43 44 45 45 44 42 39 37 35 33 31 29 27 26 25 25 25 26 27 28 29 29 28 28 27 26 25 25 24 24 24 23 22 20 19 18 18 18 18 18 17 16 15 15 14 14 14 13 12 12 13 13 12 11 10
29 32 35 38 38 30 24 29 38 43 43 44 44 43 40 38 36 34 33 32 30 27 27 27 26 26 27 28 29 29 29 28 27 26 26 25 25 25 24 24 22 21 19 19 19 19 19 19 18 17 16 15 15 14 13 13 13 13 13 13 12 11 11
27 29 32 36 39 36 28 25 30 38 42 42 43 44 43 40 38 36 35 34 32 30 29 29 28 27 27 28 29 29 29 28 27 27 26 26 26 25 25 24 23 21 21 20 20 20 19 18 18 17 17 16 15 14 14 14 14 13 13 13 12 12 12
17 21 22 26 30 33 31 27 27 34 40 42 43 44 43 42 39 38 37 35 34 33 31 30 28 26 27 29 30 30 30 29 28 27 27 27 26 25 25 25 23 22 22 22 21 19 19 18 18 17 17 16 16 15 14 15 15 14 14 13 13 12 12
5 12 16 19 23 25 26 23 20 24 31 37 41 45 45 45 42 39 38 37 36 34 32 30 29 27 27 29 29 29 30 30 29 28 27 27 26 26 25 24 23 22 22 21 20 19 18 17 17 17 17 16 16 15 15 15 15 15 15 14 13 12 12
10 5 6 5 12 19 24 23 17 13 13 16 23 31 35 39 42 41 40 40 39 36 33 31 29 27 27 28 30 30 30 30 30 29 28 27 26 26 25 24 23 22 21 20 19 18 17 17 18 18 18 17 16 16 15 15 15 15 14 14 14 13 12
9 7 5 4 3 6 13 20 24 24 19 13 13 20 24 27 32 36 38 39 37 34 34 33 31 28 27 27 30 30 30 30 31 30 29 28 27 26 26 25 25 23 21 20 18 17 16 16 17 18 18 17 17 16 16 15 15 15 14 14 14 14 13
8 4 8 7 4 4 4 8 16 26 29 25 21 25 29 31 31 34 37 40 37 33 32 33 32 32 29 28 30 31 30 30 30 30 29 29 29 28 27 26 26 25 22 20 18 18 17 17 17 17 16 16 16 17 16 16 16 16 15 14 14 14 14
9 3 4 8 8 9 8 5 6 13 22 26 26 27 31 35 37 37 37 40 41 39 35 32 34 35 32 30 31 32 30 29 28 28 28 28 28 29 28 28 27 26 24 22 21 19 18 17 17 16 14 14 14 16 17 16 16 16 16 16 15 15 15
7 6 3 3 4 6 6 4 4 8 14 20 24 27 31 35 39 40 39 39 39 40 39 36 34 34 31 29 31 32 31 29 27 26 26 26 26 27 28 28 28 27 25 24 22 21 19 17 17 16 14 13 13 13 15 16 17 17 17 17 16 16 16
6 8 8 3 2 4 4 3 3 5 10 16 22 26 29 33 37 41 42 41 38 38 38 36 33 32 31 28 28 30 30 28 27 26 26 25 24 24 25 26 27 28 28 26 24 22 21 19 18 18 17 15 13 13 14 15 16 16 17 17 17 17 17
7 7 8 6 4 3 3 4 5 6 7 13 20 24 27 29 32 35 38 40 38 35 34 35 33 32 30 27 26 27 28 27 26 26 27 27 25 23 22 23 25 27 27 26 24 23 22 21 21 21 20 18 17 15 15 16 16 16 17 17 18 18 19
9 10 10 9 7 4 3 2 3 5 6 9 17 23 26 27 28 29 32 35 35 34 34 36 34 31 28 26 25 27 28 28 27 26 27 29 29 27 26 26 27 28 29 28 26 24 23 23 23 22 22 21 20 18 18 18 17 18 19 19 19 19 20
9 9 10 9 8 7 5 4 3 3 2 4 11 19 24 26 27 27 29 32 34 34 36 37 34 31 30 28 28 29 29 30 30 28 27 28 30 29 29 29 28 29 30 28 26 24 23 23 23 23 22 22 22 21 20 20 19 19 19 20 20 20 19
10 9 9 9 8 8 6 5 4 2 2 2 3 11 16 20 23 23 24 28 31 33 36 36 33 30 30 30 30 30 30 29 30 29 27 28 28 27 27 27 26 27 27 26 26 25 24 23 22 22 23 24 24 24 23 22 21 20 20 20 20 20 20
10 9 10 10 10 9 8 7 6 3 2 3 1 4 10 15 19 21 22 24 25 26 29 31 29 27 27 27 26 27 28 28 28 28 26 27 29 26 22 22 23 23 23 23 24 25 25 24 23 22 23 25 26 26 26 24 24 23 22 21 21 21 22
11 10 10 11 10 9 9 8 8 8 6 5 4 4 5 8 12 15 17 19 19 20 22 24 25 25 26 26 25 25 26 27 28 28 27 28 30 29 24 21 21 21 22 23 23 23 24 24 24 23 23 25 26 27 27 27 26 25 24 23 23 23 24
11 10 10 10 10 10 11 10 10 11 9 9 9 8 7 6 7 9 10 13 15 16 18 19 21 23 24 24 25 25 24 24 24 25 25 26 27 27 26 25 23 22 23 24 24 24 26 26 25 25 24 25 26 27 28 28 28 27 26 26 26 27 27
10 11 11 11 12 12 12 12 12 13 12 12 13 12 10 6 4 6 9 12 13 13 12 13 15 18 19 19 20 20 19 20 21 20 20 21 22 23 25 26 25 23 24 25 26 27 28 28 28 27 27 27 28 29 29 29 29 29 29 29 28 28 29
10 10 10 9 10 10 10 10 11 13 14 14 15 14 11 9 5 5 8 10 10 10 9 9 11 14 15 16 17 17 17 18 21 21 20 20 21 23 26 27 27 26 26 28 29 28 27 28 28 29 29 30 30 30 31 32 31 31 31 30 29 29 29
10 9 8 8 8 8 8 8 9 12 13 14 14 13 11 9 7 6 8 8 7 7 7 7 7 7 8 9 11 15 17 19 20 22 22 22 22 23 26 28 28 27 27 27 27 27 26 27 29 30 30 30 31 30 31 33 33 32 32 32 31 31 30
10 9 8 8 8 8 7 7 8 10 11 12 12 10 9 7 7 8 10 10 10 10 9 8 7 6 5 6 6 6 9 10 13 16 18 19 20 21 22 24 24 25 25 25 25 26 26 26 28 29 30 30 30 30 31 32 33 34 35 35 35 34 33
9 9 8 7 6 6 6 6 7 8 9 10 10 9 7 5 5 8 9 10 12 12 10 7 6 5 5 6 5 4 3 2 4 7 9 11 13 14 14 14 15 17 19 19 20 22 23 23 24 25 26 27 27 27 27 29 30 32 34 36 37 37 36
6 6 6 5 5 4 4 4 5 6 7 7 8 8 7 6 6 6 6 8 11 10 8 6 5 3 4 4 3 3 3 3 2 1 3 5 7 9 10 10 10 12 13 13 14 16 16 16 17 18 21 23 25 26 26 25 25 27 29 30 31 32 32
4 4 3 4 5 5 5 5 5 5 5 5 6 7 7 6 7 7 7 9 9 7 5 5 3 2 2 2 2 2 2 2 3 2 1 2 2 3 5 6 8 9 10 11 12 12 11 11 12 13 15 17 19 20 19 18 19 20 21 23 24 25 26
6 6 6 7 8 8 9 9 8 7 6 6 6 6 6 5 5 5 7 8 7 5 4 3 2 2 1 1 1 1 1 1 1 2 2 3 4 4 4 3 4 5 7 9 11 11 9 8 10 10 9 9 9 8 7 8 10 12 13 15 17 20 21
9 9 8 8 8 8 8 8 8 8 7 7 7 6 6 5 4 4 4 5 5 3 3 3 1 1 1 1 1 1 1 1 2 2 3 3 4 5 6 6 5 5 5 3 6 9 8 7 8 7 6 5 4 3 2 2 3 4 5 6 8 10 11
7 7 6 7 7 7 7 7 7 6 6 6 6 6 6 6 5 4 2 2 2 1 1 1 1 2 2 3 3 3 3 3 4 5 6 6 6 6 6 6 7 7 8 8 2 5 7 7 7 6 6 6 5 5 4 4 3 2 1 1 1 2 4
4 4 5 5 6 6 7 8 8 8 8 7 6 6 6 6 5 3 2 1 1 2 2 2 2 3 3 3 4 4 4 5 6 7 8 9 9 8 7 6 5 5 6 8 7 2 5 6 5 5 7 8 8 8 7 6 4 3 2 2 2 3 4
3 1 2 3 4 5 7 8 9 9 10 10 9 8 8 8 7 6 4 3 3 3 3 3 4 5 5 5 4 4 4 5 6 6 8 9 10 9 7 4 3 3 4 6 7 5 3 4 5 7 9 9 8 8 6 4 3 2 1 2 3 4 4
4 5 5 3 4 5 7 7 8 9 9 10 10 10 10 10 10 9 8 7 6 5 5 5 5 6 7 7 6 6 5 5 5 6 7 7 7 8 8 5 3 3 3 4 5 5 3 2 3 5 6 5 4 3 1 0 1 3 5 7 9 8 8
3 4 6 6 7 7 7 8 8 9 9 9 9 10 11 11 10 10 9 9 8 8 7 6 6 6 8 8 8 8 7 5 5 5 5 5 5 6 7 7 6 5 4 4 4 4 2 1 1 2 2 3 4 4 5 7 8 9 10 12 13 12 10
2 3 5 7 7 7 7 8 9 10 10 10 10 10 10 11 10 10 10 9 9 8 7 6 6 6 7 8 9 9 8 7 6 5 5 5 5 5 5 4 5 6 6 5 5 5 4 2 1 4 5 7 8 8 8 10 12 13 13 13 13 11 9